<?xml version="1.0" encoding="UTF-8" standalone="no" ?>
<gpx xmlns="http://www.topografix.com/GPX/1/1" xmlns:xsi="http://www.w3.org/2001/XMLSchema-instance" xsi:schemaLocation="http://www.topografix.com/GPX/1/1 http://www.topografix.com/GPX/1/1/gpx.xsd" version="1.1" creator="VisuGPX - https://www.visugpx.com">
  <metadata>
    <name>club vtt des rochers</name>
    <desc><![CDATA[piste sur péméja]]></desc>
  </metadata>
  <trk>
    <name><![CDATA[28-NOV-15 17:23:31]]></name>
    <trkseg>
      <trkpt lat="44.47195" lon="0.93435">
        <ele>65.99</ele>
        <time>2015-11-28T13:13:52Z</time>
      </trkpt>
      <trkpt lat="44.47197" lon="0.93435">
        <ele>69.83</ele>
        <time>2015-11-28T13:14:27Z</time>
      </trkpt>
      <trkpt lat="44.47196" lon="0.93436">
        <ele>66.95</ele>
        <time>2015-11-28T13:14:56Z</time>
      </trkpt>
      <trkpt lat="44.47196" lon="0.93435">
        <ele>67.43</ele>
        <time>2015-11-28T13:15:16Z</time>
      </trkpt>
      <trkpt lat="44.47195" lon="0.93436">
        <ele>68.87</ele>
        <time>2015-11-28T13:15:42Z</time>
      </trkpt>
      <trkpt lat="44.47195" lon="0.93435">
        <ele>70.79</ele>
        <time>2015-11-28T13:16:09Z</time>
      </trkpt>
      <trkpt lat="44.47195" lon="0.93435">
        <ele>70.79</ele>
        <time>2015-11-28T13:16:28Z</time>
      </trkpt>
      <trkpt lat="44.47195" lon="0.93434">
        <ele>70.79</ele>
        <time>2015-11-28T13:16:51Z</time>
      </trkpt>
      <trkpt lat="44.47195" lon="0.93435">
        <ele>70.31</ele>
        <time>2015-11-28T13:17:18Z</time>
      </trkpt>
      <trkpt lat="44.47194" lon="0.93436">
        <ele>70.31</ele>
        <time>2015-11-28T13:17:37Z</time>
      </trkpt>
      <trkpt lat="44.47193" lon="0.93442">
        <ele>70.31</ele>
        <time>2015-11-28T13:17:41Z</time>
      </trkpt>
      <trkpt lat="44.47197" lon="0.93448">
        <ele>70.31</ele>
        <time>2015-11-28T13:17:44Z</time>
      </trkpt>
      <trkpt lat="44.472" lon="0.93451">
        <ele>70.31</ele>
        <time>2015-11-28T13:17:46Z</time>
      </trkpt>
      <trkpt lat="44.47202" lon="0.93452">
        <ele>70.31</ele>
        <time>2015-11-28T13:17:47Z</time>
      </trkpt>
      <trkpt lat="44.47204" lon="0.93452">
        <ele>69.83</ele>
        <time>2015-11-28T13:17:48Z</time>
      </trkpt>
      <trkpt lat="44.47206" lon="0.93452">
        <ele>69.83</ele>
        <time>2015-11-28T13:17:49Z</time>
      </trkpt>
      <trkpt lat="44.47209" lon="0.93453">
        <ele>69.83</ele>
        <time>2015-11-28T13:17:50Z</time>
      </trkpt>
      <trkpt lat="44.47211" lon="0.93455">
        <ele>69.83</ele>
        <time>2015-11-28T13:17:51Z</time>
      </trkpt>
      <trkpt lat="44.47213" lon="0.93457">
        <ele>69.35</ele>
        <time>2015-11-28T13:17:52Z</time>
      </trkpt>
      <trkpt lat="44.47215" lon="0.93459">
        <ele>69.83</ele>
        <time>2015-11-28T13:17:53Z</time>
      </trkpt>
      <trkpt lat="44.47216" lon="0.93462">
        <ele>69.83</ele>
        <time>2015-11-28T13:17:54Z</time>
      </trkpt>
      <trkpt lat="44.47217" lon="0.93466">
        <ele>69.83</ele>
        <time>2015-11-28T13:17:55Z</time>
      </trkpt>
      <trkpt lat="44.4722" lon="0.9347">
        <ele>69.83</ele>
        <time>2015-11-28T13:17:57Z</time>
      </trkpt>
      <trkpt lat="44.47224" lon="0.93468">
        <ele>69.35</ele>
        <time>2015-11-28T13:17:59Z</time>
      </trkpt>
      <trkpt lat="44.47251" lon="0.93442">
        <ele>67.43</ele>
        <time>2015-11-28T13:18:11Z</time>
      </trkpt>
      <trkpt lat="44.47258" lon="0.93434">
        <ele>66.95</ele>
        <time>2015-11-28T13:18:15Z</time>
      </trkpt>
      <trkpt lat="44.47279" lon="0.93462">
        <ele>66.95</ele>
        <time>2015-11-28T13:18:26Z</time>
      </trkpt>
      <trkpt lat="44.47294" lon="0.93522">
        <ele>67.43</ele>
        <time>2015-11-28T13:18:38Z</time>
      </trkpt>
      <trkpt lat="44.47304" lon="0.93577">
        <ele>65.51</ele>
        <time>2015-11-28T13:18:49Z</time>
      </trkpt>
      <trkpt lat="44.47306" lon="0.93622">
        <ele>65.99</ele>
        <time>2015-11-28T13:18:59Z</time>
      </trkpt>
      <trkpt lat="44.47307" lon="0.93657">
        <ele>64.07</ele>
        <time>2015-11-28T13:19:05Z</time>
      </trkpt>
      <trkpt lat="44.47309" lon="0.9366">
        <ele>63.58</ele>
        <time>2015-11-28T13:19:06Z</time>
      </trkpt>
      <trkpt lat="44.4731" lon="0.93663">
        <ele>63.1</ele>
        <time>2015-11-28T13:19:07Z</time>
      </trkpt>
      <trkpt lat="44.47312" lon="0.93667">
        <ele>62.62</ele>
        <time>2015-11-28T13:19:08Z</time>
      </trkpt>
      <trkpt lat="44.47313" lon="0.9367">
        <ele>62.14</ele>
        <time>2015-11-28T13:19:09Z</time>
      </trkpt>
      <trkpt lat="44.47324" lon="0.93701">
        <ele>59.26</ele>
        <time>2015-11-28T13:19:18Z</time>
      </trkpt>
      <trkpt lat="44.4734" lon="0.93728">
        <ele>57.34</ele>
        <time>2015-11-28T13:19:24Z</time>
      </trkpt>
      <trkpt lat="44.47344" lon="0.93732">
        <ele>57.34</ele>
        <time>2015-11-28T13:19:25Z</time>
      </trkpt>
      <trkpt lat="44.47353" lon="0.93747">
        <ele>56.86</ele>
        <time>2015-11-28T13:19:28Z</time>
      </trkpt>
      <trkpt lat="44.47355" lon="0.93751">
        <ele>56.37</ele>
        <time>2015-11-28T13:19:29Z</time>
      </trkpt>
      <trkpt lat="44.47358" lon="0.93756">
        <ele>56.37</ele>
        <time>2015-11-28T13:19:30Z</time>
      </trkpt>
      <trkpt lat="44.47384" lon="0.9379">
        <ele>53.97</ele>
        <time>2015-11-28T13:19:39Z</time>
      </trkpt>
      <trkpt lat="44.47434" lon="0.93833">
        <ele>54.45</ele>
        <time>2015-11-28T13:19:53Z</time>
      </trkpt>
      <trkpt lat="44.47454" lon="0.93849">
        <ele>53.97</ele>
        <time>2015-11-28T13:19:59Z</time>
      </trkpt>
      <trkpt lat="44.47482" lon="0.93892">
        <ele>58.3</ele>
        <time>2015-11-28T13:20:14Z</time>
      </trkpt>
      <trkpt lat="44.47487" lon="0.93898">
        <ele>59.26</ele>
        <time>2015-11-28T13:20:19Z</time>
      </trkpt>
      <trkpt lat="44.4749" lon="0.939">
        <ele>59.74</ele>
        <time>2015-11-28T13:20:21Z</time>
      </trkpt>
      <trkpt lat="44.47492" lon="0.93902">
        <ele>59.74</ele>
        <time>2015-11-28T13:20:22Z</time>
      </trkpt>
      <trkpt lat="44.47493" lon="0.93906">
        <ele>59.74</ele>
        <time>2015-11-28T13:20:23Z</time>
      </trkpt>
      <trkpt lat="44.47495" lon="0.93909">
        <ele>60.22</ele>
        <time>2015-11-28T13:20:24Z</time>
      </trkpt>
      <trkpt lat="44.47497" lon="0.93913">
        <ele>60.22</ele>
        <time>2015-11-28T13:20:25Z</time>
      </trkpt>
      <trkpt lat="44.47527" lon="0.93959">
        <ele>61.18</ele>
        <time>2015-11-28T13:20:38Z</time>
      </trkpt>
      <trkpt lat="44.47531" lon="0.9396">
        <ele>61.18</ele>
        <time>2015-11-28T13:20:39Z</time>
      </trkpt>
      <trkpt lat="44.47548" lon="0.93965">
        <ele>60.22</ele>
        <time>2015-11-28T13:20:43Z</time>
      </trkpt>
      <trkpt lat="44.47552" lon="0.93968">
        <ele>60.22</ele>
        <time>2015-11-28T13:20:44Z</time>
      </trkpt>
      <trkpt lat="44.47555" lon="0.93971">
        <ele>60.22</ele>
        <time>2015-11-28T13:20:45Z</time>
      </trkpt>
      <trkpt lat="44.47576" lon="0.93989">
        <ele>59.26</ele>
        <time>2015-11-28T13:20:50Z</time>
      </trkpt>
      <trkpt lat="44.47579" lon="0.93993">
        <ele>59.26</ele>
        <time>2015-11-28T13:20:51Z</time>
      </trkpt>
      <trkpt lat="44.47583" lon="0.93996">
        <ele>58.78</ele>
        <time>2015-11-28T13:20:52Z</time>
      </trkpt>
      <trkpt lat="44.47587" lon="0.93999">
        <ele>58.78</ele>
        <time>2015-11-28T13:20:53Z</time>
      </trkpt>
      <trkpt lat="44.47605" lon="0.94015">
        <ele>57.82</ele>
        <time>2015-11-28T13:20:58Z</time>
      </trkpt>
      <trkpt lat="44.47612" lon="0.94021">
        <ele>57.82</ele>
        <time>2015-11-28T13:21:00Z</time>
      </trkpt>
      <trkpt lat="44.47632" lon="0.94038">
        <ele>58.78</ele>
        <time>2015-11-28T13:21:06Z</time>
      </trkpt>
      <trkpt lat="44.47694" lon="0.94078">
        <ele>60.7</ele>
        <time>2015-11-28T13:21:24Z</time>
      </trkpt>
      <trkpt lat="44.47724" lon="0.94105">
        <ele>61.66</ele>
        <time>2015-11-28T13:21:34Z</time>
      </trkpt>
      <trkpt lat="44.47772" lon="0.94151">
        <ele>62.14</ele>
        <time>2015-11-28T13:21:50Z</time>
      </trkpt>
      <trkpt lat="44.47798" lon="0.94195">
        <ele>63.1</ele>
        <time>2015-11-28T13:22:01Z</time>
      </trkpt>
      <trkpt lat="44.47822" lon="0.9423">
        <ele>63.58</ele>
        <time>2015-11-28T13:22:11Z</time>
      </trkpt>
      <trkpt lat="44.47843" lon="0.94283">
        <ele>64.07</ele>
        <time>2015-11-28T13:22:23Z</time>
      </trkpt>
      <trkpt lat="44.47872" lon="0.94353">
        <ele>64.55</ele>
        <time>2015-11-28T13:22:38Z</time>
      </trkpt>
      <trkpt lat="44.47894" lon="0.94415">
        <ele>65.03</ele>
        <time>2015-11-28T13:22:51Z</time>
      </trkpt>
      <trkpt lat="44.47918" lon="0.94495">
        <ele>65.03</ele>
        <time>2015-11-28T13:23:07Z</time>
      </trkpt>
      <trkpt lat="44.47942" lon="0.94573">
        <ele>65.51</ele>
        <time>2015-11-28T13:23:23Z</time>
      </trkpt>
      <trkpt lat="44.47962" lon="0.94641">
        <ele>65.51</ele>
        <time>2015-11-28T13:23:36Z</time>
      </trkpt>
      <trkpt lat="44.47987" lon="0.94707">
        <ele>65.99</ele>
        <time>2015-11-28T13:23:49Z</time>
      </trkpt>
      <trkpt lat="44.48017" lon="0.94762">
        <ele>64.55</ele>
        <time>2015-11-28T13:24:02Z</time>
      </trkpt>
      <trkpt lat="44.4802" lon="0.94766">
        <ele>64.07</ele>
        <time>2015-11-28T13:24:03Z</time>
      </trkpt>
      <trkpt lat="44.48026" lon="0.94776">
        <ele>63.1</ele>
        <time>2015-11-28T13:24:05Z</time>
      </trkpt>
      <trkpt lat="44.48026" lon="0.94783">
        <ele>62.62</ele>
        <time>2015-11-28T13:24:06Z</time>
      </trkpt>
      <trkpt lat="44.48026" lon="0.9479">
        <ele>62.14</ele>
        <time>2015-11-28T13:24:07Z</time>
      </trkpt>
      <trkpt lat="44.48026" lon="0.94796">
        <ele>62.14</ele>
        <time>2015-11-28T13:24:08Z</time>
      </trkpt>
      <trkpt lat="44.48027" lon="0.94803">
        <ele>61.66</ele>
        <time>2015-11-28T13:24:09Z</time>
      </trkpt>
      <trkpt lat="44.48028" lon="0.9481">
        <ele>61.66</ele>
        <time>2015-11-28T13:24:10Z</time>
      </trkpt>
      <trkpt lat="44.48028" lon="0.94816">
        <ele>61.18</ele>
        <time>2015-11-28T13:24:11Z</time>
      </trkpt>
      <trkpt lat="44.48029" lon="0.94822">
        <ele>61.18</ele>
        <time>2015-11-28T13:24:12Z</time>
      </trkpt>
      <trkpt lat="44.4803" lon="0.94827">
        <ele>60.7</ele>
        <time>2015-11-28T13:24:13Z</time>
      </trkpt>
      <trkpt lat="44.48052" lon="0.94882">
        <ele>61.18</ele>
        <time>2015-11-28T13:24:26Z</time>
      </trkpt>
      <trkpt lat="44.48057" lon="0.94895">
        <ele>60.22</ele>
        <time>2015-11-28T13:24:29Z</time>
      </trkpt>
      <trkpt lat="44.48062" lon="0.94908">
        <ele>59.26</ele>
        <time>2015-11-28T13:24:33Z</time>
      </trkpt>
      <trkpt lat="44.48081" lon="0.94947">
        <ele>61.66</ele>
        <time>2015-11-28T13:24:44Z</time>
      </trkpt>
      <trkpt lat="44.48099" lon="0.94992">
        <ele>62.62</ele>
        <time>2015-11-28T13:24:56Z</time>
      </trkpt>
      <trkpt lat="44.48118" lon="0.95039">
        <ele>64.55</ele>
        <time>2015-11-28T13:25:08Z</time>
      </trkpt>
      <trkpt lat="44.48134" lon="0.95068">
        <ele>65.51</ele>
        <time>2015-11-28T13:25:17Z</time>
      </trkpt>
      <trkpt lat="44.48152" lon="0.951">
        <ele>65.51</ele>
        <time>2015-11-28T13:25:29Z</time>
      </trkpt>
      <trkpt lat="44.48177" lon="0.95149">
        <ele>67.91</ele>
        <time>2015-11-28T13:25:42Z</time>
      </trkpt>
      <trkpt lat="44.48206" lon="0.95202">
        <ele>66.95</ele>
        <time>2015-11-28T13:25:54Z</time>
      </trkpt>
      <trkpt lat="44.48228" lon="0.95238">
        <ele>69.35</ele>
        <time>2015-11-28T13:26:04Z</time>
      </trkpt>
      <trkpt lat="44.48256" lon="0.95276">
        <ele>72.24</ele>
        <time>2015-11-28T13:26:14Z</time>
      </trkpt>
      <trkpt lat="44.48284" lon="0.95317">
        <ele>73.2</ele>
        <time>2015-11-28T13:26:26Z</time>
      </trkpt>
      <trkpt lat="44.48286" lon="0.95319">
        <ele>73.2</ele>
        <time>2015-11-28T13:26:27Z</time>
      </trkpt>
      <trkpt lat="44.48309" lon="0.9534">
        <ele>71.27</ele>
        <time>2015-11-28T13:26:36Z</time>
      </trkpt>
      <trkpt lat="44.48314" lon="0.95346">
        <ele>70.31</ele>
        <time>2015-11-28T13:26:39Z</time>
      </trkpt>
      <trkpt lat="44.48326" lon="0.95361">
        <ele>68.87</ele>
        <time>2015-11-28T13:26:49Z</time>
      </trkpt>
      <trkpt lat="44.48349" lon="0.95399">
        <ele>68.39</ele>
        <time>2015-11-28T13:27:04Z</time>
      </trkpt>
      <trkpt lat="44.48354" lon="0.95416">
        <ele>72.24</ele>
        <time>2015-11-28T13:27:11Z</time>
      </trkpt>
      <trkpt lat="44.48363" lon="0.95434">
        <ele>76.56</ele>
        <time>2015-11-28T13:27:17Z</time>
      </trkpt>
      <trkpt lat="44.48365" lon="0.95443">
        <ele>78</ele>
        <time>2015-11-28T13:27:21Z</time>
      </trkpt>
      <trkpt lat="44.48376" lon="0.95472">
        <ele>82.33</ele>
        <time>2015-11-28T13:27:29Z</time>
      </trkpt>
      <trkpt lat="44.48385" lon="0.95493">
        <ele>85.69</ele>
        <time>2015-11-28T13:27:35Z</time>
      </trkpt>
      <trkpt lat="44.48401" lon="0.95544">
        <ele>87.62</ele>
        <time>2015-11-28T13:27:46Z</time>
      </trkpt>
      <trkpt lat="44.4841" lon="0.95582">
        <ele>84.73</ele>
        <time>2015-11-28T13:27:54Z</time>
      </trkpt>
      <trkpt lat="44.48428" lon="0.95626">
        <ele>84.25</ele>
        <time>2015-11-28T13:28:04Z</time>
      </trkpt>
      <trkpt lat="44.48443" lon="0.95668">
        <ele>82.81</ele>
        <time>2015-11-28T13:28:15Z</time>
      </trkpt>
      <trkpt lat="44.48461" lon="0.95701">
        <ele>82.81</ele>
        <time>2015-11-28T13:28:25Z</time>
      </trkpt>
      <trkpt lat="44.48481" lon="0.95742">
        <ele>78.97</ele>
        <time>2015-11-28T13:28:36Z</time>
      </trkpt>
      <trkpt lat="44.48494" lon="0.95764">
        <ele>77.04</ele>
        <time>2015-11-28T13:28:40Z</time>
      </trkpt>
      <trkpt lat="44.48513" lon="0.95786">
        <ele>76.08</ele>
        <time>2015-11-28T13:28:45Z</time>
      </trkpt>
      <trkpt lat="44.48543" lon="0.95833">
        <ele>72.72</ele>
        <time>2015-11-28T13:28:55Z</time>
      </trkpt>
      <trkpt lat="44.48585" lon="0.95882">
        <ele>71.27</ele>
        <time>2015-11-28T13:29:08Z</time>
      </trkpt>
      <trkpt lat="44.48621" lon="0.95933">
        <ele>68.39</ele>
        <time>2015-11-28T13:29:21Z</time>
      </trkpt>
      <trkpt lat="44.48637" lon="0.9595">
        <ele>68.39</ele>
        <time>2015-11-28T13:29:25Z</time>
      </trkpt>
      <trkpt lat="44.48661" lon="0.95973">
        <ele>68.39</ele>
        <time>2015-11-28T13:29:31Z</time>
      </trkpt>
      <trkpt lat="44.4869" lon="0.96008">
        <ele>69.83</ele>
        <time>2015-11-28T13:29:40Z</time>
      </trkpt>
      <trkpt lat="44.48699" lon="0.96022">
        <ele>69.83</ele>
        <time>2015-11-28T13:29:43Z</time>
      </trkpt>
      <trkpt lat="44.48713" lon="0.96044">
        <ele>69.83</ele>
        <time>2015-11-28T13:29:48Z</time>
      </trkpt>
      <trkpt lat="44.48714" lon="0.96069">
        <ele>71.27</ele>
        <time>2015-11-28T13:29:55Z</time>
      </trkpt>
      <trkpt lat="44.48722" lon="0.96086">
        <ele>69.83</ele>
        <time>2015-11-28T13:30:00Z</time>
      </trkpt>
      <trkpt lat="44.48739" lon="0.96106">
        <ele>68.87</ele>
        <time>2015-11-28T13:30:06Z</time>
      </trkpt>
      <trkpt lat="44.48767" lon="0.96118">
        <ele>67.43</ele>
        <time>2015-11-28T13:30:15Z</time>
      </trkpt>
      <trkpt lat="44.48784" lon="0.96139">
        <ele>66.47</ele>
        <time>2015-11-28T13:30:21Z</time>
      </trkpt>
      <trkpt lat="44.48803" lon="0.96154">
        <ele>66.95</ele>
        <time>2015-11-28T13:30:27Z</time>
      </trkpt>
      <trkpt lat="44.4881" lon="0.96168">
        <ele>67.91</ele>
        <time>2015-11-28T13:30:31Z</time>
      </trkpt>
      <trkpt lat="44.48842" lon="0.9621">
        <ele>68.87</ele>
        <time>2015-11-28T13:30:43Z</time>
      </trkpt>
      <trkpt lat="44.48874" lon="0.96223">
        <ele>67.43</ele>
        <time>2015-11-28T13:30:53Z</time>
      </trkpt>
      <trkpt lat="44.48878" lon="0.96225">
        <ele>67.43</ele>
        <time>2015-11-28T13:30:54Z</time>
      </trkpt>
      <trkpt lat="44.489" lon="0.96245">
        <ele>65.99</ele>
        <time>2015-11-28T13:31:00Z</time>
      </trkpt>
      <trkpt lat="44.48916" lon="0.96258">
        <ele>65.51</ele>
        <time>2015-11-28T13:31:04Z</time>
      </trkpt>
      <trkpt lat="44.48929" lon="0.96273">
        <ele>64.55</ele>
        <time>2015-11-28T13:31:08Z</time>
      </trkpt>
      <trkpt lat="44.48934" lon="0.96287">
        <ele>64.55</ele>
        <time>2015-11-28T13:31:11Z</time>
      </trkpt>
      <trkpt lat="44.4895" lon="0.96292">
        <ele>63.1</ele>
        <time>2015-11-28T13:31:16Z</time>
      </trkpt>
      <trkpt lat="44.48976" lon="0.96314">
        <ele>62.14</ele>
        <time>2015-11-28T13:31:24Z</time>
      </trkpt>
      <trkpt lat="44.48967" lon="0.96348">
        <ele>64.55</ele>
        <time>2015-11-28T13:31:33Z</time>
      </trkpt>
      <trkpt lat="44.48927" lon="0.96395">
        <ele>66.95</ele>
        <time>2015-11-28T13:31:47Z</time>
      </trkpt>
      <trkpt lat="44.48896" lon="0.96435">
        <ele>68.87</ele>
        <time>2015-11-28T13:31:59Z</time>
      </trkpt>
      <trkpt lat="44.48895" lon="0.96442">
        <ele>69.83</ele>
        <time>2015-11-28T13:32:02Z</time>
      </trkpt>
      <trkpt lat="44.48895" lon="0.96444">
        <ele>69.83</ele>
        <time>2015-11-28T13:32:13Z</time>
      </trkpt>
      <trkpt lat="44.48896" lon="0.96446">
        <ele>69.83</ele>
        <time>2015-11-28T13:32:31Z</time>
      </trkpt>
      <trkpt lat="44.48895" lon="0.96446">
        <ele>70.31</ele>
        <time>2015-11-28T13:32:52Z</time>
      </trkpt>
      <trkpt lat="44.48895" lon="0.96444">
        <ele>70.79</ele>
        <time>2015-11-28T13:33:10Z</time>
      </trkpt>
      <trkpt lat="44.48894" lon="0.96448">
        <ele>71.27</ele>
        <time>2015-11-28T13:33:13Z</time>
      </trkpt>
      <trkpt lat="44.48895" lon="0.9645">
        <ele>71.27</ele>
        <time>2015-11-28T13:33:14Z</time>
      </trkpt>
      <trkpt lat="44.48896" lon="0.96452">
        <ele>71.27</ele>
        <time>2015-11-28T13:33:15Z</time>
      </trkpt>
      <trkpt lat="44.48897" lon="0.96454">
        <ele>71.76</ele>
        <time>2015-11-28T13:33:16Z</time>
      </trkpt>
      <trkpt lat="44.48898" lon="0.96457">
        <ele>71.76</ele>
        <time>2015-11-28T13:33:17Z</time>
      </trkpt>
      <trkpt lat="44.48919" lon="0.965">
        <ele>74.16</ele>
        <time>2015-11-28T13:33:29Z</time>
      </trkpt>
      <trkpt lat="44.48959" lon="0.9656">
        <ele>73.68</ele>
        <time>2015-11-28T13:33:45Z</time>
      </trkpt>
      <trkpt lat="44.48992" lon="0.9662">
        <ele>75.12</ele>
        <time>2015-11-28T13:33:58Z</time>
      </trkpt>
      <trkpt lat="44.49019" lon="0.96694">
        <ele>75.12</ele>
        <time>2015-11-28T13:34:13Z</time>
      </trkpt>
      <trkpt lat="44.49035" lon="0.96757">
        <ele>74.16</ele>
        <time>2015-11-28T13:34:28Z</time>
      </trkpt>
      <trkpt lat="44.49046" lon="0.96782">
        <ele>73.68</ele>
        <time>2015-11-28T13:34:35Z</time>
      </trkpt>
      <trkpt lat="44.4905" lon="0.96781">
        <ele>73.68</ele>
        <time>2015-11-28T13:34:36Z</time>
      </trkpt>
      <trkpt lat="44.49054" lon="0.96778">
        <ele>73.2</ele>
        <time>2015-11-28T13:34:37Z</time>
      </trkpt>
      <trkpt lat="44.49056" lon="0.96773">
        <ele>72.72</ele>
        <time>2015-11-28T13:34:38Z</time>
      </trkpt>
      <trkpt lat="44.49057" lon="0.96768">
        <ele>72.72</ele>
        <time>2015-11-28T13:34:39Z</time>
      </trkpt>
      <trkpt lat="44.49058" lon="0.96761">
        <ele>72.24</ele>
        <time>2015-11-28T13:34:40Z</time>
      </trkpt>
      <trkpt lat="44.49057" lon="0.96754">
        <ele>71.76</ele>
        <time>2015-11-28T13:34:41Z</time>
      </trkpt>
      <trkpt lat="44.49056" lon="0.96748">
        <ele>71.76</ele>
        <time>2015-11-28T13:34:42Z</time>
      </trkpt>
      <trkpt lat="44.49056" lon="0.96741">
        <ele>71.76</ele>
        <time>2015-11-28T13:34:43Z</time>
      </trkpt>
      <trkpt lat="44.4906" lon="0.96727">
        <ele>71.27</ele>
        <time>2015-11-28T13:34:45Z</time>
      </trkpt>
      <trkpt lat="44.49119" lon="0.96635">
        <ele>67.91</ele>
        <time>2015-11-28T13:35:01Z</time>
      </trkpt>
      <trkpt lat="44.49197" lon="0.96543">
        <ele>66.47</ele>
        <time>2015-11-28T13:35:19Z</time>
      </trkpt>
      <trkpt lat="44.49261" lon="0.96468">
        <ele>69.35</ele>
        <time>2015-11-28T13:35:38Z</time>
      </trkpt>
      <trkpt lat="44.49322" lon="0.96394">
        <ele>71.76</ele>
        <time>2015-11-28T13:35:57Z</time>
      </trkpt>
      <trkpt lat="44.49352" lon="0.96367">
        <ele>72.72</ele>
        <time>2015-11-28T13:36:06Z</time>
      </trkpt>
      <trkpt lat="44.49356" lon="0.96367">
        <ele>72.72</ele>
        <time>2015-11-28T13:36:07Z</time>
      </trkpt>
      <trkpt lat="44.4936" lon="0.96368">
        <ele>72.72</ele>
        <time>2015-11-28T13:36:08Z</time>
      </trkpt>
      <trkpt lat="44.49365" lon="0.96371">
        <ele>72.72</ele>
        <time>2015-11-28T13:36:09Z</time>
      </trkpt>
      <trkpt lat="44.49369" lon="0.96375">
        <ele>72.72</ele>
        <time>2015-11-28T13:36:10Z</time>
      </trkpt>
      <trkpt lat="44.49373" lon="0.96381">
        <ele>72.72</ele>
        <time>2015-11-28T13:36:11Z</time>
      </trkpt>
      <trkpt lat="44.49377" lon="0.96388">
        <ele>72.24</ele>
        <time>2015-11-28T13:36:12Z</time>
      </trkpt>
      <trkpt lat="44.49405" lon="0.9643">
        <ele>69.83</ele>
        <time>2015-11-28T13:36:18Z</time>
      </trkpt>
      <trkpt lat="44.49408" lon="0.96437">
        <ele>69.83</ele>
        <time>2015-11-28T13:36:19Z</time>
      </trkpt>
      <trkpt lat="44.49409" lon="0.96444">
        <ele>69.35</ele>
        <time>2015-11-28T13:36:20Z</time>
      </trkpt>
      <trkpt lat="44.49407" lon="0.96451">
        <ele>69.35</ele>
        <time>2015-11-28T13:36:21Z</time>
      </trkpt>
      <trkpt lat="44.49405" lon="0.96457">
        <ele>69.35</ele>
        <time>2015-11-28T13:36:22Z</time>
      </trkpt>
      <trkpt lat="44.49402" lon="0.96461">
        <ele>69.35</ele>
        <time>2015-11-28T13:36:23Z</time>
      </trkpt>
      <trkpt lat="44.49399" lon="0.96466">
        <ele>69.35</ele>
        <time>2015-11-28T13:36:24Z</time>
      </trkpt>
      <trkpt lat="44.49397" lon="0.96471">
        <ele>69.35</ele>
        <time>2015-11-28T13:36:25Z</time>
      </trkpt>
      <trkpt lat="44.49398" lon="0.96477">
        <ele>69.35</ele>
        <time>2015-11-28T13:36:26Z</time>
      </trkpt>
      <trkpt lat="44.49399" lon="0.96482">
        <ele>69.35</ele>
        <time>2015-11-28T13:36:27Z</time>
      </trkpt>
      <trkpt lat="44.49402" lon="0.96487">
        <ele>68.87</ele>
        <time>2015-11-28T13:36:28Z</time>
      </trkpt>
      <trkpt lat="44.49405" lon="0.96492">
        <ele>68.87</ele>
        <time>2015-11-28T13:36:29Z</time>
      </trkpt>
      <trkpt lat="44.49407" lon="0.96497">
        <ele>68.87</ele>
        <time>2015-11-28T13:36:30Z</time>
      </trkpt>
      <trkpt lat="44.4945" lon="0.96592">
        <ele>69.35</ele>
        <time>2015-11-28T13:36:46Z</time>
      </trkpt>
      <trkpt lat="44.4949" lon="0.96682">
        <ele>69.35</ele>
        <time>2015-11-28T13:37:02Z</time>
      </trkpt>
      <trkpt lat="44.49494" lon="0.96688">
        <ele>68.87</ele>
        <time>2015-11-28T13:37:04Z</time>
      </trkpt>
      <trkpt lat="44.49499" lon="0.96681">
        <ele>68.87</ele>
        <time>2015-11-28T13:37:08Z</time>
      </trkpt>
      <trkpt lat="44.49503" lon="0.96671">
        <ele>69.35</ele>
        <time>2015-11-28T13:37:12Z</time>
      </trkpt>
      <trkpt lat="44.49506" lon="0.96673">
        <ele>69.83</ele>
        <time>2015-11-28T13:37:15Z</time>
      </trkpt>
      <trkpt lat="44.49507" lon="0.96676">
        <ele>70.31</ele>
        <time>2015-11-28T13:37:16Z</time>
      </trkpt>
      <trkpt lat="44.49509" lon="0.96679">
        <ele>70.79</ele>
        <time>2015-11-28T13:37:17Z</time>
      </trkpt>
      <trkpt lat="44.4951" lon="0.96682">
        <ele>70.79</ele>
        <time>2015-11-28T13:37:18Z</time>
      </trkpt>
      <trkpt lat="44.49533" lon="0.96738">
        <ele>75.12</ele>
        <time>2015-11-28T13:37:33Z</time>
      </trkpt>
      <trkpt lat="44.49553" lon="0.96787">
        <ele>78.48</ele>
        <time>2015-11-28T13:37:47Z</time>
      </trkpt>
      <trkpt lat="44.49579" lon="0.96843">
        <ele>80.41</ele>
        <time>2015-11-28T13:38:03Z</time>
      </trkpt>
      <trkpt lat="44.49602" lon="0.96907">
        <ele>83.29</ele>
        <time>2015-11-28T13:38:20Z</time>
      </trkpt>
      <trkpt lat="44.49615" lon="0.96934">
        <ele>83.29</ele>
        <time>2015-11-28T13:38:28Z</time>
      </trkpt>
      <trkpt lat="44.49634" lon="0.96985">
        <ele>85.69</ele>
        <time>2015-11-28T13:38:42Z</time>
      </trkpt>
      <trkpt lat="44.49648" lon="0.97036">
        <ele>84.73</ele>
        <time>2015-11-28T13:38:54Z</time>
      </trkpt>
      <trkpt lat="44.49668" lon="0.97086">
        <ele>90.02</ele>
        <time>2015-11-28T13:39:09Z</time>
      </trkpt>
      <trkpt lat="44.49674" lon="0.97112">
        <ele>90.98</ele>
        <time>2015-11-28T13:39:17Z</time>
      </trkpt>
      <trkpt lat="44.49684" lon="0.97148">
        <ele>90.02</ele>
        <time>2015-11-28T13:39:23Z</time>
      </trkpt>
      <trkpt lat="44.49704" lon="0.97162">
        <ele>87.62</ele>
        <time>2015-11-28T13:39:29Z</time>
      </trkpt>
      <trkpt lat="44.49724" lon="0.97163">
        <ele>85.21</ele>
        <time>2015-11-28T13:39:39Z</time>
      </trkpt>
      <trkpt lat="44.49738" lon="0.97156">
        <ele>86.66</ele>
        <time>2015-11-28T13:39:46Z</time>
      </trkpt>
      <trkpt lat="44.49764" lon="0.97151">
        <ele>93.87</ele>
        <time>2015-11-28T13:40:02Z</time>
      </trkpt>
      <trkpt lat="44.49774" lon="0.97146">
        <ele>95.79</ele>
        <time>2015-11-28T13:40:08Z</time>
      </trkpt>
      <trkpt lat="44.4978" lon="0.97143">
        <ele>96.75</ele>
        <time>2015-11-28T13:40:12Z</time>
      </trkpt>
      <trkpt lat="44.49793" lon="0.97143">
        <ele>98.67</ele>
        <time>2015-11-28T13:40:23Z</time>
      </trkpt>
      <trkpt lat="44.49796" lon="0.97132">
        <ele>102.04</ele>
        <time>2015-11-28T13:40:36Z</time>
      </trkpt>
      <trkpt lat="44.49795" lon="0.97132">
        <ele>105.4</ele>
        <time>2015-11-28T13:40:52Z</time>
      </trkpt>
      <trkpt lat="44.49793" lon="0.97131">
        <ele>107.32</ele>
        <time>2015-11-28T13:41:04Z</time>
      </trkpt>
      <trkpt lat="44.49772" lon="0.97127">
        <ele>108.77</ele>
        <time>2015-11-28T13:41:17Z</time>
      </trkpt>
      <trkpt lat="44.49764" lon="0.97125">
        <ele>107.81</ele>
        <time>2015-11-28T13:41:22Z</time>
      </trkpt>
      <trkpt lat="44.49739" lon="0.97128">
        <ele>111.65</ele>
        <time>2015-11-28T13:41:34Z</time>
      </trkpt>
      <trkpt lat="44.49711" lon="0.9713">
        <ele>113.57</ele>
        <time>2015-11-28T13:41:46Z</time>
      </trkpt>
      <trkpt lat="44.49693" lon="0.97112">
        <ele>113.57</ele>
        <time>2015-11-28T13:41:56Z</time>
      </trkpt>
      <trkpt lat="44.49679" lon="0.97077">
        <ele>112.61</ele>
        <time>2015-11-28T13:42:08Z</time>
      </trkpt>
      <trkpt lat="44.49673" lon="0.97042">
        <ele>111.65</ele>
        <time>2015-11-28T13:42:19Z</time>
      </trkpt>
      <trkpt lat="44.49699" lon="0.97029">
        <ele>112.13</ele>
        <time>2015-11-28T13:42:31Z</time>
      </trkpt>
      <trkpt lat="44.4971" lon="0.97024">
        <ele>113.09</ele>
        <time>2015-11-28T13:42:36Z</time>
      </trkpt>
      <trkpt lat="44.49718" lon="0.9702">
        <ele>115.5</ele>
        <time>2015-11-28T13:42:41Z</time>
      </trkpt>
      <trkpt lat="44.49734" lon="0.97024">
        <ele>115.5</ele>
        <time>2015-11-28T13:42:49Z</time>
      </trkpt>
      <trkpt lat="44.49738" lon="0.97027">
        <ele>114.53</ele>
        <time>2015-11-28T13:42:51Z</time>
      </trkpt>
      <trkpt lat="44.4974" lon="0.97028">
        <ele>114.53</ele>
        <time>2015-11-28T13:42:52Z</time>
      </trkpt>
      <trkpt lat="44.49743" lon="0.97029">
        <ele>114.05</ele>
        <time>2015-11-28T13:42:53Z</time>
      </trkpt>
      <trkpt lat="44.49745" lon="0.97029">
        <ele>113.57</ele>
        <time>2015-11-28T13:42:54Z</time>
      </trkpt>
      <trkpt lat="44.49748" lon="0.9703">
        <ele>113.57</ele>
        <time>2015-11-28T13:42:55Z</time>
      </trkpt>
      <trkpt lat="44.49751" lon="0.9703">
        <ele>113.09</ele>
        <time>2015-11-28T13:42:56Z</time>
      </trkpt>
      <trkpt lat="44.49753" lon="0.9703">
        <ele>112.61</ele>
        <time>2015-11-28T13:42:57Z</time>
      </trkpt>
      <trkpt lat="44.49756" lon="0.9703">
        <ele>112.61</ele>
        <time>2015-11-28T13:42:58Z</time>
      </trkpt>
      <trkpt lat="44.49758" lon="0.9703">
        <ele>112.61</ele>
        <time>2015-11-28T13:42:59Z</time>
      </trkpt>
      <trkpt lat="44.49761" lon="0.97029">
        <ele>112.61</ele>
        <time>2015-11-28T13:43:00Z</time>
      </trkpt>
      <trkpt lat="44.49764" lon="0.97029">
        <ele>112.61</ele>
        <time>2015-11-28T13:43:01Z</time>
      </trkpt>
      <trkpt lat="44.49791" lon="0.97022">
        <ele>112.13</ele>
        <time>2015-11-28T13:43:11Z</time>
      </trkpt>
      <trkpt lat="44.49792" lon="0.97019">
        <ele>112.13</ele>
        <time>2015-11-28T13:43:12Z</time>
      </trkpt>
      <trkpt lat="44.49792" lon="0.97016">
        <ele>112.61</ele>
        <time>2015-11-28T13:43:13Z</time>
      </trkpt>
      <trkpt lat="44.49791" lon="0.97013">
        <ele>112.13</ele>
        <time>2015-11-28T13:43:14Z</time>
      </trkpt>
      <trkpt lat="44.4979" lon="0.9701">
        <ele>112.13</ele>
        <time>2015-11-28T13:43:15Z</time>
      </trkpt>
      <trkpt lat="44.4979" lon="0.97007">
        <ele>112.13</ele>
        <time>2015-11-28T13:43:16Z</time>
      </trkpt>
      <trkpt lat="44.49791" lon="0.97003">
        <ele>112.13</ele>
        <time>2015-11-28T13:43:17Z</time>
      </trkpt>
      <trkpt lat="44.49792" lon="0.96999">
        <ele>111.65</ele>
        <time>2015-11-28T13:43:18Z</time>
      </trkpt>
      <trkpt lat="44.49794" lon="0.96996">
        <ele>111.65</ele>
        <time>2015-11-28T13:43:19Z</time>
      </trkpt>
      <trkpt lat="44.49796" lon="0.96992">
        <ele>111.17</ele>
        <time>2015-11-28T13:43:20Z</time>
      </trkpt>
      <trkpt lat="44.49814" lon="0.96974">
        <ele>111.17</ele>
        <time>2015-11-28T13:43:29Z</time>
      </trkpt>
      <trkpt lat="44.4982" lon="0.96975">
        <ele>111.17</ele>
        <time>2015-11-28T13:43:32Z</time>
      </trkpt>
      <trkpt lat="44.49822" lon="0.96974">
        <ele>110.69</ele>
        <time>2015-11-28T13:43:33Z</time>
      </trkpt>
      <trkpt lat="44.49824" lon="0.96974">
        <ele>110.69</ele>
        <time>2015-11-28T13:43:34Z</time>
      </trkpt>
      <trkpt lat="44.49833" lon="0.96969">
        <ele>110.21</ele>
        <time>2015-11-28T13:43:45Z</time>
      </trkpt>
      <trkpt lat="44.4984" lon="0.96956">
        <ele>110.21</ele>
        <time>2015-11-28T13:43:56Z</time>
      </trkpt>
      <trkpt lat="44.49861" lon="0.96937">
        <ele>113.57</ele>
        <time>2015-11-28T13:44:05Z</time>
      </trkpt>
      <trkpt lat="44.49863" lon="0.96937">
        <ele>114.53</ele>
        <time>2015-11-28T13:44:06Z</time>
      </trkpt>
      <trkpt lat="44.49865" lon="0.96939">
        <ele>115.01</ele>
        <time>2015-11-28T13:44:07Z</time>
      </trkpt>
      <trkpt lat="44.49868" lon="0.96943">
        <ele>115.01</ele>
        <time>2015-11-28T13:44:08Z</time>
      </trkpt>
      <trkpt lat="44.49871" lon="0.96946">
        <ele>115.01</ele>
        <time>2015-11-28T13:44:09Z</time>
      </trkpt>
      <trkpt lat="44.49873" lon="0.96949">
        <ele>115.5</ele>
        <time>2015-11-28T13:44:10Z</time>
      </trkpt>
      <trkpt lat="44.49875" lon="0.96953">
        <ele>115.5</ele>
        <time>2015-11-28T13:44:11Z</time>
      </trkpt>
      <trkpt lat="44.49892" lon="0.96969">
        <ele>116.46</ele>
        <time>2015-11-28T13:44:19Z</time>
      </trkpt>
      <trkpt lat="44.49894" lon="0.96966">
        <ele>116.46</ele>
        <time>2015-11-28T13:44:20Z</time>
      </trkpt>
      <trkpt lat="44.49896" lon="0.96963">
        <ele>116.46</ele>
        <time>2015-11-28T13:44:21Z</time>
      </trkpt>
      <trkpt lat="44.49897" lon="0.9696">
        <ele>116.46</ele>
        <time>2015-11-28T13:44:22Z</time>
      </trkpt>
      <trkpt lat="44.49899" lon="0.96957">
        <ele>116.46</ele>
        <time>2015-11-28T13:44:23Z</time>
      </trkpt>
      <trkpt lat="44.49901" lon="0.96954">
        <ele>116.46</ele>
        <time>2015-11-28T13:44:24Z</time>
      </trkpt>
      <trkpt lat="44.49903" lon="0.96951">
        <ele>116.46</ele>
        <time>2015-11-28T13:44:25Z</time>
      </trkpt>
      <trkpt lat="44.49905" lon="0.96948">
        <ele>116.46</ele>
        <time>2015-11-28T13:44:26Z</time>
      </trkpt>
      <trkpt lat="44.49908" lon="0.96942">
        <ele>116.46</ele>
        <time>2015-11-28T13:44:28Z</time>
      </trkpt>
      <trkpt lat="44.49913" lon="0.96926">
        <ele>117.42</ele>
        <time>2015-11-28T13:44:34Z</time>
      </trkpt>
      <trkpt lat="44.49913" lon="0.96924">
        <ele>117.9</ele>
        <time>2015-11-28T13:44:35Z</time>
      </trkpt>
      <trkpt lat="44.49914" lon="0.96922">
        <ele>118.38</ele>
        <time>2015-11-28T13:44:36Z</time>
      </trkpt>
      <trkpt lat="44.49915" lon="0.96922">
        <ele>118.38</ele>
        <time>2015-11-28T13:44:37Z</time>
      </trkpt>
      <trkpt lat="44.49917" lon="0.96922">
        <ele>118.86</ele>
        <time>2015-11-28T13:44:38Z</time>
      </trkpt>
      <trkpt lat="44.49918" lon="0.96923">
        <ele>119.34</ele>
        <time>2015-11-28T13:44:39Z</time>
      </trkpt>
      <trkpt lat="44.4992" lon="0.96924">
        <ele>119.34</ele>
        <time>2015-11-28T13:44:40Z</time>
      </trkpt>
      <trkpt lat="44.4992" lon="0.96926">
        <ele>119.82</ele>
        <time>2015-11-28T13:44:41Z</time>
      </trkpt>
      <trkpt lat="44.49942" lon="0.96939">
        <ele>124.15</ele>
        <time>2015-11-28T13:44:57Z</time>
      </trkpt>
      <trkpt lat="44.49958" lon="0.96947">
        <ele>127.51</ele>
        <time>2015-11-28T13:45:09Z</time>
      </trkpt>
      <trkpt lat="44.49976" lon="0.96952">
        <ele>135.68</ele>
        <time>2015-11-28T13:45:24Z</time>
      </trkpt>
      <trkpt lat="44.4999" lon="0.96951">
        <ele>137.61</ele>
        <time>2015-11-28T13:45:36Z</time>
      </trkpt>
      <trkpt lat="44.49994" lon="0.96952">
        <ele>138.09</ele>
        <time>2015-11-28T13:45:39Z</time>
      </trkpt>
      <trkpt lat="44.49998" lon="0.96965">
        <ele>143.37</ele>
        <time>2015-11-28T13:45:52Z</time>
      </trkpt>
      <trkpt lat="44.49996" lon="0.96982">
        <ele>146.26</ele>
        <time>2015-11-28T13:46:03Z</time>
      </trkpt>
      <trkpt lat="44.49996" lon="0.96984">
        <ele>146.74</ele>
        <time>2015-11-28T13:46:04Z</time>
      </trkpt>
      <trkpt lat="44.49995" lon="0.96986">
        <ele>146.74</ele>
        <time>2015-11-28T13:46:05Z</time>
      </trkpt>
      <trkpt lat="44.49995" lon="0.96988">
        <ele>146.74</ele>
        <time>2015-11-28T13:46:06Z</time>
      </trkpt>
      <trkpt lat="44.49995" lon="0.9699">
        <ele>146.74</ele>
        <time>2015-11-28T13:46:07Z</time>
      </trkpt>
      <trkpt lat="44.49995" lon="0.96992">
        <ele>146.74</ele>
        <time>2015-11-28T13:46:08Z</time>
      </trkpt>
      <trkpt lat="44.50002" lon="0.9702">
        <ele>151.06</ele>
        <time>2015-11-28T13:46:24Z</time>
      </trkpt>
      <trkpt lat="44.50004" lon="0.97025">
        <ele>151.54</ele>
        <time>2015-11-28T13:46:27Z</time>
      </trkpt>
      <trkpt lat="44.50005" lon="0.97026">
        <ele>151.54</ele>
        <time>2015-11-28T13:46:28Z</time>
      </trkpt>
      <trkpt lat="44.50037" lon="0.97062">
        <ele>147.22</ele>
        <time>2015-11-28T13:46:40Z</time>
      </trkpt>
      <trkpt lat="44.50043" lon="0.97071">
        <ele>146.26</ele>
        <time>2015-11-28T13:46:50Z</time>
      </trkpt>
      <trkpt lat="44.50043" lon="0.97071">
        <ele>145.78</ele>
        <time>2015-11-28T13:47:08Z</time>
      </trkpt>
      <trkpt lat="44.50043" lon="0.97071">
        <ele>144.82</ele>
        <time>2015-11-28T13:47:25Z</time>
      </trkpt>
      <trkpt lat="44.50044" lon="0.97068">
        <ele>144.34</ele>
        <time>2015-11-28T13:48:03Z</time>
      </trkpt>
      <trkpt lat="44.50043" lon="0.97068">
        <ele>143.85</ele>
        <time>2015-11-28T13:48:32Z</time>
      </trkpt>
      <trkpt lat="44.50044" lon="0.9707">
        <ele>142.89</ele>
        <time>2015-11-28T13:49:03Z</time>
      </trkpt>
      <trkpt lat="44.50044" lon="0.9707">
        <ele>142.89</ele>
        <time>2015-11-28T13:49:25Z</time>
      </trkpt>
      <trkpt lat="44.50047" lon="0.97071">
        <ele>142.89</ele>
        <time>2015-11-28T13:49:51Z</time>
      </trkpt>
      <trkpt lat="44.50049" lon="0.97071">
        <ele>142.41</ele>
        <time>2015-11-28T13:49:52Z</time>
      </trkpt>
      <trkpt lat="44.50051" lon="0.97072">
        <ele>142.89</ele>
        <time>2015-11-28T13:49:53Z</time>
      </trkpt>
      <trkpt lat="44.50053" lon="0.97073">
        <ele>142.89</ele>
        <time>2015-11-28T13:49:54Z</time>
      </trkpt>
      <trkpt lat="44.50055" lon="0.97074">
        <ele>142.89</ele>
        <time>2015-11-28T13:49:55Z</time>
      </trkpt>
      <trkpt lat="44.50057" lon="0.97076">
        <ele>143.37</ele>
        <time>2015-11-28T13:49:56Z</time>
      </trkpt>
      <trkpt lat="44.50059" lon="0.97077">
        <ele>143.37</ele>
        <time>2015-11-28T13:49:57Z</time>
      </trkpt>
      <trkpt lat="44.50062" lon="0.97077">
        <ele>143.37</ele>
        <time>2015-11-28T13:49:58Z</time>
      </trkpt>
      <trkpt lat="44.50064" lon="0.97077">
        <ele>143.85</ele>
        <time>2015-11-28T13:49:59Z</time>
      </trkpt>
      <trkpt lat="44.50095" lon="0.97081">
        <ele>147.7</ele>
        <time>2015-11-28T13:50:13Z</time>
      </trkpt>
      <trkpt lat="44.50138" lon="0.97094">
        <ele>144.82</ele>
        <time>2015-11-28T13:50:22Z</time>
      </trkpt>
      <trkpt lat="44.50223" lon="0.97115">
        <ele>136.64</ele>
        <time>2015-11-28T13:50:33Z</time>
      </trkpt>
      <trkpt lat="44.50263" lon="0.97125">
        <ele>134.72</ele>
        <time>2015-11-28T13:50:41Z</time>
      </trkpt>
      <trkpt lat="44.50265" lon="0.97127">
        <ele>134.72</ele>
        <time>2015-11-28T13:50:42Z</time>
      </trkpt>
      <trkpt lat="44.50267" lon="0.97129">
        <ele>134.72</ele>
        <time>2015-11-28T13:50:43Z</time>
      </trkpt>
      <trkpt lat="44.50269" lon="0.9713">
        <ele>134.72</ele>
        <time>2015-11-28T13:50:44Z</time>
      </trkpt>
      <trkpt lat="44.50271" lon="0.97131">
        <ele>134.72</ele>
        <time>2015-11-28T13:50:45Z</time>
      </trkpt>
      <trkpt lat="44.50273" lon="0.97131">
        <ele>134.72</ele>
        <time>2015-11-28T13:50:46Z</time>
      </trkpt>
      <trkpt lat="44.50276" lon="0.97132">
        <ele>134.72</ele>
        <time>2015-11-28T13:50:47Z</time>
      </trkpt>
      <trkpt lat="44.5028" lon="0.97132">
        <ele>134.24</ele>
        <time>2015-11-28T13:50:48Z</time>
      </trkpt>
      <trkpt lat="44.50283" lon="0.97131">
        <ele>134.24</ele>
        <time>2015-11-28T13:50:49Z</time>
      </trkpt>
      <trkpt lat="44.50287" lon="0.97131">
        <ele>134.24</ele>
        <time>2015-11-28T13:50:50Z</time>
      </trkpt>
      <trkpt lat="44.5029" lon="0.97131">
        <ele>133.76</ele>
        <time>2015-11-28T13:50:51Z</time>
      </trkpt>
      <trkpt lat="44.50294" lon="0.97131">
        <ele>133.76</ele>
        <time>2015-11-28T13:50:52Z</time>
      </trkpt>
      <trkpt lat="44.50297" lon="0.97131">
        <ele>133.76</ele>
        <time>2015-11-28T13:50:53Z</time>
      </trkpt>
      <trkpt lat="44.503" lon="0.9713">
        <ele>133.76</ele>
        <time>2015-11-28T13:50:54Z</time>
      </trkpt>
      <trkpt lat="44.50352" lon="0.97127">
        <ele>134.72</ele>
        <time>2015-11-28T13:51:09Z</time>
      </trkpt>
      <trkpt lat="44.50394" lon="0.97127">
        <ele>135.68</ele>
        <time>2015-11-28T13:51:22Z</time>
      </trkpt>
      <trkpt lat="44.50422" lon="0.97125">
        <ele>135.2</ele>
        <time>2015-11-28T13:51:28Z</time>
      </trkpt>
      <trkpt lat="44.50443" lon="0.97127">
        <ele>134.72</ele>
        <time>2015-11-28T13:51:33Z</time>
      </trkpt>
      <trkpt lat="44.50447" lon="0.97128">
        <ele>135.2</ele>
        <time>2015-11-28T13:51:34Z</time>
      </trkpt>
      <trkpt lat="44.50451" lon="0.97128">
        <ele>135.2</ele>
        <time>2015-11-28T13:51:35Z</time>
      </trkpt>
      <trkpt lat="44.50459" lon="0.97127">
        <ele>135.2</ele>
        <time>2015-11-28T13:51:37Z</time>
      </trkpt>
      <trkpt lat="44.50511" lon="0.97123">
        <ele>134.72</ele>
        <time>2015-11-28T13:51:50Z</time>
      </trkpt>
      <trkpt lat="44.50563" lon="0.97135">
        <ele>134.72</ele>
        <time>2015-11-28T13:52:05Z</time>
      </trkpt>
      <trkpt lat="44.50607" lon="0.97154">
        <ele>137.13</ele>
        <time>2015-11-28T13:52:20Z</time>
      </trkpt>
      <trkpt lat="44.50642" lon="0.97187">
        <ele>139.05</ele>
        <time>2015-11-28T13:52:34Z</time>
      </trkpt>
      <trkpt lat="44.50665" lon="0.97195">
        <ele>140.49</ele>
        <time>2015-11-28T13:52:45Z</time>
      </trkpt>
      <trkpt lat="44.50687" lon="0.97198">
        <ele>143.37</ele>
        <time>2015-11-28T13:52:56Z</time>
      </trkpt>
      <trkpt lat="44.50688" lon="0.97197">
        <ele>143.37</ele>
        <time>2015-11-28T13:53:06Z</time>
      </trkpt>
      <trkpt lat="44.50689" lon="0.97197">
        <ele>142.41</ele>
        <time>2015-11-28T13:53:25Z</time>
      </trkpt>
      <trkpt lat="44.50689" lon="0.97197">
        <ele>142.41</ele>
        <time>2015-11-28T13:53:28Z</time>
      </trkpt>
      <trkpt lat="44.50691" lon="0.97197">
        <ele>142.41</ele>
        <time>2015-11-28T13:53:29Z</time>
      </trkpt>
      <trkpt lat="44.50693" lon="0.97199">
        <ele>142.41</ele>
        <time>2015-11-28T13:53:30Z</time>
      </trkpt>
      <trkpt lat="44.50694" lon="0.97201">
        <ele>142.41</ele>
        <time>2015-11-28T13:53:31Z</time>
      </trkpt>
      <trkpt lat="44.50696" lon="0.97202">
        <ele>142.41</ele>
        <time>2015-11-28T13:53:32Z</time>
      </trkpt>
      <trkpt lat="44.50699" lon="0.97203">
        <ele>142.41</ele>
        <time>2015-11-28T13:53:33Z</time>
      </trkpt>
      <trkpt lat="44.50701" lon="0.97205">
        <ele>142.89</ele>
        <time>2015-11-28T13:53:34Z</time>
      </trkpt>
      <trkpt lat="44.50747" lon="0.97221">
        <ele>143.85</ele>
        <time>2015-11-28T13:53:50Z</time>
      </trkpt>
      <trkpt lat="44.50811" lon="0.9724">
        <ele>145.3</ele>
        <time>2015-11-28T13:54:10Z</time>
      </trkpt>
      <trkpt lat="44.50842" lon="0.97237">
        <ele>146.74</ele>
        <time>2015-11-28T13:54:20Z</time>
      </trkpt>
      <trkpt lat="44.50887" lon="0.9718">
        <ele>151.06</ele>
        <time>2015-11-28T13:54:38Z</time>
      </trkpt>
      <trkpt lat="44.50909" lon="0.97153">
        <ele>152.03</ele>
        <time>2015-11-28T13:54:47Z</time>
      </trkpt>
      <trkpt lat="44.50969" lon="0.97102">
        <ele>146.74</ele>
        <time>2015-11-28T13:54:59Z</time>
      </trkpt>
      <trkpt lat="44.51048" lon="0.97047">
        <ele>141.93</ele>
        <time>2015-11-28T13:55:10Z</time>
      </trkpt>
      <trkpt lat="44.51075" lon="0.97038">
        <ele>140.49</ele>
        <time>2015-11-28T13:55:13Z</time>
      </trkpt>
      <trkpt lat="44.51083" lon="0.97033">
        <ele>139.53</ele>
        <time>2015-11-28T13:55:14Z</time>
      </trkpt>
      <trkpt lat="44.51091" lon="0.97025">
        <ele>138.57</ele>
        <time>2015-11-28T13:55:15Z</time>
      </trkpt>
      <trkpt lat="44.51099" lon="0.97017">
        <ele>137.61</ele>
        <time>2015-11-28T13:55:16Z</time>
      </trkpt>
      <trkpt lat="44.51107" lon="0.97007">
        <ele>137.13</ele>
        <time>2015-11-28T13:55:17Z</time>
      </trkpt>
      <trkpt lat="44.51114" lon="0.96998">
        <ele>136.16</ele>
        <time>2015-11-28T13:55:18Z</time>
      </trkpt>
      <trkpt lat="44.51205" lon="0.96916">
        <ele>127.99</ele>
        <time>2015-11-28T13:55:29Z</time>
      </trkpt>
      <trkpt lat="44.51284" lon="0.96851">
        <ele>121.74</ele>
        <time>2015-11-28T13:55:39Z</time>
      </trkpt>
      <trkpt lat="44.51292" lon="0.96847">
        <ele>121.74</ele>
        <time>2015-11-28T13:55:40Z</time>
      </trkpt>
      <trkpt lat="44.513" lon="0.96844">
        <ele>121.26</ele>
        <time>2015-11-28T13:55:41Z</time>
      </trkpt>
      <trkpt lat="44.5137" lon="0.96809">
        <ele>119.34</ele>
        <time>2015-11-28T13:55:51Z</time>
      </trkpt>
      <trkpt lat="44.51464" lon="0.96726">
        <ele>118.38</ele>
        <time>2015-11-28T13:56:08Z</time>
      </trkpt>
      <trkpt lat="44.51543" lon="0.96638">
        <ele>116.94</ele>
        <time>2015-11-28T13:56:24Z</time>
      </trkpt>
      <trkpt lat="44.5158" lon="0.96552">
        <ele>115.5</ele>
        <time>2015-11-28T13:56:37Z</time>
      </trkpt>
      <trkpt lat="44.51609" lon="0.96456">
        <ele>111.65</ele>
        <time>2015-11-28T13:56:49Z</time>
      </trkpt>
      <trkpt lat="44.51613" lon="0.96451">
        <ele>112.13</ele>
        <time>2015-11-28T13:56:50Z</time>
      </trkpt>
      <trkpt lat="44.51617" lon="0.9645">
        <ele>112.61</ele>
        <time>2015-11-28T13:56:51Z</time>
      </trkpt>
      <trkpt lat="44.51621" lon="0.9645">
        <ele>113.09</ele>
        <time>2015-11-28T13:56:52Z</time>
      </trkpt>
      <trkpt lat="44.51625" lon="0.96452">
        <ele>113.57</ele>
        <time>2015-11-28T13:56:53Z</time>
      </trkpt>
      <trkpt lat="44.51627" lon="0.96453">
        <ele>113.57</ele>
        <time>2015-11-28T13:56:54Z</time>
      </trkpt>
      <trkpt lat="44.5163" lon="0.96454">
        <ele>114.05</ele>
        <time>2015-11-28T13:56:55Z</time>
      </trkpt>
      <trkpt lat="44.51659" lon="0.96468">
        <ele>118.38</ele>
        <time>2015-11-28T13:57:08Z</time>
      </trkpt>
      <trkpt lat="44.51701" lon="0.96487">
        <ele>120.3</ele>
        <time>2015-11-28T13:57:22Z</time>
      </trkpt>
      <trkpt lat="44.51756" lon="0.96511">
        <ele>121.26</ele>
        <time>2015-11-28T13:57:37Z</time>
      </trkpt>
      <trkpt lat="44.51793" lon="0.96528">
        <ele>124.63</ele>
        <time>2015-11-28T13:57:52Z</time>
      </trkpt>
      <trkpt lat="44.51827" lon="0.96543">
        <ele>128.47</ele>
        <time>2015-11-28T13:58:05Z</time>
      </trkpt>
      <trkpt lat="44.51863" lon="0.96556">
        <ele>131.84</ele>
        <time>2015-11-28T13:58:18Z</time>
      </trkpt>
      <trkpt lat="44.5189" lon="0.96568">
        <ele>130.88</ele>
        <time>2015-11-28T13:58:27Z</time>
      </trkpt>
      <trkpt lat="44.51946" lon="0.96593">
        <ele>126.07</ele>
        <time>2015-11-28T13:58:36Z</time>
      </trkpt>
      <trkpt lat="44.52046" lon="0.96636">
        <ele>118.38</ele>
        <time>2015-11-28T13:58:46Z</time>
      </trkpt>
      <trkpt lat="44.52095" lon="0.96659">
        <ele>119.34</ele>
        <time>2015-11-28T13:58:54Z</time>
      </trkpt>
      <trkpt lat="44.52126" lon="0.9668">
        <ele>122.71</ele>
        <time>2015-11-28T13:59:06Z</time>
      </trkpt>
      <trkpt lat="44.52153" lon="0.96704">
        <ele>127.99</ele>
        <time>2015-11-28T13:59:19Z</time>
      </trkpt>
      <trkpt lat="44.52189" lon="0.96735">
        <ele>135.68</ele>
        <time>2015-11-28T13:59:35Z</time>
      </trkpt>
      <trkpt lat="44.52229" lon="0.96767">
        <ele>136.64</ele>
        <time>2015-11-28T13:59:50Z</time>
      </trkpt>
      <trkpt lat="44.5226" lon="0.9679">
        <ele>137.13</ele>
        <time>2015-11-28T14:00:03Z</time>
      </trkpt>
      <trkpt lat="44.52282" lon="0.96802">
        <ele>138.09</ele>
        <time>2015-11-28T14:00:16Z</time>
      </trkpt>
      <trkpt lat="44.52288" lon="0.96804">
        <ele>138.09</ele>
        <time>2015-11-28T14:00:19Z</time>
      </trkpt>
      <trkpt lat="44.52289" lon="0.96805">
        <ele>138.09</ele>
        <time>2015-11-28T14:00:20Z</time>
      </trkpt>
      <trkpt lat="44.52299" lon="0.96807">
        <ele>137.13</ele>
        <time>2015-11-28T14:00:26Z</time>
      </trkpt>
      <trkpt lat="44.523" lon="0.96808">
        <ele>137.13</ele>
        <time>2015-11-28T14:00:27Z</time>
      </trkpt>
      <trkpt lat="44.52302" lon="0.96808">
        <ele>137.13</ele>
        <time>2015-11-28T14:00:28Z</time>
      </trkpt>
      <trkpt lat="44.52303" lon="0.96809">
        <ele>137.61</ele>
        <time>2015-11-28T14:00:29Z</time>
      </trkpt>
      <trkpt lat="44.52305" lon="0.9681">
        <ele>138.09</ele>
        <time>2015-11-28T14:00:30Z</time>
      </trkpt>
      <trkpt lat="44.52309" lon="0.9681">
        <ele>139.53</ele>
        <time>2015-11-28T14:00:43Z</time>
      </trkpt>
      <trkpt lat="44.52309" lon="0.96809">
        <ele>140.01</ele>
        <time>2015-11-28T14:01:04Z</time>
      </trkpt>
      <trkpt lat="44.52309" lon="0.96811">
        <ele>140.01</ele>
        <time>2015-11-28T14:01:28Z</time>
      </trkpt>
      <trkpt lat="44.5231" lon="0.9681">
        <ele>141.45</ele>
        <time>2015-11-28T14:01:47Z</time>
      </trkpt>
      <trkpt lat="44.52311" lon="0.9681">
        <ele>141.45</ele>
        <time>2015-11-28T14:02:08Z</time>
      </trkpt>
      <trkpt lat="44.52312" lon="0.96808">
        <ele>141.93</ele>
        <time>2015-11-28T14:02:34Z</time>
      </trkpt>
      <trkpt lat="44.52312" lon="0.96807">
        <ele>142.41</ele>
        <time>2015-11-28T14:02:53Z</time>
      </trkpt>
      <trkpt lat="44.52311" lon="0.96807">
        <ele>142.89</ele>
        <time>2015-11-28T14:03:18Z</time>
      </trkpt>
      <trkpt lat="44.52321" lon="0.96809">
        <ele>143.85</ele>
        <time>2015-11-28T14:03:44Z</time>
      </trkpt>
      <trkpt lat="44.52333" lon="0.96812">
        <ele>143.37</ele>
        <time>2015-11-28T14:03:48Z</time>
      </trkpt>
      <trkpt lat="44.52337" lon="0.96814">
        <ele>142.89</ele>
        <time>2015-11-28T14:03:49Z</time>
      </trkpt>
      <trkpt lat="44.52399" lon="0.96832">
        <ele>138.57</ele>
        <time>2015-11-28T14:04:00Z</time>
      </trkpt>
      <trkpt lat="44.5247" lon="0.96852">
        <ele>130.88</ele>
        <time>2015-11-28T14:04:10Z</time>
      </trkpt>
      <trkpt lat="44.52477" lon="0.96851">
        <ele>129.92</ele>
        <time>2015-11-28T14:04:11Z</time>
      </trkpt>
      <trkpt lat="44.52484" lon="0.96848">
        <ele>129.43</ele>
        <time>2015-11-28T14:04:12Z</time>
      </trkpt>
      <trkpt lat="44.52489" lon="0.96843">
        <ele>128.95</ele>
        <time>2015-11-28T14:04:13Z</time>
      </trkpt>
      <trkpt lat="44.52493" lon="0.96837">
        <ele>127.99</ele>
        <time>2015-11-28T14:04:14Z</time>
      </trkpt>
      <trkpt lat="44.52497" lon="0.96832">
        <ele>127.51</ele>
        <time>2015-11-28T14:04:15Z</time>
      </trkpt>
      <trkpt lat="44.52501" lon="0.96827">
        <ele>127.51</ele>
        <time>2015-11-28T14:04:16Z</time>
      </trkpt>
      <trkpt lat="44.52505" lon="0.96823">
        <ele>127.03</ele>
        <time>2015-11-28T14:04:17Z</time>
      </trkpt>
      <trkpt lat="44.52541" lon="0.96802">
        <ele>132.8</ele>
        <time>2015-11-28T14:04:28Z</time>
      </trkpt>
      <trkpt lat="44.5255" lon="0.96796">
        <ele>137.13</ele>
        <time>2015-11-28T14:04:34Z</time>
      </trkpt>
      <trkpt lat="44.52566" lon="0.96776">
        <ele>141.45</ele>
        <time>2015-11-28T14:04:45Z</time>
      </trkpt>
      <trkpt lat="44.52571" lon="0.96772">
        <ele>143.85</ele>
        <time>2015-11-28T14:04:49Z</time>
      </trkpt>
      <trkpt lat="44.52577" lon="0.96764">
        <ele>146.74</ele>
        <time>2015-11-28T14:04:55Z</time>
      </trkpt>
      <trkpt lat="44.52578" lon="0.96763">
        <ele>147.7</ele>
        <time>2015-11-28T14:04:56Z</time>
      </trkpt>
      <trkpt lat="44.52579" lon="0.96762">
        <ele>148.18</ele>
        <time>2015-11-28T14:04:57Z</time>
      </trkpt>
      <trkpt lat="44.52593" lon="0.96748">
        <ele>155.87</ele>
        <time>2015-11-28T14:05:08Z</time>
      </trkpt>
      <trkpt lat="44.52607" lon="0.96728">
        <ele>161.64</ele>
        <time>2015-11-28T14:05:20Z</time>
      </trkpt>
      <trkpt lat="44.52621" lon="0.9671">
        <ele>168.37</ele>
        <time>2015-11-28T14:05:35Z</time>
      </trkpt>
      <trkpt lat="44.52635" lon="0.96696">
        <ele>172.69</ele>
        <time>2015-11-28T14:05:47Z</time>
      </trkpt>
      <trkpt lat="44.52655" lon="0.96677">
        <ele>176.06</ele>
        <time>2015-11-28T14:06:03Z</time>
      </trkpt>
      <trkpt lat="44.52674" lon="0.96661">
        <ele>176.54</ele>
        <time>2015-11-28T14:06:17Z</time>
      </trkpt>
      <trkpt lat="44.52683" lon="0.96651">
        <ele>177.5</ele>
        <time>2015-11-28T14:06:25Z</time>
      </trkpt>
      <trkpt lat="44.52686" lon="0.96649">
        <ele>176.54</ele>
        <time>2015-11-28T14:06:26Z</time>
      </trkpt>
      <trkpt lat="44.52694" lon="0.96642">
        <ele>177.5</ele>
        <time>2015-11-28T14:06:33Z</time>
      </trkpt>
      <trkpt lat="44.52695" lon="0.96641">
        <ele>177.98</ele>
        <time>2015-11-28T14:06:34Z</time>
      </trkpt>
      <trkpt lat="44.52696" lon="0.96639">
        <ele>177.98</ele>
        <time>2015-11-28T14:06:35Z</time>
      </trkpt>
      <trkpt lat="44.52707" lon="0.96634">
        <ele>178.94</ele>
        <time>2015-11-28T14:06:48Z</time>
      </trkpt>
      <trkpt lat="44.52706" lon="0.96629">
        <ele>175.58</ele>
        <time>2015-11-28T14:07:01Z</time>
      </trkpt>
      <trkpt lat="44.5271" lon="0.96628">
        <ele>174.62</ele>
        <time>2015-11-28T14:07:13Z</time>
      </trkpt>
      <trkpt lat="44.52711" lon="0.96627">
        <ele>172.21</ele>
        <time>2015-11-28T14:07:37Z</time>
      </trkpt>
      <trkpt lat="44.52711" lon="0.96626">
        <ele>172.21</ele>
        <time>2015-11-28T14:07:57Z</time>
      </trkpt>
      <trkpt lat="44.52712" lon="0.96626">
        <ele>170.77</ele>
        <time>2015-11-28T14:08:19Z</time>
      </trkpt>
      <trkpt lat="44.52715" lon="0.96626">
        <ele>170.29</ele>
        <time>2015-11-28T14:08:28Z</time>
      </trkpt>
      <trkpt lat="44.52735" lon="0.96641">
        <ele>170.77</ele>
        <time>2015-11-28T14:08:41Z</time>
      </trkpt>
      <trkpt lat="44.52759" lon="0.9666">
        <ele>171.73</ele>
        <time>2015-11-28T14:08:52Z</time>
      </trkpt>
      <trkpt lat="44.52787" lon="0.96677">
        <ele>171.25</ele>
        <time>2015-11-28T14:09:03Z</time>
      </trkpt>
      <trkpt lat="44.52826" lon="0.96701">
        <ele>170.29</ele>
        <time>2015-11-28T14:09:14Z</time>
      </trkpt>
      <trkpt lat="44.52849" lon="0.96712">
        <ele>171.25</ele>
        <time>2015-11-28T14:09:20Z</time>
      </trkpt>
      <trkpt lat="44.52854" lon="0.96712">
        <ele>171.25</ele>
        <time>2015-11-28T14:09:21Z</time>
      </trkpt>
      <trkpt lat="44.52896" lon="0.9672">
        <ele>172.69</ele>
        <time>2015-11-28T14:09:32Z</time>
      </trkpt>
      <trkpt lat="44.52925" lon="0.96742">
        <ele>168.37</ele>
        <time>2015-11-28T14:09:42Z</time>
      </trkpt>
      <trkpt lat="44.5293" lon="0.96745">
        <ele>167.89</ele>
        <time>2015-11-28T14:09:43Z</time>
      </trkpt>
      <trkpt lat="44.52936" lon="0.96748">
        <ele>167.41</ele>
        <time>2015-11-28T14:09:44Z</time>
      </trkpt>
      <trkpt lat="44.52942" lon="0.9675">
        <ele>166.45</ele>
        <time>2015-11-28T14:09:45Z</time>
      </trkpt>
      <trkpt lat="44.52973" lon="0.96757">
        <ele>161.64</ele>
        <time>2015-11-28T14:09:51Z</time>
      </trkpt>
      <trkpt lat="44.52977" lon="0.96756">
        <ele>161.16</ele>
        <time>2015-11-28T14:09:52Z</time>
      </trkpt>
      <trkpt lat="44.52982" lon="0.96755">
        <ele>161.16</ele>
        <time>2015-11-28T14:09:53Z</time>
      </trkpt>
      <trkpt lat="44.53013" lon="0.96752">
        <ele>159.72</ele>
        <time>2015-11-28T14:09:57Z</time>
      </trkpt>
      <trkpt lat="44.5305" lon="0.96762">
        <ele>159.72</ele>
        <time>2015-11-28T14:10:03Z</time>
      </trkpt>
      <trkpt lat="44.53064" lon="0.96756">
        <ele>159.24</ele>
        <time>2015-11-28T14:10:07Z</time>
      </trkpt>
      <trkpt lat="44.53075" lon="0.96742">
        <ele>161.16</ele>
        <time>2015-11-28T14:10:11Z</time>
      </trkpt>
      <trkpt lat="44.531" lon="0.96688">
        <ele>161.16</ele>
        <time>2015-11-28T14:10:23Z</time>
      </trkpt>
      <trkpt lat="44.53117" lon="0.96673">
        <ele>164.04</ele>
        <time>2015-11-28T14:10:30Z</time>
      </trkpt>
      <trkpt lat="44.53119" lon="0.96671">
        <ele>164.52</ele>
        <time>2015-11-28T14:10:31Z</time>
      </trkpt>
      <trkpt lat="44.53141" lon="0.96648">
        <ele>165.96</ele>
        <time>2015-11-28T14:10:42Z</time>
      </trkpt>
      <trkpt lat="44.53145" lon="0.96643">
        <ele>166.45</ele>
        <time>2015-11-28T14:10:44Z</time>
      </trkpt>
      <trkpt lat="44.53148" lon="0.96642">
        <ele>166.45</ele>
        <time>2015-11-28T14:10:45Z</time>
      </trkpt>
      <trkpt lat="44.5315" lon="0.96643">
        <ele>166.45</ele>
        <time>2015-11-28T14:10:46Z</time>
      </trkpt>
      <trkpt lat="44.53153" lon="0.96642">
        <ele>165.96</ele>
        <time>2015-11-28T14:10:47Z</time>
      </trkpt>
      <trkpt lat="44.53155" lon="0.96641">
        <ele>165.96</ele>
        <time>2015-11-28T14:10:48Z</time>
      </trkpt>
      <trkpt lat="44.53157" lon="0.96639">
        <ele>165.48</ele>
        <time>2015-11-28T14:10:49Z</time>
      </trkpt>
      <trkpt lat="44.5316" lon="0.96638">
        <ele>165.48</ele>
        <time>2015-11-28T14:10:50Z</time>
      </trkpt>
      <trkpt lat="44.53162" lon="0.96637">
        <ele>165.48</ele>
        <time>2015-11-28T14:10:51Z</time>
      </trkpt>
      <trkpt lat="44.53164" lon="0.96637">
        <ele>165.48</ele>
        <time>2015-11-28T14:10:52Z</time>
      </trkpt>
      <trkpt lat="44.53167" lon="0.96636">
        <ele>165.96</ele>
        <time>2015-11-28T14:10:53Z</time>
      </trkpt>
      <trkpt lat="44.53169" lon="0.96635">
        <ele>166.45</ele>
        <time>2015-11-28T14:10:54Z</time>
      </trkpt>
      <trkpt lat="44.53174" lon="0.96633">
        <ele>165.96</ele>
        <time>2015-11-28T14:10:57Z</time>
      </trkpt>
      <trkpt lat="44.53175" lon="0.96632">
        <ele>165.96</ele>
        <time>2015-11-28T14:10:58Z</time>
      </trkpt>
      <trkpt lat="44.53177" lon="0.96631">
        <ele>166.45</ele>
        <time>2015-11-28T14:10:59Z</time>
      </trkpt>
      <trkpt lat="44.53178" lon="0.96629">
        <ele>166.45</ele>
        <time>2015-11-28T14:11:00Z</time>
      </trkpt>
      <trkpt lat="44.5318" lon="0.96628">
        <ele>166.45</ele>
        <time>2015-11-28T14:11:01Z</time>
      </trkpt>
      <trkpt lat="44.53181" lon="0.96627">
        <ele>166.45</ele>
        <time>2015-11-28T14:11:02Z</time>
      </trkpt>
      <trkpt lat="44.53183" lon="0.96627">
        <ele>165.96</ele>
        <time>2015-11-28T14:11:03Z</time>
      </trkpt>
      <trkpt lat="44.53185" lon="0.96626">
        <ele>165.48</ele>
        <time>2015-11-28T14:11:04Z</time>
      </trkpt>
      <trkpt lat="44.53186" lon="0.96625">
        <ele>165</ele>
        <time>2015-11-28T14:11:05Z</time>
      </trkpt>
      <trkpt lat="44.53188" lon="0.96623">
        <ele>165</ele>
        <time>2015-11-28T14:11:06Z</time>
      </trkpt>
      <trkpt lat="44.5319" lon="0.96621">
        <ele>164.52</ele>
        <time>2015-11-28T14:11:07Z</time>
      </trkpt>
      <trkpt lat="44.53193" lon="0.9662">
        <ele>164.04</ele>
        <time>2015-11-28T14:11:08Z</time>
      </trkpt>
      <trkpt lat="44.53195" lon="0.9662">
        <ele>163.56</ele>
        <time>2015-11-28T14:11:09Z</time>
      </trkpt>
      <trkpt lat="44.53198" lon="0.9662">
        <ele>163.56</ele>
        <time>2015-11-28T14:11:10Z</time>
      </trkpt>
      <trkpt lat="44.53232" lon="0.96625">
        <ele>160.68</ele>
        <time>2015-11-28T14:11:22Z</time>
      </trkpt>
      <trkpt lat="44.53259" lon="0.96617">
        <ele>161.16</ele>
        <time>2015-11-28T14:11:33Z</time>
      </trkpt>
      <trkpt lat="44.53288" lon="0.9661">
        <ele>165.48</ele>
        <time>2015-11-28T14:11:45Z</time>
      </trkpt>
      <trkpt lat="44.53312" lon="0.96591">
        <ele>167.41</ele>
        <time>2015-11-28T14:11:56Z</time>
      </trkpt>
      <trkpt lat="44.53323" lon="0.96577">
        <ele>168.85</ele>
        <time>2015-11-28T14:12:03Z</time>
      </trkpt>
      <trkpt lat="44.53326" lon="0.96575">
        <ele>168.85</ele>
        <time>2015-11-28T14:12:17Z</time>
      </trkpt>
      <trkpt lat="44.53326" lon="0.96573">
        <ele>168.37</ele>
        <time>2015-11-28T14:12:27Z</time>
      </trkpt>
      <trkpt lat="44.53327" lon="0.96571">
        <ele>168.37</ele>
        <time>2015-11-28T14:12:28Z</time>
      </trkpt>
      <trkpt lat="44.53329" lon="0.96569">
        <ele>168.37</ele>
        <time>2015-11-28T14:12:29Z</time>
      </trkpt>
      <trkpt lat="44.53339" lon="0.96554">
        <ele>166.93</ele>
        <time>2015-11-28T14:12:34Z</time>
      </trkpt>
      <trkpt lat="44.53343" lon="0.9655">
        <ele>166.93</ele>
        <time>2015-11-28T14:12:35Z</time>
      </trkpt>
      <trkpt lat="44.53355" lon="0.96536">
        <ele>165.96</ele>
        <time>2015-11-28T14:12:38Z</time>
      </trkpt>
      <trkpt lat="44.53359" lon="0.96533">
        <ele>165.48</ele>
        <time>2015-11-28T14:12:39Z</time>
      </trkpt>
      <trkpt lat="44.53364" lon="0.96529">
        <ele>165</ele>
        <time>2015-11-28T14:12:40Z</time>
      </trkpt>
      <trkpt lat="44.5337" lon="0.96527">
        <ele>164.52</ele>
        <time>2015-11-28T14:12:41Z</time>
      </trkpt>
      <trkpt lat="44.53375" lon="0.96525">
        <ele>164.04</ele>
        <time>2015-11-28T14:12:42Z</time>
      </trkpt>
      <trkpt lat="44.53381" lon="0.96524">
        <ele>163.56</ele>
        <time>2015-11-28T14:12:43Z</time>
      </trkpt>
      <trkpt lat="44.53386" lon="0.96522">
        <ele>163.08</ele>
        <time>2015-11-28T14:12:44Z</time>
      </trkpt>
      <trkpt lat="44.53391" lon="0.96519">
        <ele>162.6</ele>
        <time>2015-11-28T14:12:45Z</time>
      </trkpt>
      <trkpt lat="44.53396" lon="0.96515">
        <ele>162.6</ele>
        <time>2015-11-28T14:12:46Z</time>
      </trkpt>
      <trkpt lat="44.53405" lon="0.96507">
        <ele>162.12</ele>
        <time>2015-11-28T14:12:48Z</time>
      </trkpt>
      <trkpt lat="44.53436" lon="0.96452">
        <ele>162.6</ele>
        <time>2015-11-28T14:13:00Z</time>
      </trkpt>
      <trkpt lat="44.53459" lon="0.96397">
        <ele>162.12</ele>
        <time>2015-11-28T14:13:12Z</time>
      </trkpt>
      <trkpt lat="44.53473" lon="0.96366">
        <ele>162.12</ele>
        <time>2015-11-28T14:13:18Z</time>
      </trkpt>
      <trkpt lat="44.53478" lon="0.96348">
        <ele>162.6</ele>
        <time>2015-11-28T14:13:21Z</time>
      </trkpt>
      <trkpt lat="44.53476" lon="0.9626">
        <ele>163.08</ele>
        <time>2015-11-28T14:13:34Z</time>
      </trkpt>
      <trkpt lat="44.53475" lon="0.96209">
        <ele>162.12</ele>
        <time>2015-11-28T14:13:44Z</time>
      </trkpt>
      <trkpt lat="44.53489" lon="0.96161">
        <ele>160.2</ele>
        <time>2015-11-28T14:13:55Z</time>
      </trkpt>
      <trkpt lat="44.53496" lon="0.96146">
        <ele>158.75</ele>
        <time>2015-11-28T14:13:58Z</time>
      </trkpt>
      <trkpt lat="44.53503" lon="0.96127">
        <ele>158.27</ele>
        <time>2015-11-28T14:14:01Z</time>
      </trkpt>
      <trkpt lat="44.53511" lon="0.96106">
        <ele>157.79</ele>
        <time>2015-11-28T14:14:04Z</time>
      </trkpt>
      <trkpt lat="44.53522" lon="0.96086">
        <ele>156.83</ele>
        <time>2015-11-28T14:14:07Z</time>
      </trkpt>
      <trkpt lat="44.53524" lon="0.96078">
        <ele>156.35</ele>
        <time>2015-11-28T14:14:08Z</time>
      </trkpt>
      <trkpt lat="44.53526" lon="0.9607">
        <ele>156.35</ele>
        <time>2015-11-28T14:14:09Z</time>
      </trkpt>
      <trkpt lat="44.53532" lon="0.96045">
        <ele>155.87</ele>
        <time>2015-11-28T14:14:12Z</time>
      </trkpt>
      <trkpt lat="44.53534" lon="0.96036">
        <ele>155.39</ele>
        <time>2015-11-28T14:14:13Z</time>
      </trkpt>
      <trkpt lat="44.53546" lon="0.95989">
        <ele>152.99</ele>
        <time>2015-11-28T14:14:19Z</time>
      </trkpt>
      <trkpt lat="44.53558" lon="0.9596">
        <ele>150.1</ele>
        <time>2015-11-28T14:14:23Z</time>
      </trkpt>
      <trkpt lat="44.53572" lon="0.95926">
        <ele>146.74</ele>
        <time>2015-11-28T14:14:28Z</time>
      </trkpt>
      <trkpt lat="44.53575" lon="0.95919">
        <ele>146.26</ele>
        <time>2015-11-28T14:14:29Z</time>
      </trkpt>
      <trkpt lat="44.53577" lon="0.95913">
        <ele>145.3</ele>
        <time>2015-11-28T14:14:30Z</time>
      </trkpt>
      <trkpt lat="44.53578" lon="0.95907">
        <ele>144.34</ele>
        <time>2015-11-28T14:14:31Z</time>
      </trkpt>
      <trkpt lat="44.53579" lon="0.959">
        <ele>143.85</ele>
        <time>2015-11-28T14:14:32Z</time>
      </trkpt>
      <trkpt lat="44.53581" lon="0.95885">
        <ele>142.41</ele>
        <time>2015-11-28T14:14:34Z</time>
      </trkpt>
      <trkpt lat="44.53581" lon="0.95876">
        <ele>141.93</ele>
        <time>2015-11-28T14:14:35Z</time>
      </trkpt>
      <trkpt lat="44.53582" lon="0.95868">
        <ele>141.45</ele>
        <time>2015-11-28T14:14:36Z</time>
      </trkpt>
      <trkpt lat="44.53584" lon="0.95859">
        <ele>140.49</ele>
        <time>2015-11-28T14:14:37Z</time>
      </trkpt>
      <trkpt lat="44.53586" lon="0.95851">
        <ele>140.01</ele>
        <time>2015-11-28T14:14:38Z</time>
      </trkpt>
      <trkpt lat="44.53587" lon="0.95843">
        <ele>139.53</ele>
        <time>2015-11-28T14:14:39Z</time>
      </trkpt>
      <trkpt lat="44.53595" lon="0.95813">
        <ele>135.68</ele>
        <time>2015-11-28T14:14:45Z</time>
      </trkpt>
      <trkpt lat="44.53597" lon="0.95813">
        <ele>135.2</ele>
        <time>2015-11-28T14:14:46Z</time>
      </trkpt>
      <trkpt lat="44.53598" lon="0.95812">
        <ele>132.32</ele>
        <time>2015-11-28T14:14:58Z</time>
      </trkpt>
      <trkpt lat="44.53599" lon="0.95812">
        <ele>132.8</ele>
        <time>2015-11-28T14:15:16Z</time>
      </trkpt>
      <trkpt lat="44.536" lon="0.95812">
        <ele>132.8</ele>
        <time>2015-11-28T14:15:17Z</time>
      </trkpt>
      <trkpt lat="44.53636" lon="0.95824">
        <ele>130.4</ele>
        <time>2015-11-28T14:15:28Z</time>
      </trkpt>
      <trkpt lat="44.5371" lon="0.95852">
        <ele>123.19</ele>
        <time>2015-11-28T14:15:38Z</time>
      </trkpt>
      <trkpt lat="44.53739" lon="0.95856">
        <ele>119.82</ele>
        <time>2015-11-28T14:15:41Z</time>
      </trkpt>
      <trkpt lat="44.53749" lon="0.95855">
        <ele>118.86</ele>
        <time>2015-11-28T14:15:42Z</time>
      </trkpt>
      <trkpt lat="44.53759" lon="0.95853">
        <ele>117.42</ele>
        <time>2015-11-28T14:15:43Z</time>
      </trkpt>
      <trkpt lat="44.53839" lon="0.95823">
        <ele>114.53</ele>
        <time>2015-11-28T14:15:53Z</time>
      </trkpt>
      <trkpt lat="44.53871" lon="0.95802">
        <ele>116.46</ele>
        <time>2015-11-28T14:16:03Z</time>
      </trkpt>
      <trkpt lat="44.53876" lon="0.95797">
        <ele>116.94</ele>
        <time>2015-11-28T14:16:07Z</time>
      </trkpt>
      <trkpt lat="44.53876" lon="0.95795">
        <ele>116.94</ele>
        <time>2015-11-28T14:16:08Z</time>
      </trkpt>
      <trkpt lat="44.53877" lon="0.95793">
        <ele>116.94</ele>
        <time>2015-11-28T14:16:09Z</time>
      </trkpt>
      <trkpt lat="44.53878" lon="0.95791">
        <ele>116.94</ele>
        <time>2015-11-28T14:16:10Z</time>
      </trkpt>
      <trkpt lat="44.53879" lon="0.9579">
        <ele>116.94</ele>
        <time>2015-11-28T14:16:11Z</time>
      </trkpt>
      <trkpt lat="44.5388" lon="0.9579">
        <ele>116.94</ele>
        <time>2015-11-28T14:16:12Z</time>
      </trkpt>
      <trkpt lat="44.53881" lon="0.95789">
        <ele>116.94</ele>
        <time>2015-11-28T14:16:13Z</time>
      </trkpt>
      <trkpt lat="44.53883" lon="0.95788">
        <ele>116.94</ele>
        <time>2015-11-28T14:16:14Z</time>
      </trkpt>
      <trkpt lat="44.53883" lon="0.95786">
        <ele>116.94</ele>
        <time>2015-11-28T14:16:15Z</time>
      </trkpt>
      <trkpt lat="44.53883" lon="0.95784">
        <ele>116.94</ele>
        <time>2015-11-28T14:16:16Z</time>
      </trkpt>
      <trkpt lat="44.53883" lon="0.95782">
        <ele>116.94</ele>
        <time>2015-11-28T14:16:17Z</time>
      </trkpt>
      <trkpt lat="44.53882" lon="0.95781">
        <ele>116.94</ele>
        <time>2015-11-28T14:16:18Z</time>
      </trkpt>
      <trkpt lat="44.53881" lon="0.9578">
        <ele>116.94</ele>
        <time>2015-11-28T14:16:19Z</time>
      </trkpt>
      <trkpt lat="44.5388" lon="0.95781">
        <ele>117.42</ele>
        <time>2015-11-28T14:16:20Z</time>
      </trkpt>
      <trkpt lat="44.53879" lon="0.95783">
        <ele>117.42</ele>
        <time>2015-11-28T14:16:21Z</time>
      </trkpt>
      <trkpt lat="44.53878" lon="0.95785">
        <ele>117.42</ele>
        <time>2015-11-28T14:16:22Z</time>
      </trkpt>
      <trkpt lat="44.53879" lon="0.95787">
        <ele>117.42</ele>
        <time>2015-11-28T14:16:23Z</time>
      </trkpt>
      <trkpt lat="44.5388" lon="0.95789">
        <ele>117.9</ele>
        <time>2015-11-28T14:16:24Z</time>
      </trkpt>
      <trkpt lat="44.53882" lon="0.95789">
        <ele>117.9</ele>
        <time>2015-11-28T14:16:25Z</time>
      </trkpt>
      <trkpt lat="44.53884" lon="0.95788">
        <ele>118.38</ele>
        <time>2015-11-28T14:16:26Z</time>
      </trkpt>
      <trkpt lat="44.53886" lon="0.95786">
        <ele>118.38</ele>
        <time>2015-11-28T14:16:27Z</time>
      </trkpt>
      <trkpt lat="44.53887" lon="0.95783">
        <ele>118.38</ele>
        <time>2015-11-28T14:16:28Z</time>
      </trkpt>
      <trkpt lat="44.53889" lon="0.9578">
        <ele>118.38</ele>
        <time>2015-11-28T14:16:29Z</time>
      </trkpt>
      <trkpt lat="44.5389" lon="0.95778">
        <ele>118.38</ele>
        <time>2015-11-28T14:16:30Z</time>
      </trkpt>
      <trkpt lat="44.53892" lon="0.95776">
        <ele>118.38</ele>
        <time>2015-11-28T14:16:31Z</time>
      </trkpt>
      <trkpt lat="44.53915" lon="0.9574">
        <ele>119.34</ele>
        <time>2015-11-28T14:16:45Z</time>
      </trkpt>
      <trkpt lat="44.53933" lon="0.95707">
        <ele>120.3</ele>
        <time>2015-11-28T14:16:58Z</time>
      </trkpt>
      <trkpt lat="44.53961" lon="0.9567">
        <ele>125.11</ele>
        <time>2015-11-28T14:17:14Z</time>
      </trkpt>
      <trkpt lat="44.53991" lon="0.95631">
        <ele>127.99</ele>
        <time>2015-11-28T14:17:30Z</time>
      </trkpt>
      <trkpt lat="44.54014" lon="0.95599">
        <ele>133.28</ele>
        <time>2015-11-28T14:17:42Z</time>
      </trkpt>
      <trkpt lat="44.54046" lon="0.95562">
        <ele>135.68</ele>
        <time>2015-11-28T14:17:57Z</time>
      </trkpt>
      <trkpt lat="44.54054" lon="0.95537">
        <ele>136.64</ele>
        <time>2015-11-28T14:18:04Z</time>
      </trkpt>
      <trkpt lat="44.54063" lon="0.95495">
        <ele>140.97</ele>
        <time>2015-11-28T14:18:21Z</time>
      </trkpt>
      <trkpt lat="44.54082" lon="0.95476">
        <ele>142.89</ele>
        <time>2015-11-28T14:18:34Z</time>
      </trkpt>
      <trkpt lat="44.54085" lon="0.95476">
        <ele>143.37</ele>
        <time>2015-11-28T14:18:36Z</time>
      </trkpt>
      <trkpt lat="44.54087" lon="0.95477">
        <ele>143.85</ele>
        <time>2015-11-28T14:18:37Z</time>
      </trkpt>
      <trkpt lat="44.54088" lon="0.95478">
        <ele>143.85</ele>
        <time>2015-11-28T14:18:38Z</time>
      </trkpt>
      <trkpt lat="44.54089" lon="0.95478">
        <ele>143.85</ele>
        <time>2015-11-28T14:18:39Z</time>
      </trkpt>
      <trkpt lat="44.54091" lon="0.95479">
        <ele>143.85</ele>
        <time>2015-11-28T14:18:40Z</time>
      </trkpt>
      <trkpt lat="44.54092" lon="0.9548">
        <ele>144.34</ele>
        <time>2015-11-28T14:18:41Z</time>
      </trkpt>
      <trkpt lat="44.54093" lon="0.95481">
        <ele>144.34</ele>
        <time>2015-11-28T14:18:42Z</time>
      </trkpt>
      <trkpt lat="44.54094" lon="0.95483">
        <ele>144.34</ele>
        <time>2015-11-28T14:18:43Z</time>
      </trkpt>
      <trkpt lat="44.54095" lon="0.95484">
        <ele>144.34</ele>
        <time>2015-11-28T14:18:44Z</time>
      </trkpt>
      <trkpt lat="44.54096" lon="0.95486">
        <ele>144.34</ele>
        <time>2015-11-28T14:18:45Z</time>
      </trkpt>
      <trkpt lat="44.54098" lon="0.95487">
        <ele>144.34</ele>
        <time>2015-11-28T14:18:46Z</time>
      </trkpt>
      <trkpt lat="44.54099" lon="0.95489">
        <ele>144.34</ele>
        <time>2015-11-28T14:18:47Z</time>
      </trkpt>
      <trkpt lat="44.541" lon="0.9549">
        <ele>144.34</ele>
        <time>2015-11-28T14:18:48Z</time>
      </trkpt>
      <trkpt lat="44.54102" lon="0.95492">
        <ele>144.34</ele>
        <time>2015-11-28T14:18:49Z</time>
      </trkpt>
      <trkpt lat="44.54103" lon="0.95494">
        <ele>144.34</ele>
        <time>2015-11-28T14:18:50Z</time>
      </trkpt>
      <trkpt lat="44.54104" lon="0.95496">
        <ele>144.34</ele>
        <time>2015-11-28T14:18:51Z</time>
      </trkpt>
      <trkpt lat="44.54106" lon="0.95497">
        <ele>144.34</ele>
        <time>2015-11-28T14:18:52Z</time>
      </trkpt>
      <trkpt lat="44.54107" lon="0.95499">
        <ele>144.34</ele>
        <time>2015-11-28T14:18:53Z</time>
      </trkpt>
      <trkpt lat="44.54108" lon="0.955">
        <ele>144.34</ele>
        <time>2015-11-28T14:18:54Z</time>
      </trkpt>
      <trkpt lat="44.5411" lon="0.955">
        <ele>144.34</ele>
        <time>2015-11-28T14:18:55Z</time>
      </trkpt>
      <trkpt lat="44.54111" lon="0.95501">
        <ele>144.34</ele>
        <time>2015-11-28T14:18:56Z</time>
      </trkpt>
      <trkpt lat="44.54112" lon="0.95502">
        <ele>144.34</ele>
        <time>2015-11-28T14:18:57Z</time>
      </trkpt>
      <trkpt lat="44.54133" lon="0.95518">
        <ele>144.82</ele>
        <time>2015-11-28T14:19:12Z</time>
      </trkpt>
      <trkpt lat="44.54135" lon="0.95519">
        <ele>144.82</ele>
        <time>2015-11-28T14:19:13Z</time>
      </trkpt>
      <trkpt lat="44.54136" lon="0.95519">
        <ele>144.82</ele>
        <time>2015-11-28T14:19:14Z</time>
      </trkpt>
      <trkpt lat="44.54159" lon="0.95519">
        <ele>144.82</ele>
        <time>2015-11-28T14:19:29Z</time>
      </trkpt>
      <trkpt lat="44.54188" lon="0.955">
        <ele>143.85</ele>
        <time>2015-11-28T14:19:40Z</time>
      </trkpt>
      <trkpt lat="44.54241" lon="0.95468">
        <ele>145.3</ele>
        <time>2015-11-28T14:19:55Z</time>
      </trkpt>
      <trkpt lat="44.54281" lon="0.95445">
        <ele>149.62</ele>
        <time>2015-11-28T14:20:09Z</time>
      </trkpt>
      <trkpt lat="44.54316" lon="0.95435">
        <ele>152.03</ele>
        <time>2015-11-28T14:20:21Z</time>
      </trkpt>
      <trkpt lat="44.54354" lon="0.95422">
        <ele>152.03</ele>
        <time>2015-11-28T14:20:32Z</time>
      </trkpt>
      <trkpt lat="44.54373" lon="0.95407">
        <ele>148.18</ele>
        <time>2015-11-28T14:20:42Z</time>
      </trkpt>
      <trkpt lat="44.5439" lon="0.95382">
        <ele>146.74</ele>
        <time>2015-11-28T14:20:54Z</time>
      </trkpt>
      <trkpt lat="44.54391" lon="0.95378">
        <ele>146.74</ele>
        <time>2015-11-28T14:20:55Z</time>
      </trkpt>
      <trkpt lat="44.54392" lon="0.95374">
        <ele>146.74</ele>
        <time>2015-11-28T14:20:56Z</time>
      </trkpt>
      <trkpt lat="44.54393" lon="0.95363">
        <ele>146.26</ele>
        <time>2015-11-28T14:20:58Z</time>
      </trkpt>
      <trkpt lat="44.54392" lon="0.95339">
        <ele>145.78</ele>
        <time>2015-11-28T14:21:01Z</time>
      </trkpt>
      <trkpt lat="44.54395" lon="0.95281">
        <ele>145.78</ele>
        <time>2015-11-28T14:21:09Z</time>
      </trkpt>
      <trkpt lat="44.54396" lon="0.95274">
        <ele>145.78</ele>
        <time>2015-11-28T14:21:10Z</time>
      </trkpt>
      <trkpt lat="44.54399" lon="0.95262">
        <ele>145.78</ele>
        <time>2015-11-28T14:21:12Z</time>
      </trkpt>
      <trkpt lat="44.54403" lon="0.9525">
        <ele>145.78</ele>
        <time>2015-11-28T14:21:14Z</time>
      </trkpt>
      <trkpt lat="44.54422" lon="0.95185">
        <ele>145.78</ele>
        <time>2015-11-28T14:21:22Z</time>
      </trkpt>
      <trkpt lat="44.54437" lon="0.95124">
        <ele>144.34</ele>
        <time>2015-11-28T14:21:29Z</time>
      </trkpt>
      <trkpt lat="44.54439" lon="0.95119">
        <ele>143.37</ele>
        <time>2015-11-28T14:21:30Z</time>
      </trkpt>
      <trkpt lat="44.54443" lon="0.95118">
        <ele>142.89</ele>
        <time>2015-11-28T14:21:31Z</time>
      </trkpt>
      <trkpt lat="44.54447" lon="0.9512">
        <ele>141.93</ele>
        <time>2015-11-28T14:21:32Z</time>
      </trkpt>
      <trkpt lat="44.54452" lon="0.95123">
        <ele>141.45</ele>
        <time>2015-11-28T14:21:33Z</time>
      </trkpt>
      <trkpt lat="44.54456" lon="0.95124">
        <ele>140.49</ele>
        <time>2015-11-28T14:21:34Z</time>
      </trkpt>
      <trkpt lat="44.5446" lon="0.95126">
        <ele>139.53</ele>
        <time>2015-11-28T14:21:35Z</time>
      </trkpt>
      <trkpt lat="44.54464" lon="0.95127">
        <ele>138.57</ele>
        <time>2015-11-28T14:21:36Z</time>
      </trkpt>
      <trkpt lat="44.54468" lon="0.95127">
        <ele>137.13</ele>
        <time>2015-11-28T14:21:37Z</time>
      </trkpt>
      <trkpt lat="44.54471" lon="0.95126">
        <ele>136.16</ele>
        <time>2015-11-28T14:21:38Z</time>
      </trkpt>
      <trkpt lat="44.54476" lon="0.95126">
        <ele>136.16</ele>
        <time>2015-11-28T14:21:39Z</time>
      </trkpt>
      <trkpt lat="44.54479" lon="0.95124">
        <ele>136.16</ele>
        <time>2015-11-28T14:21:40Z</time>
      </trkpt>
      <trkpt lat="44.54525" lon="0.95116">
        <ele>134.24</ele>
        <time>2015-11-28T14:21:53Z</time>
      </trkpt>
      <trkpt lat="44.5458" lon="0.95126">
        <ele>135.68</ele>
        <time>2015-11-28T14:22:09Z</time>
      </trkpt>
      <trkpt lat="44.54623" lon="0.95107">
        <ele>135.68</ele>
        <time>2015-11-28T14:22:21Z</time>
      </trkpt>
      <trkpt lat="44.54656" lon="0.95094">
        <ele>137.61</ele>
        <time>2015-11-28T14:22:32Z</time>
      </trkpt>
      <trkpt lat="44.54695" lon="0.95112">
        <ele>139.53</ele>
        <time>2015-11-28T14:22:46Z</time>
      </trkpt>
      <trkpt lat="44.5473" lon="0.95121">
        <ele>142.41</ele>
        <time>2015-11-28T14:22:59Z</time>
      </trkpt>
      <trkpt lat="44.54743" lon="0.95123">
        <ele>142.41</ele>
        <time>2015-11-28T14:23:05Z</time>
      </trkpt>
      <trkpt lat="44.54745" lon="0.95125">
        <ele>142.41</ele>
        <time>2015-11-28T14:23:06Z</time>
      </trkpt>
      <trkpt lat="44.54747" lon="0.95126">
        <ele>142.41</ele>
        <time>2015-11-28T14:23:07Z</time>
      </trkpt>
      <trkpt lat="44.54749" lon="0.95128">
        <ele>142.41</ele>
        <time>2015-11-28T14:23:08Z</time>
      </trkpt>
      <trkpt lat="44.54751" lon="0.9513">
        <ele>142.41</ele>
        <time>2015-11-28T14:23:09Z</time>
      </trkpt>
      <trkpt lat="44.54753" lon="0.95131">
        <ele>141.93</ele>
        <time>2015-11-28T14:23:10Z</time>
      </trkpt>
      <trkpt lat="44.54755" lon="0.95133">
        <ele>141.93</ele>
        <time>2015-11-28T14:23:11Z</time>
      </trkpt>
      <trkpt lat="44.54757" lon="0.95134">
        <ele>141.93</ele>
        <time>2015-11-28T14:23:12Z</time>
      </trkpt>
      <trkpt lat="44.54785" lon="0.95151">
        <ele>143.37</ele>
        <time>2015-11-28T14:23:25Z</time>
      </trkpt>
      <trkpt lat="44.54812" lon="0.9518">
        <ele>145.78</ele>
        <time>2015-11-28T14:23:40Z</time>
      </trkpt>
      <trkpt lat="44.54831" lon="0.95207">
        <ele>149.14</ele>
        <time>2015-11-28T14:23:55Z</time>
      </trkpt>
      <trkpt lat="44.54846" lon="0.95226">
        <ele>151.54</ele>
        <time>2015-11-28T14:24:07Z</time>
      </trkpt>
      <trkpt lat="44.54847" lon="0.95228">
        <ele>151.54</ele>
        <time>2015-11-28T14:24:08Z</time>
      </trkpt>
      <trkpt lat="44.54847" lon="0.9523">
        <ele>151.54</ele>
        <time>2015-11-28T14:24:09Z</time>
      </trkpt>
      <trkpt lat="44.54847" lon="0.95232">
        <ele>151.54</ele>
        <time>2015-11-28T14:24:10Z</time>
      </trkpt>
      <trkpt lat="44.54848" lon="0.95234">
        <ele>151.54</ele>
        <time>2015-11-28T14:24:11Z</time>
      </trkpt>
      <trkpt lat="44.54848" lon="0.95237">
        <ele>151.54</ele>
        <time>2015-11-28T14:24:12Z</time>
      </trkpt>
      <trkpt lat="44.54849" lon="0.95239">
        <ele>152.03</ele>
        <time>2015-11-28T14:24:13Z</time>
      </trkpt>
      <trkpt lat="44.5485" lon="0.95241">
        <ele>152.03</ele>
        <time>2015-11-28T14:24:14Z</time>
      </trkpt>
      <trkpt lat="44.54851" lon="0.95242">
        <ele>151.54</ele>
        <time>2015-11-28T14:24:15Z</time>
      </trkpt>
      <trkpt lat="44.54853" lon="0.95243">
        <ele>151.54</ele>
        <time>2015-11-28T14:24:16Z</time>
      </trkpt>
      <trkpt lat="44.54855" lon="0.95243">
        <ele>151.54</ele>
        <time>2015-11-28T14:24:17Z</time>
      </trkpt>
      <trkpt lat="44.54857" lon="0.95243">
        <ele>151.54</ele>
        <time>2015-11-28T14:24:18Z</time>
      </trkpt>
      <trkpt lat="44.54859" lon="0.95242">
        <ele>151.54</ele>
        <time>2015-11-28T14:24:19Z</time>
      </trkpt>
      <trkpt lat="44.54861" lon="0.95234">
        <ele>151.06</ele>
        <time>2015-11-28T14:24:22Z</time>
      </trkpt>
      <trkpt lat="44.5486" lon="0.95231">
        <ele>151.06</ele>
        <time>2015-11-28T14:24:23Z</time>
      </trkpt>
      <trkpt lat="44.54859" lon="0.95229">
        <ele>151.54</ele>
        <time>2015-11-28T14:24:24Z</time>
      </trkpt>
      <trkpt lat="44.54832" lon="0.95208">
        <ele>150.58</ele>
        <time>2015-11-28T14:24:35Z</time>
      </trkpt>
      <trkpt lat="44.54831" lon="0.95204">
        <ele>150.1</ele>
        <time>2015-11-28T14:24:36Z</time>
      </trkpt>
      <trkpt lat="44.54831" lon="0.952">
        <ele>149.62</ele>
        <time>2015-11-28T14:24:37Z</time>
      </trkpt>
      <trkpt lat="44.54832" lon="0.95198">
        <ele>149.14</ele>
        <time>2015-11-28T14:24:38Z</time>
      </trkpt>
      <trkpt lat="44.54835" lon="0.95197">
        <ele>148.66</ele>
        <time>2015-11-28T14:24:39Z</time>
      </trkpt>
      <trkpt lat="44.54838" lon="0.95198">
        <ele>148.18</ele>
        <time>2015-11-28T14:24:40Z</time>
      </trkpt>
      <trkpt lat="44.54842" lon="0.95199">
        <ele>147.7</ele>
        <time>2015-11-28T14:24:41Z</time>
      </trkpt>
      <trkpt lat="44.54854" lon="0.95204">
        <ele>146.74</ele>
        <time>2015-11-28T14:24:44Z</time>
      </trkpt>
      <trkpt lat="44.54875" lon="0.95213">
        <ele>145.3</ele>
        <time>2015-11-28T14:24:48Z</time>
      </trkpt>
      <trkpt lat="44.54891" lon="0.95225">
        <ele>144.34</ele>
        <time>2015-11-28T14:24:51Z</time>
      </trkpt>
      <trkpt lat="44.54896" lon="0.9523">
        <ele>143.85</ele>
        <time>2015-11-28T14:24:52Z</time>
      </trkpt>
      <trkpt lat="44.54901" lon="0.95237">
        <ele>143.85</ele>
        <time>2015-11-28T14:24:53Z</time>
      </trkpt>
      <trkpt lat="44.54905" lon="0.95244">
        <ele>143.37</ele>
        <time>2015-11-28T14:24:54Z</time>
      </trkpt>
      <trkpt lat="44.5491" lon="0.95252">
        <ele>142.89</ele>
        <time>2015-11-28T14:24:55Z</time>
      </trkpt>
      <trkpt lat="44.54949" lon="0.95358">
        <ele>134.72</ele>
        <time>2015-11-28T14:25:04Z</time>
      </trkpt>
      <trkpt lat="44.5496" lon="0.95383">
        <ele>133.76</ele>
        <time>2015-11-28T14:25:06Z</time>
      </trkpt>
      <trkpt lat="44.54966" lon="0.95394">
        <ele>133.76</ele>
        <time>2015-11-28T14:25:07Z</time>
      </trkpt>
      <trkpt lat="44.54984" lon="0.95421">
        <ele>133.76</ele>
        <time>2015-11-28T14:25:10Z</time>
      </trkpt>
      <trkpt lat="44.54989" lon="0.95428">
        <ele>133.76</ele>
        <time>2015-11-28T14:25:11Z</time>
      </trkpt>
      <trkpt lat="44.55005" lon="0.95443">
        <ele>135.68</ele>
        <time>2015-11-28T14:25:15Z</time>
      </trkpt>
      <trkpt lat="44.55049" lon="0.95478">
        <ele>138.09</ele>
        <time>2015-11-28T14:25:29Z</time>
      </trkpt>
      <trkpt lat="44.55066" lon="0.95494">
        <ele>137.13</ele>
        <time>2015-11-28T14:25:33Z</time>
      </trkpt>
      <trkpt lat="44.55078" lon="0.95505">
        <ele>136.64</ele>
        <time>2015-11-28T14:25:36Z</time>
      </trkpt>
      <trkpt lat="44.55081" lon="0.95507">
        <ele>136.64</ele>
        <time>2015-11-28T14:25:37Z</time>
      </trkpt>
      <trkpt lat="44.55085" lon="0.9551">
        <ele>136.64</ele>
        <time>2015-11-28T14:25:38Z</time>
      </trkpt>
      <trkpt lat="44.55118" lon="0.95539">
        <ele>142.89</ele>
        <time>2015-11-28T14:25:52Z</time>
      </trkpt>
      <trkpt lat="44.55143" lon="0.9557">
        <ele>147.7</ele>
        <time>2015-11-28T14:26:07Z</time>
      </trkpt>
      <trkpt lat="44.55143" lon="0.95572">
        <ele>148.18</ele>
        <time>2015-11-28T14:26:08Z</time>
      </trkpt>
      <trkpt lat="44.55145" lon="0.95573">
        <ele>148.18</ele>
        <time>2015-11-28T14:26:09Z</time>
      </trkpt>
      <trkpt lat="44.55146" lon="0.95574">
        <ele>148.18</ele>
        <time>2015-11-28T14:26:10Z</time>
      </trkpt>
      <trkpt lat="44.55158" lon="0.95602">
        <ele>148.18</ele>
        <time>2015-11-28T14:26:24Z</time>
      </trkpt>
      <trkpt lat="44.55158" lon="0.95602">
        <ele>148.18</ele>
        <time>2015-11-28T14:26:41Z</time>
      </trkpt>
      <trkpt lat="44.55159" lon="0.95601">
        <ele>150.58</ele>
        <time>2015-11-28T14:27:03Z</time>
      </trkpt>
      <trkpt lat="44.55142" lon="0.9565">
        <ele>148.66</ele>
        <time>2015-11-28T14:27:17Z</time>
      </trkpt>
      <trkpt lat="44.55131" lon="0.95684">
        <ele>147.7</ele>
        <time>2015-11-28T14:27:23Z</time>
      </trkpt>
      <trkpt lat="44.55127" lon="0.95717">
        <ele>145.78</ele>
        <time>2015-11-28T14:27:29Z</time>
      </trkpt>
      <trkpt lat="44.55129" lon="0.95735">
        <ele>145.3</ele>
        <time>2015-11-28T14:27:32Z</time>
      </trkpt>
      <trkpt lat="44.55132" lon="0.95782">
        <ele>144.82</ele>
        <time>2015-11-28T14:27:38Z</time>
      </trkpt>
      <trkpt lat="44.55128" lon="0.95807">
        <ele>142.89</ele>
        <time>2015-11-28T14:27:42Z</time>
      </trkpt>
      <trkpt lat="44.55113" lon="0.95836">
        <ele>140.01</ele>
        <time>2015-11-28T14:27:47Z</time>
      </trkpt>
      <trkpt lat="44.55111" lon="0.95862">
        <ele>137.61</ele>
        <time>2015-11-28T14:27:51Z</time>
      </trkpt>
      <trkpt lat="44.55132" lon="0.95955">
        <ele>128.47</ele>
        <time>2015-11-28T14:28:01Z</time>
      </trkpt>
      <trkpt lat="44.55146" lon="0.95984">
        <ele>125.59</ele>
        <time>2015-11-28T14:28:05Z</time>
      </trkpt>
      <trkpt lat="44.55193" lon="0.96032">
        <ele>117.9</ele>
        <time>2015-11-28T14:28:18Z</time>
      </trkpt>
      <trkpt lat="44.55205" lon="0.96043">
        <ele>119.82</ele>
        <time>2015-11-28T14:28:23Z</time>
      </trkpt>
      <trkpt lat="44.55208" lon="0.96053">
        <ele>124.63</ele>
        <time>2015-11-28T14:28:27Z</time>
      </trkpt>
      <trkpt lat="44.55225" lon="0.96088">
        <ele>127.51</ele>
        <time>2015-11-28T14:28:41Z</time>
      </trkpt>
      <trkpt lat="44.5523" lon="0.96098">
        <ele>127.99</ele>
        <time>2015-11-28T14:28:46Z</time>
      </trkpt>
      <trkpt lat="44.55231" lon="0.961">
        <ele>127.99</ele>
        <time>2015-11-28T14:28:47Z</time>
      </trkpt>
      <trkpt lat="44.55234" lon="0.96104">
        <ele>127.99</ele>
        <time>2015-11-28T14:28:49Z</time>
      </trkpt>
      <trkpt lat="44.55235" lon="0.96106">
        <ele>127.99</ele>
        <time>2015-11-28T14:28:50Z</time>
      </trkpt>
      <trkpt lat="44.55257" lon="0.96137">
        <ele>125.59</ele>
        <time>2015-11-28T14:29:01Z</time>
      </trkpt>
      <trkpt lat="44.55282" lon="0.96189">
        <ele>122.71</ele>
        <time>2015-11-28T14:29:15Z</time>
      </trkpt>
      <trkpt lat="44.55301" lon="0.96241">
        <ele>121.26</ele>
        <time>2015-11-28T14:29:29Z</time>
      </trkpt>
      <trkpt lat="44.55301" lon="0.96244">
        <ele>121.26</ele>
        <time>2015-11-28T14:29:30Z</time>
      </trkpt>
      <trkpt lat="44.55302" lon="0.96246">
        <ele>121.26</ele>
        <time>2015-11-28T14:29:31Z</time>
      </trkpt>
      <trkpt lat="44.55301" lon="0.96248">
        <ele>121.26</ele>
        <time>2015-11-28T14:29:32Z</time>
      </trkpt>
      <trkpt lat="44.55301" lon="0.96249">
        <ele>121.26</ele>
        <time>2015-11-28T14:29:33Z</time>
      </trkpt>
      <trkpt lat="44.55301" lon="0.96252">
        <ele>121.74</ele>
        <time>2015-11-28T14:29:34Z</time>
      </trkpt>
      <trkpt lat="44.55302" lon="0.96254">
        <ele>121.74</ele>
        <time>2015-11-28T14:29:35Z</time>
      </trkpt>
      <trkpt lat="44.55302" lon="0.96256">
        <ele>121.26</ele>
        <time>2015-11-28T14:29:36Z</time>
      </trkpt>
      <trkpt lat="44.55307" lon="0.96287">
        <ele>120.78</ele>
        <time>2015-11-28T14:29:47Z</time>
      </trkpt>
      <trkpt lat="44.55307" lon="0.96289">
        <ele>120.78</ele>
        <time>2015-11-28T14:29:48Z</time>
      </trkpt>
      <trkpt lat="44.55307" lon="0.96292">
        <ele>120.78</ele>
        <time>2015-11-28T14:29:49Z</time>
      </trkpt>
      <trkpt lat="44.55307" lon="0.96294">
        <ele>120.78</ele>
        <time>2015-11-28T14:29:50Z</time>
      </trkpt>
      <trkpt lat="44.55307" lon="0.96297">
        <ele>120.78</ele>
        <time>2015-11-28T14:29:51Z</time>
      </trkpt>
      <trkpt lat="44.55307" lon="0.96299">
        <ele>120.78</ele>
        <time>2015-11-28T14:29:52Z</time>
      </trkpt>
      <trkpt lat="44.55307" lon="0.96302">
        <ele>120.78</ele>
        <time>2015-11-28T14:29:53Z</time>
      </trkpt>
      <trkpt lat="44.55306" lon="0.96304">
        <ele>121.26</ele>
        <time>2015-11-28T14:29:54Z</time>
      </trkpt>
      <trkpt lat="44.55305" lon="0.96317">
        <ele>122.22</ele>
        <time>2015-11-28T14:30:00Z</time>
      </trkpt>
      <trkpt lat="44.55306" lon="0.9632">
        <ele>122.22</ele>
        <time>2015-11-28T14:30:01Z</time>
      </trkpt>
      <trkpt lat="44.55306" lon="0.96322">
        <ele>122.22</ele>
        <time>2015-11-28T14:30:02Z</time>
      </trkpt>
      <trkpt lat="44.55306" lon="0.96324">
        <ele>122.71</ele>
        <time>2015-11-28T14:30:03Z</time>
      </trkpt>
      <trkpt lat="44.55307" lon="0.96327">
        <ele>122.71</ele>
        <time>2015-11-28T14:30:04Z</time>
      </trkpt>
      <trkpt lat="44.55308" lon="0.9633">
        <ele>122.71</ele>
        <time>2015-11-28T14:30:05Z</time>
      </trkpt>
      <trkpt lat="44.55311" lon="0.96347">
        <ele>123.67</ele>
        <time>2015-11-28T14:30:11Z</time>
      </trkpt>
      <trkpt lat="44.55313" lon="0.9636">
        <ele>124.15</ele>
        <time>2015-11-28T14:30:16Z</time>
      </trkpt>
      <trkpt lat="44.55315" lon="0.9637">
        <ele>124.63</ele>
        <time>2015-11-28T14:30:20Z</time>
      </trkpt>
      <trkpt lat="44.55316" lon="0.96375">
        <ele>125.11</ele>
        <time>2015-11-28T14:30:23Z</time>
      </trkpt>
      <trkpt lat="44.55321" lon="0.96387">
        <ele>126.55</ele>
        <time>2015-11-28T14:30:31Z</time>
      </trkpt>
      <trkpt lat="44.55326" lon="0.96394">
        <ele>127.51</ele>
        <time>2015-11-28T14:30:37Z</time>
      </trkpt>
      <trkpt lat="44.55333" lon="0.964">
        <ele>128.47</ele>
        <time>2015-11-28T14:30:46Z</time>
      </trkpt>
      <trkpt lat="44.5534" lon="0.96405">
        <ele>127.51</ele>
        <time>2015-11-28T14:30:52Z</time>
      </trkpt>
      <trkpt lat="44.55346" lon="0.9641">
        <ele>129.43</ele>
        <time>2015-11-28T14:31:04Z</time>
      </trkpt>
      <trkpt lat="44.55347" lon="0.96413">
        <ele>131.84</ele>
        <time>2015-11-28T14:31:17Z</time>
      </trkpt>
      <trkpt lat="44.55355" lon="0.96416">
        <ele>133.76</ele>
        <time>2015-11-28T14:31:29Z</time>
      </trkpt>
      <trkpt lat="44.55357" lon="0.96422">
        <ele>132.8</ele>
        <time>2015-11-28T14:31:47Z</time>
      </trkpt>
      <trkpt lat="44.5536" lon="0.96424">
        <ele>133.76</ele>
        <time>2015-11-28T14:32:10Z</time>
      </trkpt>
      <trkpt lat="44.55361" lon="0.96425">
        <ele>136.64</ele>
        <time>2015-11-28T14:32:30Z</time>
      </trkpt>
      <trkpt lat="44.55361" lon="0.96426">
        <ele>138.57</ele>
        <time>2015-11-28T14:32:57Z</time>
      </trkpt>
      <trkpt lat="44.55359" lon="0.96428">
        <ele>140.97</ele>
        <time>2015-11-28T14:33:26Z</time>
      </trkpt>
      <trkpt lat="44.5536" lon="0.96429">
        <ele>140.97</ele>
        <time>2015-11-28T14:33:49Z</time>
      </trkpt>
      <trkpt lat="44.55365" lon="0.96433">
        <ele>143.37</ele>
        <time>2015-11-28T14:34:02Z</time>
      </trkpt>
      <trkpt lat="44.55374" lon="0.9644">
        <ele>145.78</ele>
        <time>2015-11-28T14:34:09Z</time>
      </trkpt>
      <trkpt lat="44.55383" lon="0.96446">
        <ele>149.14</ele>
        <time>2015-11-28T14:34:15Z</time>
      </trkpt>
      <trkpt lat="44.55388" lon="0.96449">
        <ele>150.1</ele>
        <time>2015-11-28T14:34:19Z</time>
      </trkpt>
      <trkpt lat="44.55392" lon="0.96455">
        <ele>151.54</ele>
        <time>2015-11-28T14:34:23Z</time>
      </trkpt>
      <trkpt lat="44.55395" lon="0.96458">
        <ele>152.03</ele>
        <time>2015-11-28T14:34:26Z</time>
      </trkpt>
      <trkpt lat="44.55403" lon="0.96466">
        <ele>153.47</ele>
        <time>2015-11-28T14:34:34Z</time>
      </trkpt>
      <trkpt lat="44.5541" lon="0.96474">
        <ele>154.43</ele>
        <time>2015-11-28T14:34:41Z</time>
      </trkpt>
      <trkpt lat="44.55421" lon="0.96485">
        <ele>155.39</ele>
        <time>2015-11-28T14:34:52Z</time>
      </trkpt>
      <trkpt lat="44.55429" lon="0.96481">
        <ele>156.83</ele>
        <time>2015-11-28T14:34:59Z</time>
      </trkpt>
      <trkpt lat="44.55445" lon="0.96466">
        <ele>158.27</ele>
        <time>2015-11-28T14:35:13Z</time>
      </trkpt>
      <trkpt lat="44.55456" lon="0.96448">
        <ele>164.04</ele>
        <time>2015-11-28T14:35:26Z</time>
      </trkpt>
      <trkpt lat="44.5546" lon="0.96444">
        <ele>165.48</ele>
        <time>2015-11-28T14:35:29Z</time>
      </trkpt>
      <trkpt lat="44.55471" lon="0.96432">
        <ele>166.45</ele>
        <time>2015-11-28T14:35:36Z</time>
      </trkpt>
      <trkpt lat="44.55474" lon="0.96427">
        <ele>166.93</ele>
        <time>2015-11-28T14:35:39Z</time>
      </trkpt>
      <trkpt lat="44.55476" lon="0.96425">
        <ele>167.41</ele>
        <time>2015-11-28T14:35:41Z</time>
      </trkpt>
      <trkpt lat="44.55478" lon="0.96419">
        <ele>167.41</ele>
        <time>2015-11-28T14:35:45Z</time>
      </trkpt>
      <trkpt lat="44.55479" lon="0.96414">
        <ele>167.89</ele>
        <time>2015-11-28T14:35:48Z</time>
      </trkpt>
      <trkpt lat="44.55478" lon="0.96405">
        <ele>168.37</ele>
        <time>2015-11-28T14:35:53Z</time>
      </trkpt>
      <trkpt lat="44.55469" lon="0.96378">
        <ele>171.73</ele>
        <time>2015-11-28T14:36:10Z</time>
      </trkpt>
      <trkpt lat="44.55467" lon="0.96366">
        <ele>174.62</ele>
        <time>2015-11-28T14:36:19Z</time>
      </trkpt>
      <trkpt lat="44.55466" lon="0.96358">
        <ele>175.58</ele>
        <time>2015-11-28T14:36:24Z</time>
      </trkpt>
      <trkpt lat="44.55464" lon="0.96347">
        <ele>177.5</ele>
        <time>2015-11-28T14:36:30Z</time>
      </trkpt>
      <trkpt lat="44.55462" lon="0.96338">
        <ele>181.35</ele>
        <time>2015-11-28T14:36:36Z</time>
      </trkpt>
      <trkpt lat="44.55463" lon="0.9633">
        <ele>182.79</ele>
        <time>2015-11-28T14:36:40Z</time>
      </trkpt>
      <trkpt lat="44.55472" lon="0.96296">
        <ele>179.42</ele>
        <time>2015-11-28T14:36:57Z</time>
      </trkpt>
      <trkpt lat="44.55492" lon="0.96272">
        <ele>178.94</ele>
        <time>2015-11-28T14:37:14Z</time>
      </trkpt>
      <trkpt lat="44.5551" lon="0.96249">
        <ele>177.5</ele>
        <time>2015-11-28T14:37:29Z</time>
      </trkpt>
      <trkpt lat="44.55529" lon="0.96224">
        <ele>177.5</ele>
        <time>2015-11-28T14:37:47Z</time>
      </trkpt>
      <trkpt lat="44.55535" lon="0.96226">
        <ele>177.98</ele>
        <time>2015-11-28T14:37:52Z</time>
      </trkpt>
      <trkpt lat="44.55548" lon="0.9624">
        <ele>178.46</ele>
        <time>2015-11-28T14:38:03Z</time>
      </trkpt>
      <trkpt lat="44.55554" lon="0.96248">
        <ele>178.46</ele>
        <time>2015-11-28T14:38:09Z</time>
      </trkpt>
      <trkpt lat="44.55569" lon="0.96271">
        <ele>177.02</ele>
        <time>2015-11-28T14:38:26Z</time>
      </trkpt>
      <trkpt lat="44.55581" lon="0.96284">
        <ele>176.54</ele>
        <time>2015-11-28T14:38:39Z</time>
      </trkpt>
      <trkpt lat="44.55585" lon="0.96286">
        <ele>176.54</ele>
        <time>2015-11-28T14:38:42Z</time>
      </trkpt>
      <trkpt lat="44.55587" lon="0.96286">
        <ele>176.54</ele>
        <time>2015-11-28T14:38:44Z</time>
      </trkpt>
      <trkpt lat="44.55606" lon="0.96288">
        <ele>177.5</ele>
        <time>2015-11-28T14:38:59Z</time>
      </trkpt>
      <trkpt lat="44.55635" lon="0.96292">
        <ele>179.42</ele>
        <time>2015-11-28T14:39:18Z</time>
      </trkpt>
      <trkpt lat="44.55656" lon="0.96295">
        <ele>181.35</ele>
        <time>2015-11-28T14:39:31Z</time>
      </trkpt>
      <trkpt lat="44.5567" lon="0.96301">
        <ele>181.35</ele>
        <time>2015-11-28T14:39:40Z</time>
      </trkpt>
      <trkpt lat="44.55698" lon="0.96311">
        <ele>182.31</ele>
        <time>2015-11-28T14:39:57Z</time>
      </trkpt>
      <trkpt lat="44.55716" lon="0.96319">
        <ele>183.27</ele>
        <time>2015-11-28T14:40:12Z</time>
      </trkpt>
      <trkpt lat="44.55719" lon="0.96317">
        <ele>180.38</ele>
        <time>2015-11-28T14:40:40Z</time>
      </trkpt>
      <trkpt lat="44.55719" lon="0.96318">
        <ele>179.42</ele>
        <time>2015-11-28T14:41:07Z</time>
      </trkpt>
      <trkpt lat="44.5572" lon="0.96318">
        <ele>179.42</ele>
        <time>2015-11-28T14:41:22Z</time>
      </trkpt>
      <trkpt lat="44.55722" lon="0.96318">
        <ele>179.42</ele>
        <time>2015-11-28T14:41:25Z</time>
      </trkpt>
      <trkpt lat="44.55727" lon="0.96312">
        <ele>179.9</ele>
        <time>2015-11-28T14:41:30Z</time>
      </trkpt>
      <trkpt lat="44.55731" lon="0.96303">
        <ele>179.9</ele>
        <time>2015-11-28T14:41:35Z</time>
      </trkpt>
      <trkpt lat="44.5575" lon="0.96252">
        <ele>176.54</ele>
        <time>2015-11-28T14:41:46Z</time>
      </trkpt>
      <trkpt lat="44.55752" lon="0.96246">
        <ele>176.06</ele>
        <time>2015-11-28T14:41:47Z</time>
      </trkpt>
      <trkpt lat="44.55752" lon="0.96238">
        <ele>175.58</ele>
        <time>2015-11-28T14:41:48Z</time>
      </trkpt>
      <trkpt lat="44.55753" lon="0.96212">
        <ele>172.21</ele>
        <time>2015-11-28T14:41:51Z</time>
      </trkpt>
      <trkpt lat="44.55756" lon="0.96203">
        <ele>171.25</ele>
        <time>2015-11-28T14:41:52Z</time>
      </trkpt>
      <trkpt lat="44.55759" lon="0.96195">
        <ele>169.81</ele>
        <time>2015-11-28T14:41:53Z</time>
      </trkpt>
      <trkpt lat="44.55763" lon="0.96187">
        <ele>168.85</ele>
        <time>2015-11-28T14:41:54Z</time>
      </trkpt>
      <trkpt lat="44.55767" lon="0.96179">
        <ele>167.89</ele>
        <time>2015-11-28T14:41:55Z</time>
      </trkpt>
      <trkpt lat="44.55771" lon="0.96171">
        <ele>167.41</ele>
        <time>2015-11-28T14:41:56Z</time>
      </trkpt>
      <trkpt lat="44.55773" lon="0.96163">
        <ele>166.93</ele>
        <time>2015-11-28T14:41:57Z</time>
      </trkpt>
      <trkpt lat="44.5578" lon="0.96146">
        <ele>165</ele>
        <time>2015-11-28T14:41:59Z</time>
      </trkpt>
      <trkpt lat="44.55784" lon="0.96138">
        <ele>164.04</ele>
        <time>2015-11-28T14:42:00Z</time>
      </trkpt>
      <trkpt lat="44.5582" lon="0.96097">
        <ele>160.68</ele>
        <time>2015-11-28T14:42:07Z</time>
      </trkpt>
      <trkpt lat="44.55824" lon="0.9609">
        <ele>160.68</ele>
        <time>2015-11-28T14:42:08Z</time>
      </trkpt>
      <trkpt lat="44.55827" lon="0.96083">
        <ele>160.68</ele>
        <time>2015-11-28T14:42:09Z</time>
      </trkpt>
      <trkpt lat="44.55829" lon="0.96075">
        <ele>160.2</ele>
        <time>2015-11-28T14:42:10Z</time>
      </trkpt>
      <trkpt lat="44.55831" lon="0.96067">
        <ele>159.72</ele>
        <time>2015-11-28T14:42:11Z</time>
      </trkpt>
      <trkpt lat="44.55833" lon="0.96057">
        <ele>159.24</ele>
        <time>2015-11-28T14:42:12Z</time>
      </trkpt>
      <trkpt lat="44.55834" lon="0.96048">
        <ele>158.75</ele>
        <time>2015-11-28T14:42:13Z</time>
      </trkpt>
      <trkpt lat="44.55834" lon="0.96038">
        <ele>158.27</ele>
        <time>2015-11-28T14:42:14Z</time>
      </trkpt>
      <trkpt lat="44.55843" lon="0.95973">
        <ele>153.95</ele>
        <time>2015-11-28T14:42:21Z</time>
      </trkpt>
      <trkpt lat="44.55846" lon="0.95966">
        <ele>152.99</ele>
        <time>2015-11-28T14:42:22Z</time>
      </trkpt>
      <trkpt lat="44.55849" lon="0.95959">
        <ele>152.03</ele>
        <time>2015-11-28T14:42:23Z</time>
      </trkpt>
      <trkpt lat="44.55869" lon="0.95933">
        <ele>148.66</ele>
        <time>2015-11-28T14:42:27Z</time>
      </trkpt>
      <trkpt lat="44.55878" lon="0.95917">
        <ele>146.26</ele>
        <time>2015-11-28T14:42:29Z</time>
      </trkpt>
      <trkpt lat="44.55883" lon="0.95912">
        <ele>145.3</ele>
        <time>2015-11-28T14:42:30Z</time>
      </trkpt>
      <trkpt lat="44.55888" lon="0.95908">
        <ele>144.34</ele>
        <time>2015-11-28T14:42:31Z</time>
      </trkpt>
      <trkpt lat="44.55894" lon="0.95905">
        <ele>143.37</ele>
        <time>2015-11-28T14:42:32Z</time>
      </trkpt>
      <trkpt lat="44.55899" lon="0.95902">
        <ele>142.41</ele>
        <time>2015-11-28T14:42:33Z</time>
      </trkpt>
      <trkpt lat="44.55905" lon="0.95899">
        <ele>141.45</ele>
        <time>2015-11-28T14:42:34Z</time>
      </trkpt>
      <trkpt lat="44.55917" lon="0.95893">
        <ele>140.49</ele>
        <time>2015-11-28T14:42:36Z</time>
      </trkpt>
      <trkpt lat="44.55987" lon="0.95872">
        <ele>138.57</ele>
        <time>2015-11-28T14:42:47Z</time>
      </trkpt>
      <trkpt lat="44.55993" lon="0.95869">
        <ele>138.09</ele>
        <time>2015-11-28T14:42:48Z</time>
      </trkpt>
      <trkpt lat="44.56012" lon="0.95857">
        <ele>137.13</ele>
        <time>2015-11-28T14:42:51Z</time>
      </trkpt>
      <trkpt lat="44.56076" lon="0.95778">
        <ele>129.43</ele>
        <time>2015-11-28T14:43:01Z</time>
      </trkpt>
      <trkpt lat="44.56083" lon="0.95767">
        <ele>127.51</ele>
        <time>2015-11-28T14:43:02Z</time>
      </trkpt>
      <trkpt lat="44.5609" lon="0.95755">
        <ele>126.07</ele>
        <time>2015-11-28T14:43:03Z</time>
      </trkpt>
      <trkpt lat="44.56096" lon="0.95741">
        <ele>124.63</ele>
        <time>2015-11-28T14:43:04Z</time>
      </trkpt>
      <trkpt lat="44.56154" lon="0.95582">
        <ele>115.5</ele>
        <time>2015-11-28T14:43:16Z</time>
      </trkpt>
      <trkpt lat="44.56162" lon="0.9555">
        <ele>113.57</ele>
        <time>2015-11-28T14:43:22Z</time>
      </trkpt>
      <trkpt lat="44.56157" lon="0.95543">
        <ele>112.13</ele>
        <time>2015-11-28T14:43:26Z</time>
      </trkpt>
      <trkpt lat="44.5613" lon="0.95534">
        <ele>112.13</ele>
        <time>2015-11-28T14:43:35Z</time>
      </trkpt>
      <trkpt lat="44.56125" lon="0.95532">
        <ele>111.65</ele>
        <time>2015-11-28T14:43:36Z</time>
      </trkpt>
      <trkpt lat="44.56092" lon="0.95515">
        <ele>110.21</ele>
        <time>2015-11-28T14:43:42Z</time>
      </trkpt>
      <trkpt lat="44.56087" lon="0.95512">
        <ele>110.21</ele>
        <time>2015-11-28T14:43:43Z</time>
      </trkpt>
      <trkpt lat="44.56052" lon="0.95494">
        <ele>110.69</ele>
        <time>2015-11-28T14:43:50Z</time>
      </trkpt>
      <trkpt lat="44.56047" lon="0.95492">
        <ele>111.17</ele>
        <time>2015-11-28T14:43:51Z</time>
      </trkpt>
      <trkpt lat="44.56041" lon="0.95492">
        <ele>111.17</ele>
        <time>2015-11-28T14:43:52Z</time>
      </trkpt>
      <trkpt lat="44.56026" lon="0.95491">
        <ele>112.13</ele>
        <time>2015-11-28T14:43:55Z</time>
      </trkpt>
      <trkpt lat="44.56021" lon="0.95492">
        <ele>112.61</ele>
        <time>2015-11-28T14:43:56Z</time>
      </trkpt>
      <trkpt lat="44.55992" lon="0.95499">
        <ele>113.09</ele>
        <time>2015-11-28T14:44:02Z</time>
      </trkpt>
      <trkpt lat="44.55987" lon="0.95498">
        <ele>113.09</ele>
        <time>2015-11-28T14:44:03Z</time>
      </trkpt>
      <trkpt lat="44.55977" lon="0.95496">
        <ele>113.09</ele>
        <time>2015-11-28T14:44:05Z</time>
      </trkpt>
      <trkpt lat="44.55972" lon="0.95494">
        <ele>113.09</ele>
        <time>2015-11-28T14:44:06Z</time>
      </trkpt>
      <trkpt lat="44.55967" lon="0.95492">
        <ele>113.09</ele>
        <time>2015-11-28T14:44:07Z</time>
      </trkpt>
      <trkpt lat="44.55963" lon="0.95488">
        <ele>113.09</ele>
        <time>2015-11-28T14:44:08Z</time>
      </trkpt>
      <trkpt lat="44.55958" lon="0.95484">
        <ele>113.57</ele>
        <time>2015-11-28T14:44:09Z</time>
      </trkpt>
      <trkpt lat="44.55939" lon="0.95463">
        <ele>114.53</ele>
        <time>2015-11-28T14:44:14Z</time>
      </trkpt>
      <trkpt lat="44.55894" lon="0.95409">
        <ele>118.86</ele>
        <time>2015-11-28T14:44:28Z</time>
      </trkpt>
      <trkpt lat="44.55885" lon="0.95397">
        <ele>119.34</ele>
        <time>2015-11-28T14:44:31Z</time>
      </trkpt>
      <trkpt lat="44.55852" lon="0.95352">
        <ele>121.26</ele>
        <time>2015-11-28T14:44:44Z</time>
      </trkpt>
      <trkpt lat="44.55836" lon="0.95327">
        <ele>120.78</ele>
        <time>2015-11-28T14:44:50Z</time>
      </trkpt>
      <trkpt lat="44.55814" lon="0.95298">
        <ele>119.34</ele>
        <time>2015-11-28T14:44:56Z</time>
      </trkpt>
      <trkpt lat="44.5581" lon="0.95293">
        <ele>118.86</ele>
        <time>2015-11-28T14:44:57Z</time>
      </trkpt>
      <trkpt lat="44.55806" lon="0.95288">
        <ele>118.86</ele>
        <time>2015-11-28T14:44:58Z</time>
      </trkpt>
      <trkpt lat="44.55802" lon="0.95283">
        <ele>118.38</ele>
        <time>2015-11-28T14:44:59Z</time>
      </trkpt>
      <trkpt lat="44.55798" lon="0.95278">
        <ele>118.38</ele>
        <time>2015-11-28T14:45:00Z</time>
      </trkpt>
      <trkpt lat="44.55794" lon="0.95273">
        <ele>118.38</ele>
        <time>2015-11-28T14:45:01Z</time>
      </trkpt>
      <trkpt lat="44.5579" lon="0.95268">
        <ele>117.9</ele>
        <time>2015-11-28T14:45:02Z</time>
      </trkpt>
      <trkpt lat="44.5571" lon="0.95196">
        <ele>113.09</ele>
        <time>2015-11-28T14:45:17Z</time>
      </trkpt>
      <trkpt lat="44.55674" lon="0.95165">
        <ele>110.21</ele>
        <time>2015-11-28T14:45:23Z</time>
      </trkpt>
      <trkpt lat="44.55634" lon="0.95122">
        <ele>108.29</ele>
        <time>2015-11-28T14:45:30Z</time>
      </trkpt>
      <trkpt lat="44.55576" lon="0.95042">
        <ele>106.84</ele>
        <time>2015-11-28T14:45:43Z</time>
      </trkpt>
      <trkpt lat="44.55564" lon="0.95023">
        <ele>105.88</ele>
        <time>2015-11-28T14:45:46Z</time>
      </trkpt>
      <trkpt lat="44.55555" lon="0.95012">
        <ele>105.88</ele>
        <time>2015-11-28T14:45:48Z</time>
      </trkpt>
      <trkpt lat="44.55551" lon="0.95007">
        <ele>105.88</ele>
        <time>2015-11-28T14:45:49Z</time>
      </trkpt>
      <trkpt lat="44.55546" lon="0.95002">
        <ele>105.88</ele>
        <time>2015-11-28T14:45:50Z</time>
      </trkpt>
      <trkpt lat="44.55536" lon="0.94996">
        <ele>106.36</ele>
        <time>2015-11-28T14:45:52Z</time>
      </trkpt>
      <trkpt lat="44.55531" lon="0.94994">
        <ele>106.84</ele>
        <time>2015-11-28T14:45:53Z</time>
      </trkpt>
      <trkpt lat="44.55526" lon="0.94992">
        <ele>106.84</ele>
        <time>2015-11-28T14:45:54Z</time>
      </trkpt>
      <trkpt lat="44.5552" lon="0.9499">
        <ele>106.84</ele>
        <time>2015-11-28T14:45:55Z</time>
      </trkpt>
      <trkpt lat="44.55515" lon="0.94988">
        <ele>107.32</ele>
        <time>2015-11-28T14:45:56Z</time>
      </trkpt>
      <trkpt lat="44.5551" lon="0.94986">
        <ele>107.32</ele>
        <time>2015-11-28T14:45:57Z</time>
      </trkpt>
      <trkpt lat="44.55505" lon="0.94985">
        <ele>107.81</ele>
        <time>2015-11-28T14:45:58Z</time>
      </trkpt>
      <trkpt lat="44.55429" lon="0.94959">
        <ele>105.4</ele>
        <time>2015-11-28T14:46:11Z</time>
      </trkpt>
      <trkpt lat="44.55391" lon="0.94956">
        <ele>103.96</ele>
        <time>2015-11-28T14:46:21Z</time>
      </trkpt>
      <trkpt lat="44.5539" lon="0.94956">
        <ele>105.88</ele>
        <time>2015-11-28T14:46:40Z</time>
      </trkpt>
      <trkpt lat="44.55377" lon="0.94961">
        <ele>105.4</ele>
        <time>2015-11-28T14:46:55Z</time>
      </trkpt>
      <trkpt lat="44.55348" lon="0.94982">
        <ele>105.4</ele>
        <time>2015-11-28T14:47:07Z</time>
      </trkpt>
      <trkpt lat="44.55343" lon="0.9499">
        <ele>104.92</ele>
        <time>2015-11-28T14:47:09Z</time>
      </trkpt>
      <trkpt lat="44.55333" lon="0.95002">
        <ele>104.44</ele>
        <time>2015-11-28T14:47:12Z</time>
      </trkpt>
      <trkpt lat="44.55328" lon="0.95005">
        <ele>104.44</ele>
        <time>2015-11-28T14:47:13Z</time>
      </trkpt>
      <trkpt lat="44.55323" lon="0.95007">
        <ele>104.44</ele>
        <time>2015-11-28T14:47:14Z</time>
      </trkpt>
      <trkpt lat="44.55285" lon="0.95023">
        <ele>102.52</ele>
        <time>2015-11-28T14:47:22Z</time>
      </trkpt>
      <trkpt lat="44.55281" lon="0.95025">
        <ele>102.52</ele>
        <time>2015-11-28T14:47:23Z</time>
      </trkpt>
      <trkpt lat="44.55277" lon="0.95027">
        <ele>102.52</ele>
        <time>2015-11-28T14:47:24Z</time>
      </trkpt>
      <trkpt lat="44.55242" lon="0.95039">
        <ele>105.88</ele>
        <time>2015-11-28T14:47:37Z</time>
      </trkpt>
      <trkpt lat="44.55212" lon="0.95035">
        <ele>114.53</ele>
        <time>2015-11-28T14:47:52Z</time>
      </trkpt>
      <trkpt lat="44.55197" lon="0.95033">
        <ele>119.82</ele>
        <time>2015-11-28T14:48:01Z</time>
      </trkpt>
      <trkpt lat="44.55195" lon="0.95033">
        <ele>119.82</ele>
        <time>2015-11-28T14:48:02Z</time>
      </trkpt>
      <trkpt lat="44.55193" lon="0.95033">
        <ele>120.78</ele>
        <time>2015-11-28T14:48:03Z</time>
      </trkpt>
      <trkpt lat="44.55192" lon="0.95032">
        <ele>121.74</ele>
        <time>2015-11-28T14:48:04Z</time>
      </trkpt>
      <trkpt lat="44.5519" lon="0.95032">
        <ele>122.22</ele>
        <time>2015-11-28T14:48:05Z</time>
      </trkpt>
      <trkpt lat="44.55189" lon="0.95031">
        <ele>122.71</ele>
        <time>2015-11-28T14:48:06Z</time>
      </trkpt>
      <trkpt lat="44.55187" lon="0.95031">
        <ele>123.19</ele>
        <time>2015-11-28T14:48:07Z</time>
      </trkpt>
      <trkpt lat="44.55181" lon="0.9503">
        <ele>125.11</ele>
        <time>2015-11-28T14:48:11Z</time>
      </trkpt>
      <trkpt lat="44.5518" lon="0.95031">
        <ele>125.59</ele>
        <time>2015-11-28T14:48:12Z</time>
      </trkpt>
      <trkpt lat="44.55178" lon="0.9503">
        <ele>126.07</ele>
        <time>2015-11-28T14:48:13Z</time>
      </trkpt>
      <trkpt lat="44.55176" lon="0.9503">
        <ele>127.03</ele>
        <time>2015-11-28T14:48:14Z</time>
      </trkpt>
      <trkpt lat="44.55175" lon="0.95029">
        <ele>127.51</ele>
        <time>2015-11-28T14:48:15Z</time>
      </trkpt>
      <trkpt lat="44.55174" lon="0.95028">
        <ele>128.47</ele>
        <time>2015-11-28T14:48:16Z</time>
      </trkpt>
      <trkpt lat="44.55172" lon="0.95028">
        <ele>129.43</ele>
        <time>2015-11-28T14:48:17Z</time>
      </trkpt>
      <trkpt lat="44.55169" lon="0.95027">
        <ele>129.92</ele>
        <time>2015-11-28T14:48:18Z</time>
      </trkpt>
      <trkpt lat="44.55167" lon="0.95027">
        <ele>130.4</ele>
        <time>2015-11-28T14:48:19Z</time>
      </trkpt>
      <trkpt lat="44.55165" lon="0.95026">
        <ele>131.36</ele>
        <time>2015-11-28T14:48:20Z</time>
      </trkpt>
      <trkpt lat="44.55163" lon="0.95026">
        <ele>131.84</ele>
        <time>2015-11-28T14:48:21Z</time>
      </trkpt>
      <trkpt lat="44.55161" lon="0.95025">
        <ele>132.32</ele>
        <time>2015-11-28T14:48:22Z</time>
      </trkpt>
      <trkpt lat="44.55159" lon="0.95025">
        <ele>132.32</ele>
        <time>2015-11-28T14:48:23Z</time>
      </trkpt>
      <trkpt lat="44.55156" lon="0.95024">
        <ele>132.32</ele>
        <time>2015-11-28T14:48:24Z</time>
      </trkpt>
      <trkpt lat="44.55142" lon="0.95021">
        <ele>132.32</ele>
        <time>2015-11-28T14:48:30Z</time>
      </trkpt>
      <trkpt lat="44.5514" lon="0.9502">
        <ele>132.8</ele>
        <time>2015-11-28T14:48:31Z</time>
      </trkpt>
      <trkpt lat="44.55139" lon="0.9502">
        <ele>132.8</ele>
        <time>2015-11-28T14:48:32Z</time>
      </trkpt>
      <trkpt lat="44.55118" lon="0.95023">
        <ele>135.68</ele>
        <time>2015-11-28T14:48:45Z</time>
      </trkpt>
      <trkpt lat="44.55091" lon="0.95031">
        <ele>134.72</ele>
        <time>2015-11-28T14:48:58Z</time>
      </trkpt>
      <trkpt lat="44.55055" lon="0.95041">
        <ele>129.43</ele>
        <time>2015-11-28T14:49:10Z</time>
      </trkpt>
      <trkpt lat="44.5503" lon="0.9504">
        <ele>134.72</ele>
        <time>2015-11-28T14:49:25Z</time>
      </trkpt>
      <trkpt lat="44.55001" lon="0.9504">
        <ele>134.72</ele>
        <time>2015-11-28T14:49:38Z</time>
      </trkpt>
      <trkpt lat="44.54978" lon="0.9504">
        <ele>130.4</ele>
        <time>2015-11-28T14:49:54Z</time>
      </trkpt>
      <trkpt lat="44.54977" lon="0.9504">
        <ele>129.92</ele>
        <time>2015-11-28T14:50:11Z</time>
      </trkpt>
      <trkpt lat="44.54964" lon="0.95036">
        <ele>127.99</ele>
        <time>2015-11-28T14:50:26Z</time>
      </trkpt>
      <trkpt lat="44.54962" lon="0.95035">
        <ele>128.47</ele>
        <time>2015-11-28T14:50:27Z</time>
      </trkpt>
      <trkpt lat="44.5496" lon="0.95034">
        <ele>128.47</ele>
        <time>2015-11-28T14:50:28Z</time>
      </trkpt>
      <trkpt lat="44.54958" lon="0.95034">
        <ele>128.95</ele>
        <time>2015-11-28T14:50:29Z</time>
      </trkpt>
      <trkpt lat="44.5494" lon="0.95026">
        <ele>131.36</ele>
        <time>2015-11-28T14:50:40Z</time>
      </trkpt>
      <trkpt lat="44.54934" lon="0.95024">
        <ele>131.36</ele>
        <time>2015-11-28T14:50:44Z</time>
      </trkpt>
      <trkpt lat="44.54932" lon="0.95023">
        <ele>130.88</ele>
        <time>2015-11-28T14:50:45Z</time>
      </trkpt>
      <trkpt lat="44.54929" lon="0.95022">
        <ele>130.4</ele>
        <time>2015-11-28T14:50:46Z</time>
      </trkpt>
      <trkpt lat="44.54891" lon="0.95004">
        <ele>127.99</ele>
        <time>2015-11-28T14:50:54Z</time>
      </trkpt>
      <trkpt lat="44.54862" lon="0.94989">
        <ele>127.51</ele>
        <time>2015-11-28T14:50:59Z</time>
      </trkpt>
      <trkpt lat="44.54857" lon="0.94986">
        <ele>127.03</ele>
        <time>2015-11-28T14:51:00Z</time>
      </trkpt>
      <trkpt lat="44.54851" lon="0.94984">
        <ele>127.03</ele>
        <time>2015-11-28T14:51:01Z</time>
      </trkpt>
      <trkpt lat="44.54845" lon="0.94983">
        <ele>126.55</ele>
        <time>2015-11-28T14:51:02Z</time>
      </trkpt>
      <trkpt lat="44.54828" lon="0.94979">
        <ele>125.11</ele>
        <time>2015-11-28T14:51:06Z</time>
      </trkpt>
      <trkpt lat="44.54791" lon="0.9497">
        <ele>121.74</ele>
        <time>2015-11-28T14:51:13Z</time>
      </trkpt>
      <trkpt lat="44.54767" lon="0.94973">
        <ele>118.86</ele>
        <time>2015-11-28T14:51:17Z</time>
      </trkpt>
      <trkpt lat="44.54747" lon="0.9498">
        <ele>115.98</ele>
        <time>2015-11-28T14:51:20Z</time>
      </trkpt>
      <trkpt lat="44.54729" lon="0.94989">
        <ele>114.53</ele>
        <time>2015-11-28T14:51:23Z</time>
      </trkpt>
      <trkpt lat="44.54707" lon="0.9499">
        <ele>112.61</ele>
        <time>2015-11-28T14:51:27Z</time>
      </trkpt>
      <trkpt lat="44.54681" lon="0.94991">
        <ele>111.17</ele>
        <time>2015-11-28T14:51:32Z</time>
      </trkpt>
      <trkpt lat="44.54671" lon="0.94989">
        <ele>110.69</ele>
        <time>2015-11-28T14:51:34Z</time>
      </trkpt>
      <trkpt lat="44.54658" lon="0.94988">
        <ele>109.25</ele>
        <time>2015-11-28T14:51:37Z</time>
      </trkpt>
      <trkpt lat="44.54651" lon="0.94981">
        <ele>107.32</ele>
        <time>2015-11-28T14:51:39Z</time>
      </trkpt>
      <trkpt lat="44.5463" lon="0.94967">
        <ele>103.48</ele>
        <time>2015-11-28T14:51:44Z</time>
      </trkpt>
      <trkpt lat="44.5462" lon="0.94954">
        <ele>101.56</ele>
        <time>2015-11-28T14:51:49Z</time>
      </trkpt>
      <trkpt lat="44.54596" lon="0.94959">
        <ele>100.6</ele>
        <time>2015-11-28T14:51:57Z</time>
      </trkpt>
      <trkpt lat="44.54586" lon="0.94947">
        <ele>101.08</ele>
        <time>2015-11-28T14:52:02Z</time>
      </trkpt>
      <trkpt lat="44.54584" lon="0.94945">
        <ele>101.08</ele>
        <time>2015-11-28T14:52:03Z</time>
      </trkpt>
      <trkpt lat="44.54583" lon="0.94943">
        <ele>101.56</ele>
        <time>2015-11-28T14:52:04Z</time>
      </trkpt>
      <trkpt lat="44.5458" lon="0.94941">
        <ele>101.56</ele>
        <time>2015-11-28T14:52:05Z</time>
      </trkpt>
      <trkpt lat="44.54579" lon="0.94938">
        <ele>102.04</ele>
        <time>2015-11-28T14:52:06Z</time>
      </trkpt>
      <trkpt lat="44.54578" lon="0.94937">
        <ele>105.4</ele>
        <time>2015-11-28T14:52:14Z</time>
      </trkpt>
      <trkpt lat="44.54575" lon="0.94942">
        <ele>105.88</ele>
        <time>2015-11-28T14:52:38Z</time>
      </trkpt>
      <trkpt lat="44.54572" lon="0.9495">
        <ele>108.77</ele>
        <time>2015-11-28T14:53:14Z</time>
      </trkpt>
      <trkpt lat="44.54572" lon="0.94949">
        <ele>107.32</ele>
        <time>2015-11-28T14:53:45Z</time>
      </trkpt>
      <trkpt lat="44.54572" lon="0.9495">
        <ele>105.4</ele>
        <time>2015-11-28T14:54:21Z</time>
      </trkpt>
      <trkpt lat="44.54572" lon="0.94953">
        <ele>108.77</ele>
        <time>2015-11-28T14:54:52Z</time>
      </trkpt>
      <trkpt lat="44.54573" lon="0.94955">
        <ele>108.77</ele>
        <time>2015-11-28T14:55:22Z</time>
      </trkpt>
      <trkpt lat="44.54573" lon="0.94954">
        <ele>109.25</ele>
        <time>2015-11-28T14:55:47Z</time>
      </trkpt>
      <trkpt lat="44.54573" lon="0.94954">
        <ele>108.29</ele>
        <time>2015-11-28T14:56:14Z</time>
      </trkpt>
      <trkpt lat="44.54574" lon="0.94954">
        <ele>107.81</ele>
        <time>2015-11-28T14:56:46Z</time>
      </trkpt>
      <trkpt lat="44.54574" lon="0.94952">
        <ele>108.29</ele>
        <time>2015-11-28T14:57:17Z</time>
      </trkpt>
      <trkpt lat="44.54574" lon="0.94952">
        <ele>109.25</ele>
        <time>2015-11-28T14:57:41Z</time>
      </trkpt>
      <trkpt lat="44.54575" lon="0.94951">
        <ele>110.21</ele>
        <time>2015-11-28T14:58:11Z</time>
      </trkpt>
      <trkpt lat="44.54574" lon="0.94955">
        <ele>111.65</ele>
        <time>2015-11-28T14:58:40Z</time>
      </trkpt>
      <trkpt lat="44.54573" lon="0.94956">
        <ele>112.61</ele>
        <time>2015-11-28T14:59:12Z</time>
      </trkpt>
      <trkpt lat="44.54572" lon="0.94957">
        <ele>113.09</ele>
        <time>2015-11-28T14:59:41Z</time>
      </trkpt>
      <trkpt lat="44.54572" lon="0.94958">
        <ele>113.09</ele>
        <time>2015-11-28T15:00:12Z</time>
      </trkpt>
      <trkpt lat="44.54571" lon="0.94957">
        <ele>113.09</ele>
        <time>2015-11-28T15:00:36Z</time>
      </trkpt>
      <trkpt lat="44.54571" lon="0.94958">
        <ele>113.09</ele>
        <time>2015-11-28T15:01:05Z</time>
      </trkpt>
      <trkpt lat="44.54572" lon="0.94956">
        <ele>114.05</ele>
        <time>2015-11-28T15:01:29Z</time>
      </trkpt>
      <trkpt lat="44.54572" lon="0.94955">
        <ele>114.05</ele>
        <time>2015-11-28T15:01:30Z</time>
      </trkpt>
      <trkpt lat="44.54569" lon="0.94947">
        <ele>111.17</ele>
        <time>2015-11-28T15:01:35Z</time>
      </trkpt>
      <trkpt lat="44.54553" lon="0.94938">
        <ele>105.88</ele>
        <time>2015-11-28T15:01:49Z</time>
      </trkpt>
      <trkpt lat="44.54535" lon="0.94936">
        <ele>104.44</ele>
        <time>2015-11-28T15:02:01Z</time>
      </trkpt>
      <trkpt lat="44.54534" lon="0.94935">
        <ele>104.44</ele>
        <time>2015-11-28T15:02:02Z</time>
      </trkpt>
      <trkpt lat="44.54537" lon="0.94914">
        <ele>102.04</ele>
        <time>2015-11-28T15:02:14Z</time>
      </trkpt>
      <trkpt lat="44.54558" lon="0.94882">
        <ele>100.6</ele>
        <time>2015-11-28T15:02:30Z</time>
      </trkpt>
      <trkpt lat="44.54559" lon="0.94881">
        <ele>100.6</ele>
        <time>2015-11-28T15:02:31Z</time>
      </trkpt>
      <trkpt lat="44.54561" lon="0.94878">
        <ele>98.67</ele>
        <time>2015-11-28T15:02:44Z</time>
      </trkpt>
      <trkpt lat="44.5456" lon="0.94877">
        <ele>98.67</ele>
        <time>2015-11-28T15:02:45Z</time>
      </trkpt>
      <trkpt lat="44.54558" lon="0.94874">
        <ele>98.67</ele>
        <time>2015-11-28T15:02:46Z</time>
      </trkpt>
      <trkpt lat="44.54556" lon="0.94873">
        <ele>98.67</ele>
        <time>2015-11-28T15:02:47Z</time>
      </trkpt>
      <trkpt lat="44.54553" lon="0.94872">
        <ele>98.67</ele>
        <time>2015-11-28T15:02:48Z</time>
      </trkpt>
      <trkpt lat="44.5455" lon="0.9487">
        <ele>98.67</ele>
        <time>2015-11-28T15:02:49Z</time>
      </trkpt>
      <trkpt lat="44.54548" lon="0.94868">
        <ele>98.67</ele>
        <time>2015-11-28T15:02:50Z</time>
      </trkpt>
      <trkpt lat="44.54546" lon="0.94864">
        <ele>98.19</ele>
        <time>2015-11-28T15:02:51Z</time>
      </trkpt>
      <trkpt lat="44.54545" lon="0.9486">
        <ele>98.19</ele>
        <time>2015-11-28T15:02:52Z</time>
      </trkpt>
      <trkpt lat="44.54546" lon="0.94856">
        <ele>98.19</ele>
        <time>2015-11-28T15:02:53Z</time>
      </trkpt>
      <trkpt lat="44.54546" lon="0.94851">
        <ele>98.19</ele>
        <time>2015-11-28T15:02:54Z</time>
      </trkpt>
      <trkpt lat="44.54547" lon="0.94847">
        <ele>98.19</ele>
        <time>2015-11-28T15:02:55Z</time>
      </trkpt>
      <trkpt lat="44.54565" lon="0.94796">
        <ele>101.56</ele>
        <time>2015-11-28T15:03:11Z</time>
      </trkpt>
      <trkpt lat="44.54581" lon="0.94751">
        <ele>105.88</ele>
        <time>2015-11-28T15:03:28Z</time>
      </trkpt>
      <trkpt lat="44.54596" lon="0.94717">
        <ele>107.32</ele>
        <time>2015-11-28T15:03:42Z</time>
      </trkpt>
      <trkpt lat="44.54614" lon="0.94677">
        <ele>111.17</ele>
        <time>2015-11-28T15:03:57Z</time>
      </trkpt>
      <trkpt lat="44.54632" lon="0.94655">
        <ele>114.05</ele>
        <time>2015-11-28T15:04:08Z</time>
      </trkpt>
      <trkpt lat="44.54651" lon="0.94624">
        <ele>119.34</ele>
        <time>2015-11-28T15:04:21Z</time>
      </trkpt>
      <trkpt lat="44.54654" lon="0.94582">
        <ele>123.67</ele>
        <time>2015-11-28T15:04:34Z</time>
      </trkpt>
      <trkpt lat="44.54633" lon="0.94555">
        <ele>120.3</ele>
        <time>2015-11-28T15:04:43Z</time>
      </trkpt>
      <trkpt lat="44.54599" lon="0.94535">
        <ele>114.53</ele>
        <time>2015-11-28T15:04:54Z</time>
      </trkpt>
      <trkpt lat="44.54595" lon="0.94533">
        <ele>113.09</ele>
        <time>2015-11-28T15:05:10Z</time>
      </trkpt>
      <trkpt lat="44.54594" lon="0.94532">
        <ele>112.61</ele>
        <time>2015-11-28T15:05:11Z</time>
      </trkpt>
      <trkpt lat="44.54593" lon="0.9453">
        <ele>112.61</ele>
        <time>2015-11-28T15:05:12Z</time>
      </trkpt>
      <trkpt lat="44.54591" lon="0.94529">
        <ele>112.13</ele>
        <time>2015-11-28T15:05:13Z</time>
      </trkpt>
      <trkpt lat="44.54588" lon="0.94529">
        <ele>111.65</ele>
        <time>2015-11-28T15:05:14Z</time>
      </trkpt>
      <trkpt lat="44.54585" lon="0.94528">
        <ele>111.17</ele>
        <time>2015-11-28T15:05:15Z</time>
      </trkpt>
      <trkpt lat="44.54581" lon="0.94526">
        <ele>110.69</ele>
        <time>2015-11-28T15:05:16Z</time>
      </trkpt>
      <trkpt lat="44.54577" lon="0.94524">
        <ele>110.21</ele>
        <time>2015-11-28T15:05:17Z</time>
      </trkpt>
      <trkpt lat="44.54573" lon="0.94522">
        <ele>109.73</ele>
        <time>2015-11-28T15:05:18Z</time>
      </trkpt>
      <trkpt lat="44.5456" lon="0.94511">
        <ele>108.29</ele>
        <time>2015-11-28T15:05:21Z</time>
      </trkpt>
      <trkpt lat="44.54556" lon="0.94506">
        <ele>107.81</ele>
        <time>2015-11-28T15:05:22Z</time>
      </trkpt>
      <trkpt lat="44.54552" lon="0.945">
        <ele>106.84</ele>
        <time>2015-11-28T15:05:23Z</time>
      </trkpt>
      <trkpt lat="44.54549" lon="0.94492">
        <ele>106.36</ele>
        <time>2015-11-28T15:05:24Z</time>
      </trkpt>
      <trkpt lat="44.54547" lon="0.94484">
        <ele>105.88</ele>
        <time>2015-11-28T15:05:25Z</time>
      </trkpt>
      <trkpt lat="44.54546" lon="0.94475">
        <ele>105.4</ele>
        <time>2015-11-28T15:05:26Z</time>
      </trkpt>
      <trkpt lat="44.54545" lon="0.94467">
        <ele>105.4</ele>
        <time>2015-11-28T15:05:27Z</time>
      </trkpt>
      <trkpt lat="44.54543" lon="0.9446">
        <ele>104.92</ele>
        <time>2015-11-28T15:05:28Z</time>
      </trkpt>
      <trkpt lat="44.54541" lon="0.94453">
        <ele>104.44</ele>
        <time>2015-11-28T15:05:29Z</time>
      </trkpt>
      <trkpt lat="44.54538" lon="0.94445">
        <ele>103.96</ele>
        <time>2015-11-28T15:05:30Z</time>
      </trkpt>
      <trkpt lat="44.54531" lon="0.9442">
        <ele>101.56</ele>
        <time>2015-11-28T15:05:33Z</time>
      </trkpt>
      <trkpt lat="44.54529" lon="0.94412">
        <ele>101.08</ele>
        <time>2015-11-28T15:05:34Z</time>
      </trkpt>
      <trkpt lat="44.54527" lon="0.94405">
        <ele>100.6</ele>
        <time>2015-11-28T15:05:35Z</time>
      </trkpt>
      <trkpt lat="44.54521" lon="0.9439">
        <ele>99.63</ele>
        <time>2015-11-28T15:05:37Z</time>
      </trkpt>
      <trkpt lat="44.54514" lon="0.94377">
        <ele>98.19</ele>
        <time>2015-11-28T15:05:39Z</time>
      </trkpt>
      <trkpt lat="44.54495" lon="0.94351">
        <ele>96.75</ele>
        <time>2015-11-28T15:05:44Z</time>
      </trkpt>
      <trkpt lat="44.54491" lon="0.94348">
        <ele>96.75</ele>
        <time>2015-11-28T15:05:45Z</time>
      </trkpt>
      <trkpt lat="44.54489" lon="0.94345">
        <ele>96.75</ele>
        <time>2015-11-28T15:05:46Z</time>
      </trkpt>
      <trkpt lat="44.54487" lon="0.94342">
        <ele>96.27</ele>
        <time>2015-11-28T15:05:47Z</time>
      </trkpt>
      <trkpt lat="44.54485" lon="0.9434">
        <ele>96.27</ele>
        <time>2015-11-28T15:05:48Z</time>
      </trkpt>
      <trkpt lat="44.54459" lon="0.94314">
        <ele>94.35</ele>
        <time>2015-11-28T15:05:56Z</time>
      </trkpt>
      <trkpt lat="44.54454" lon="0.94309">
        <ele>94.35</ele>
        <time>2015-11-28T15:05:57Z</time>
      </trkpt>
      <trkpt lat="44.54415" lon="0.94266">
        <ele>91.46</ele>
        <time>2015-11-28T15:06:06Z</time>
      </trkpt>
      <trkpt lat="44.54409" lon="0.94256">
        <ele>91.46</ele>
        <time>2015-11-28T15:06:08Z</time>
      </trkpt>
      <trkpt lat="44.54406" lon="0.9425">
        <ele>90.98</ele>
        <time>2015-11-28T15:06:09Z</time>
      </trkpt>
      <trkpt lat="44.544" lon="0.94242">
        <ele>90.5</ele>
        <time>2015-11-28T15:06:11Z</time>
      </trkpt>
      <trkpt lat="44.54386" lon="0.94229">
        <ele>90.5</ele>
        <time>2015-11-28T15:06:15Z</time>
      </trkpt>
      <trkpt lat="44.54364" lon="0.94181">
        <ele>92.42</ele>
        <time>2015-11-28T15:06:28Z</time>
      </trkpt>
      <trkpt lat="44.54347" lon="0.94151">
        <ele>90.98</ele>
        <time>2015-11-28T15:06:38Z</time>
      </trkpt>
      <trkpt lat="44.543" lon="0.94142">
        <ele>91.46</ele>
        <time>2015-11-28T15:06:50Z</time>
      </trkpt>
      <trkpt lat="44.54262" lon="0.94142">
        <ele>92.42</ele>
        <time>2015-11-28T15:07:01Z</time>
      </trkpt>
      <trkpt lat="44.54238" lon="0.94144">
        <ele>92.42</ele>
        <time>2015-11-28T15:07:12Z</time>
      </trkpt>
      <trkpt lat="44.54233" lon="0.94149">
        <ele>91.94</ele>
        <time>2015-11-28T15:07:15Z</time>
      </trkpt>
      <trkpt lat="44.54227" lon="0.94157">
        <ele>92.42</ele>
        <time>2015-11-28T15:07:19Z</time>
      </trkpt>
      <trkpt lat="44.54222" lon="0.94209">
        <ele>98.19</ele>
        <time>2015-11-28T15:07:32Z</time>
      </trkpt>
      <trkpt lat="44.5422" lon="0.94271">
        <ele>97.71</ele>
        <time>2015-11-28T15:07:44Z</time>
      </trkpt>
      <trkpt lat="44.54219" lon="0.94277">
        <ele>97.71</ele>
        <time>2015-11-28T15:07:45Z</time>
      </trkpt>
      <trkpt lat="44.54218" lon="0.94282">
        <ele>97.71</ele>
        <time>2015-11-28T15:07:46Z</time>
      </trkpt>
      <trkpt lat="44.54205" lon="0.94314">
        <ele>97.71</ele>
        <time>2015-11-28T15:07:52Z</time>
      </trkpt>
      <trkpt lat="44.54199" lon="0.94323">
        <ele>98.19</ele>
        <time>2015-11-28T15:07:54Z</time>
      </trkpt>
      <trkpt lat="44.54196" lon="0.94326">
        <ele>98.19</ele>
        <time>2015-11-28T15:07:55Z</time>
      </trkpt>
      <trkpt lat="44.54193" lon="0.9433">
        <ele>98.67</ele>
        <time>2015-11-28T15:07:56Z</time>
      </trkpt>
      <trkpt lat="44.54191" lon="0.94335">
        <ele>99.15</ele>
        <time>2015-11-28T15:07:57Z</time>
      </trkpt>
      <trkpt lat="44.54189" lon="0.94339">
        <ele>99.63</ele>
        <time>2015-11-28T15:07:58Z</time>
      </trkpt>
      <trkpt lat="44.54187" lon="0.94344">
        <ele>100.11</ele>
        <time>2015-11-28T15:07:59Z</time>
      </trkpt>
      <trkpt lat="44.54184" lon="0.94348">
        <ele>100.6</ele>
        <time>2015-11-28T15:08:00Z</time>
      </trkpt>
      <trkpt lat="44.54159" lon="0.94379">
        <ele>101.08</ele>
        <time>2015-11-28T15:08:09Z</time>
      </trkpt>
      <trkpt lat="44.54125" lon="0.94406">
        <ele>100.6</ele>
        <time>2015-11-28T15:08:21Z</time>
      </trkpt>
      <trkpt lat="44.5408" lon="0.94436">
        <ele>99.63</ele>
        <time>2015-11-28T15:08:35Z</time>
      </trkpt>
      <trkpt lat="44.54052" lon="0.94454">
        <ele>100.11</ele>
        <time>2015-11-28T15:08:43Z</time>
      </trkpt>
      <trkpt lat="44.54032" lon="0.9446">
        <ele>99.15</ele>
        <time>2015-11-28T15:08:48Z</time>
      </trkpt>
      <trkpt lat="44.54015" lon="0.94464">
        <ele>99.15</ele>
        <time>2015-11-28T15:08:52Z</time>
      </trkpt>
      <trkpt lat="44.53939" lon="0.94474">
        <ele>96.27</ele>
        <time>2015-11-28T15:09:10Z</time>
      </trkpt>
      <trkpt lat="44.53871" lon="0.9443">
        <ele>92.9</ele>
        <time>2015-11-28T15:09:25Z</time>
      </trkpt>
      <trkpt lat="44.53802" lon="0.94382">
        <ele>95.31</ele>
        <time>2015-11-28T15:09:41Z</time>
      </trkpt>
      <trkpt lat="44.53747" lon="0.94355">
        <ele>95.31</ele>
        <time>2015-11-28T15:09:54Z</time>
      </trkpt>
      <trkpt lat="44.53726" lon="0.94339">
        <ele>94.35</ele>
        <time>2015-11-28T15:09:59Z</time>
      </trkpt>
      <trkpt lat="44.53704" lon="0.94336">
        <ele>93.87</ele>
        <time>2015-11-28T15:10:04Z</time>
      </trkpt>
      <trkpt lat="44.53666" lon="0.94325">
        <ele>92.42</ele>
        <time>2015-11-28T15:10:15Z</time>
      </trkpt>
      <trkpt lat="44.53633" lon="0.94305">
        <ele>92.9</ele>
        <time>2015-11-28T15:10:26Z</time>
      </trkpt>
      <trkpt lat="44.53593" lon="0.94283">
        <ele>93.87</ele>
        <time>2015-11-28T15:10:39Z</time>
      </trkpt>
      <trkpt lat="44.53586" lon="0.94279">
        <ele>94.83</ele>
        <time>2015-11-28T15:10:42Z</time>
      </trkpt>
      <trkpt lat="44.53584" lon="0.94276">
        <ele>95.31</ele>
        <time>2015-11-28T15:10:51Z</time>
      </trkpt>
      <trkpt lat="44.53584" lon="0.94274">
        <ele>95.79</ele>
        <time>2015-11-28T15:11:10Z</time>
      </trkpt>
      <trkpt lat="44.53586" lon="0.94273">
        <ele>95.79</ele>
        <time>2015-11-28T15:11:12Z</time>
      </trkpt>
      <trkpt lat="44.53587" lon="0.94273">
        <ele>95.79</ele>
        <time>2015-11-28T15:11:13Z</time>
      </trkpt>
      <trkpt lat="44.53588" lon="0.94273">
        <ele>95.79</ele>
        <time>2015-11-28T15:11:14Z</time>
      </trkpt>
      <trkpt lat="44.53589" lon="0.94271">
        <ele>95.79</ele>
        <time>2015-11-28T15:11:15Z</time>
      </trkpt>
      <trkpt lat="44.53591" lon="0.9427">
        <ele>95.79</ele>
        <time>2015-11-28T15:11:16Z</time>
      </trkpt>
      <trkpt lat="44.53607" lon="0.94222">
        <ele>95.79</ele>
        <time>2015-11-28T15:11:29Z</time>
      </trkpt>
      <trkpt lat="44.53611" lon="0.94176">
        <ele>95.31</ele>
        <time>2015-11-28T15:11:42Z</time>
      </trkpt>
      <trkpt lat="44.53613" lon="0.94163">
        <ele>95.79</ele>
        <time>2015-11-28T15:11:48Z</time>
      </trkpt>
      <trkpt lat="44.53613" lon="0.9416">
        <ele>95.79</ele>
        <time>2015-11-28T15:11:49Z</time>
      </trkpt>
      <trkpt lat="44.53613" lon="0.94156">
        <ele>95.79</ele>
        <time>2015-11-28T15:11:51Z</time>
      </trkpt>
      <trkpt lat="44.53612" lon="0.94154">
        <ele>96.27</ele>
        <time>2015-11-28T15:11:52Z</time>
      </trkpt>
      <trkpt lat="44.53606" lon="0.94142">
        <ele>97.71</ele>
        <time>2015-11-28T15:12:00Z</time>
      </trkpt>
      <trkpt lat="44.53606" lon="0.94135">
        <ele>100.11</ele>
        <time>2015-11-28T15:12:05Z</time>
      </trkpt>
      <trkpt lat="44.53606" lon="0.94133">
        <ele>100.6</ele>
        <time>2015-11-28T15:12:06Z</time>
      </trkpt>
      <trkpt lat="44.53606" lon="0.94129">
        <ele>102.52</ele>
        <time>2015-11-28T15:12:09Z</time>
      </trkpt>
      <trkpt lat="44.53605" lon="0.94124">
        <ele>103.48</ele>
        <time>2015-11-28T15:12:12Z</time>
      </trkpt>
      <trkpt lat="44.53605" lon="0.94122">
        <ele>103.48</ele>
        <time>2015-11-28T15:12:13Z</time>
      </trkpt>
      <trkpt lat="44.53605" lon="0.9412">
        <ele>103.48</ele>
        <time>2015-11-28T15:12:14Z</time>
      </trkpt>
      <trkpt lat="44.53605" lon="0.94117">
        <ele>103.48</ele>
        <time>2015-11-28T15:12:15Z</time>
      </trkpt>
      <trkpt lat="44.53605" lon="0.94116">
        <ele>103.48</ele>
        <time>2015-11-28T15:12:16Z</time>
      </trkpt>
      <trkpt lat="44.53604" lon="0.94112">
        <ele>104.44</ele>
        <time>2015-11-28T15:12:18Z</time>
      </trkpt>
      <trkpt lat="44.53602" lon="0.9411">
        <ele>105.4</ele>
        <time>2015-11-28T15:12:20Z</time>
      </trkpt>
      <trkpt lat="44.536" lon="0.94108">
        <ele>107.81</ele>
        <time>2015-11-28T15:12:34Z</time>
      </trkpt>
      <trkpt lat="44.536" lon="0.94108">
        <ele>107.32</ele>
        <time>2015-11-28T15:12:44Z</time>
      </trkpt>
      <trkpt lat="44.53586" lon="0.94109">
        <ele>111.17</ele>
        <time>2015-11-28T15:12:55Z</time>
      </trkpt>
      <trkpt lat="44.53584" lon="0.94109">
        <ele>111.65</ele>
        <time>2015-11-28T15:12:56Z</time>
      </trkpt>
      <trkpt lat="44.53561" lon="0.94112">
        <ele>114.53</ele>
        <time>2015-11-28T15:13:10Z</time>
      </trkpt>
      <trkpt lat="44.5354" lon="0.94112">
        <ele>118.38</ele>
        <time>2015-11-28T15:13:23Z</time>
      </trkpt>
      <trkpt lat="44.53522" lon="0.94106">
        <ele>123.19</ele>
        <time>2015-11-28T15:13:36Z</time>
      </trkpt>
      <trkpt lat="44.53521" lon="0.94106">
        <ele>123.67</ele>
        <time>2015-11-28T15:13:37Z</time>
      </trkpt>
      <trkpt lat="44.53519" lon="0.94105">
        <ele>123.67</ele>
        <time>2015-11-28T15:13:38Z</time>
      </trkpt>
      <trkpt lat="44.53518" lon="0.94104">
        <ele>124.15</ele>
        <time>2015-11-28T15:13:39Z</time>
      </trkpt>
      <trkpt lat="44.53517" lon="0.94104">
        <ele>124.15</ele>
        <time>2015-11-28T15:13:40Z</time>
      </trkpt>
      <trkpt lat="44.53501" lon="0.94101">
        <ele>124.63</ele>
        <time>2015-11-28T15:13:52Z</time>
      </trkpt>
      <trkpt lat="44.53491" lon="0.94093">
        <ele>123.67</ele>
        <time>2015-11-28T15:14:05Z</time>
      </trkpt>
      <trkpt lat="44.53493" lon="0.94095">
        <ele>122.22</ele>
        <time>2015-11-28T15:14:10Z</time>
      </trkpt>
      <trkpt lat="44.53497" lon="0.94098">
        <ele>122.22</ele>
        <time>2015-11-28T15:14:19Z</time>
      </trkpt>
      <trkpt lat="44.53499" lon="0.94098">
        <ele>122.71</ele>
        <time>2015-11-28T15:14:20Z</time>
      </trkpt>
      <trkpt lat="44.535" lon="0.94098">
        <ele>122.71</ele>
        <time>2015-11-28T15:14:21Z</time>
      </trkpt>
      <trkpt lat="44.53505" lon="0.94097">
        <ele>123.19</ele>
        <time>2015-11-28T15:14:34Z</time>
      </trkpt>
      <trkpt lat="44.53506" lon="0.94098">
        <ele>123.67</ele>
        <time>2015-11-28T15:14:43Z</time>
      </trkpt>
      <trkpt lat="44.53524" lon="0.94106">
        <ele>120.78</ele>
        <time>2015-11-28T15:14:53Z</time>
      </trkpt>
      <trkpt lat="44.5356" lon="0.94109">
        <ele>115.01</ele>
        <time>2015-11-28T15:14:58Z</time>
      </trkpt>
      <trkpt lat="44.53599" lon="0.94104">
        <ele>108.77</ele>
        <time>2015-11-28T15:15:06Z</time>
      </trkpt>
      <trkpt lat="44.53613" lon="0.94089">
        <ele>107.81</ele>
        <time>2015-11-28T15:15:15Z</time>
      </trkpt>
      <trkpt lat="44.53626" lon="0.94069">
        <ele>110.21</ele>
        <time>2015-11-28T15:15:27Z</time>
      </trkpt>
      <trkpt lat="44.53626" lon="0.94067">
        <ele>110.21</ele>
        <time>2015-11-28T15:15:28Z</time>
      </trkpt>
      <trkpt lat="44.53637" lon="0.94039">
        <ele>115.98</ele>
        <time>2015-11-28T15:15:42Z</time>
      </trkpt>
      <trkpt lat="44.53639" lon="0.94028">
        <ele>116.46</ele>
        <time>2015-11-28T15:15:49Z</time>
      </trkpt>
      <trkpt lat="44.5364" lon="0.94006">
        <ele>116.94</ele>
        <time>2015-11-28T15:16:05Z</time>
      </trkpt>
      <trkpt lat="44.53639" lon="0.94003">
        <ele>116.94</ele>
        <time>2015-11-28T15:16:08Z</time>
      </trkpt>
      <trkpt lat="44.53631" lon="0.93991">
        <ele>117.9</ele>
        <time>2015-11-28T15:16:23Z</time>
      </trkpt>
      <trkpt lat="44.53626" lon="0.93981">
        <ele>116.46</ele>
        <time>2015-11-28T15:16:35Z</time>
      </trkpt>
      <trkpt lat="44.53623" lon="0.93972">
        <ele>117.42</ele>
        <time>2015-11-28T15:16:46Z</time>
      </trkpt>
      <trkpt lat="44.5362" lon="0.93956">
        <ele>123.19</ele>
        <time>2015-11-28T15:17:02Z</time>
      </trkpt>
      <trkpt lat="44.5362" lon="0.93954">
        <ele>123.19</ele>
        <time>2015-11-28T15:17:20Z</time>
      </trkpt>
      <trkpt lat="44.53619" lon="0.93951">
        <ele>123.19</ele>
        <time>2015-11-28T15:17:41Z</time>
      </trkpt>
      <trkpt lat="44.53617" lon="0.93944">
        <ele>123.19</ele>
        <time>2015-11-28T15:17:49Z</time>
      </trkpt>
      <trkpt lat="44.53612" lon="0.93933">
        <ele>124.15</ele>
        <time>2015-11-28T15:17:57Z</time>
      </trkpt>
      <trkpt lat="44.53599" lon="0.93917">
        <ele>126.07</ele>
        <time>2015-11-28T15:18:12Z</time>
      </trkpt>
      <trkpt lat="44.53599" lon="0.93916">
        <ele>126.07</ele>
        <time>2015-11-28T15:18:13Z</time>
      </trkpt>
      <trkpt lat="44.53597" lon="0.93901">
        <ele>128.47</ele>
        <time>2015-11-28T15:18:26Z</time>
      </trkpt>
      <trkpt lat="44.53598" lon="0.93895">
        <ele>131.36</ele>
        <time>2015-11-28T15:18:38Z</time>
      </trkpt>
      <trkpt lat="44.53597" lon="0.93888">
        <ele>133.28</ele>
        <time>2015-11-28T15:18:52Z</time>
      </trkpt>
      <trkpt lat="44.536" lon="0.93885">
        <ele>136.64</ele>
        <time>2015-11-28T15:19:04Z</time>
      </trkpt>
      <trkpt lat="44.53602" lon="0.9388">
        <ele>139.05</ele>
        <time>2015-11-28T15:19:19Z</time>
      </trkpt>
      <trkpt lat="44.53604" lon="0.93875">
        <ele>140.49</ele>
        <time>2015-11-28T15:19:38Z</time>
      </trkpt>
      <trkpt lat="44.53607" lon="0.9386">
        <ele>143.85</ele>
        <time>2015-11-28T15:19:49Z</time>
      </trkpt>
      <trkpt lat="44.53608" lon="0.93858">
        <ele>144.34</ele>
        <time>2015-11-28T15:19:50Z</time>
      </trkpt>
      <trkpt lat="44.53616" lon="0.93834">
        <ele>147.7</ele>
        <time>2015-11-28T15:20:04Z</time>
      </trkpt>
      <trkpt lat="44.53619" lon="0.93812">
        <ele>147.7</ele>
        <time>2015-11-28T15:20:16Z</time>
      </trkpt>
      <trkpt lat="44.5362" lon="0.93807">
        <ele>147.22</ele>
        <time>2015-11-28T15:20:19Z</time>
      </trkpt>
      <trkpt lat="44.53619" lon="0.93793">
        <ele>143.85</ele>
        <time>2015-11-28T15:20:29Z</time>
      </trkpt>
      <trkpt lat="44.53606" lon="0.93772">
        <ele>142.41</ele>
        <time>2015-11-28T15:20:44Z</time>
      </trkpt>
      <trkpt lat="44.53601" lon="0.93766">
        <ele>142.89</ele>
        <time>2015-11-28T15:20:49Z</time>
      </trkpt>
      <trkpt lat="44.53598" lon="0.93761">
        <ele>142.41</ele>
        <time>2015-11-28T15:20:53Z</time>
      </trkpt>
      <trkpt lat="44.53595" lon="0.93758">
        <ele>142.89</ele>
        <time>2015-11-28T15:20:56Z</time>
      </trkpt>
      <trkpt lat="44.53587" lon="0.93741">
        <ele>144.82</ele>
        <time>2015-11-28T15:21:09Z</time>
      </trkpt>
      <trkpt lat="44.53587" lon="0.93738">
        <ele>145.78</ele>
        <time>2015-11-28T15:21:21Z</time>
      </trkpt>
      <trkpt lat="44.53589" lon="0.93737">
        <ele>146.74</ele>
        <time>2015-11-28T15:21:36Z</time>
      </trkpt>
      <trkpt lat="44.53589" lon="0.93728">
        <ele>147.22</ele>
        <time>2015-11-28T15:21:52Z</time>
      </trkpt>
      <trkpt lat="44.53585" lon="0.93725">
        <ele>149.14</ele>
        <time>2015-11-28T15:22:06Z</time>
      </trkpt>
      <trkpt lat="44.53586" lon="0.93716">
        <ele>148.66</ele>
        <time>2015-11-28T15:22:18Z</time>
      </trkpt>
      <trkpt lat="44.53586" lon="0.93715">
        <ele>148.66</ele>
        <time>2015-11-28T15:22:19Z</time>
      </trkpt>
      <trkpt lat="44.53591" lon="0.93687">
        <ele>152.03</ele>
        <time>2015-11-28T15:22:35Z</time>
      </trkpt>
      <trkpt lat="44.53592" lon="0.93682">
        <ele>152.03</ele>
        <time>2015-11-28T15:22:38Z</time>
      </trkpt>
      <trkpt lat="44.53593" lon="0.9367">
        <ele>149.62</ele>
        <time>2015-11-28T15:22:52Z</time>
      </trkpt>
      <trkpt lat="44.53593" lon="0.93668">
        <ele>148.18</ele>
        <time>2015-11-28T15:23:08Z</time>
      </trkpt>
      <trkpt lat="44.53591" lon="0.93664">
        <ele>148.18</ele>
        <time>2015-11-28T15:23:21Z</time>
      </trkpt>
      <trkpt lat="44.53591" lon="0.93662">
        <ele>147.22</ele>
        <time>2015-11-28T15:23:42Z</time>
      </trkpt>
      <trkpt lat="44.53591" lon="0.93662">
        <ele>147.7</ele>
        <time>2015-11-28T15:23:47Z</time>
      </trkpt>
      <trkpt lat="44.53581" lon="0.93647">
        <ele>148.18</ele>
        <time>2015-11-28T15:23:57Z</time>
      </trkpt>
      <trkpt lat="44.53567" lon="0.93631">
        <ele>148.18</ele>
        <time>2015-11-28T15:24:11Z</time>
      </trkpt>
      <trkpt lat="44.53562" lon="0.93635">
        <ele>149.14</ele>
        <time>2015-11-28T15:24:22Z</time>
      </trkpt>
      <trkpt lat="44.5356" lon="0.9364">
        <ele>150.1</ele>
        <time>2015-11-28T15:24:34Z</time>
      </trkpt>
      <trkpt lat="44.53558" lon="0.93642">
        <ele>150.1</ele>
        <time>2015-11-28T15:24:37Z</time>
      </trkpt>
      <trkpt lat="44.53554" lon="0.93649">
        <ele>151.54</ele>
        <time>2015-11-28T15:24:43Z</time>
      </trkpt>
      <trkpt lat="44.53546" lon="0.93662">
        <ele>152.99</ele>
        <time>2015-11-28T15:24:56Z</time>
      </trkpt>
      <trkpt lat="44.53546" lon="0.93663">
        <ele>152.99</ele>
        <time>2015-11-28T15:24:57Z</time>
      </trkpt>
      <trkpt lat="44.53539" lon="0.93669">
        <ele>152.03</ele>
        <time>2015-11-28T15:25:11Z</time>
      </trkpt>
      <trkpt lat="44.53539" lon="0.93669">
        <ele>152.03</ele>
        <time>2015-11-28T15:25:15Z</time>
      </trkpt>
      <trkpt lat="44.53523" lon="0.93684">
        <ele>150.58</ele>
        <time>2015-11-28T15:25:30Z</time>
      </trkpt>
      <trkpt lat="44.53523" lon="0.93684">
        <ele>149.14</ele>
        <time>2015-11-28T15:25:44Z</time>
      </trkpt>
      <trkpt lat="44.53523" lon="0.93682">
        <ele>147.7</ele>
        <time>2015-11-28T15:26:02Z</time>
      </trkpt>
      <trkpt lat="44.53523" lon="0.93681">
        <ele>148.18</ele>
        <time>2015-11-28T15:26:21Z</time>
      </trkpt>
      <trkpt lat="44.53522" lon="0.93681">
        <ele>147.22</ele>
        <time>2015-11-28T15:26:47Z</time>
      </trkpt>
      <trkpt lat="44.53522" lon="0.93681">
        <ele>146.74</ele>
        <time>2015-11-28T15:27:14Z</time>
      </trkpt>
      <trkpt lat="44.53522" lon="0.93681">
        <ele>147.22</ele>
        <time>2015-11-28T15:27:23Z</time>
      </trkpt>
      <trkpt lat="44.53507" lon="0.93666">
        <ele>146.26</ele>
        <time>2015-11-28T15:27:33Z</time>
      </trkpt>
      <trkpt lat="44.53477" lon="0.93624">
        <ele>146.74</ele>
        <time>2015-11-28T15:27:52Z</time>
      </trkpt>
      <trkpt lat="44.53449" lon="0.93588">
        <ele>147.22</ele>
        <time>2015-11-28T15:28:08Z</time>
      </trkpt>
      <trkpt lat="44.53448" lon="0.93572">
        <ele>147.7</ele>
        <time>2015-11-28T15:28:15Z</time>
      </trkpt>
      <trkpt lat="44.53433" lon="0.9353">
        <ele>146.26</ele>
        <time>2015-11-28T15:28:31Z</time>
      </trkpt>
      <trkpt lat="44.53425" lon="0.93504">
        <ele>144.82</ele>
        <time>2015-11-28T15:28:37Z</time>
      </trkpt>
      <trkpt lat="44.53409" lon="0.9344">
        <ele>142.89</ele>
        <time>2015-11-28T15:28:50Z</time>
      </trkpt>
      <trkpt lat="44.53397" lon="0.93389">
        <ele>143.85</ele>
        <time>2015-11-28T15:29:05Z</time>
      </trkpt>
      <trkpt lat="44.53394" lon="0.93372">
        <ele>143.85</ele>
        <time>2015-11-28T15:29:11Z</time>
      </trkpt>
      <trkpt lat="44.53397" lon="0.93367">
        <ele>143.85</ele>
        <time>2015-11-28T15:29:14Z</time>
      </trkpt>
      <trkpt lat="44.53424" lon="0.93363">
        <ele>149.14</ele>
        <time>2015-11-28T15:29:27Z</time>
      </trkpt>
      <trkpt lat="44.53454" lon="0.93384">
        <ele>150.58</ele>
        <time>2015-11-28T15:29:40Z</time>
      </trkpt>
      <trkpt lat="44.53482" lon="0.93374">
        <ele>153.47</ele>
        <time>2015-11-28T15:29:53Z</time>
      </trkpt>
      <trkpt lat="44.53518" lon="0.93358">
        <ele>158.75</ele>
        <time>2015-11-28T15:30:08Z</time>
      </trkpt>
      <trkpt lat="44.53528" lon="0.93359">
        <ele>158.75</ele>
        <time>2015-11-28T15:30:12Z</time>
      </trkpt>
      <trkpt lat="44.53538" lon="0.93369">
        <ele>159.72</ele>
        <time>2015-11-28T15:30:17Z</time>
      </trkpt>
      <trkpt lat="44.5354" lon="0.9337">
        <ele>159.72</ele>
        <time>2015-11-28T15:30:18Z</time>
      </trkpt>
      <trkpt lat="44.53543" lon="0.93371">
        <ele>159.72</ele>
        <time>2015-11-28T15:30:19Z</time>
      </trkpt>
      <trkpt lat="44.53545" lon="0.93371">
        <ele>160.2</ele>
        <time>2015-11-28T15:30:20Z</time>
      </trkpt>
      <trkpt lat="44.53547" lon="0.9337">
        <ele>160.2</ele>
        <time>2015-11-28T15:30:21Z</time>
      </trkpt>
      <trkpt lat="44.5355" lon="0.93368">
        <ele>160.2</ele>
        <time>2015-11-28T15:30:22Z</time>
      </trkpt>
      <trkpt lat="44.53552" lon="0.93367">
        <ele>160.2</ele>
        <time>2015-11-28T15:30:23Z</time>
      </trkpt>
      <trkpt lat="44.53554" lon="0.93365">
        <ele>160.2</ele>
        <time>2015-11-28T15:30:24Z</time>
      </trkpt>
      <trkpt lat="44.53556" lon="0.93364">
        <ele>160.68</ele>
        <time>2015-11-28T15:30:25Z</time>
      </trkpt>
      <trkpt lat="44.53558" lon="0.93362">
        <ele>160.68</ele>
        <time>2015-11-28T15:30:26Z</time>
      </trkpt>
      <trkpt lat="44.53561" lon="0.9336">
        <ele>161.16</ele>
        <time>2015-11-28T15:30:27Z</time>
      </trkpt>
      <trkpt lat="44.53563" lon="0.93358">
        <ele>161.16</ele>
        <time>2015-11-28T15:30:28Z</time>
      </trkpt>
      <trkpt lat="44.53565" lon="0.93356">
        <ele>161.16</ele>
        <time>2015-11-28T15:30:29Z</time>
      </trkpt>
      <trkpt lat="44.53599" lon="0.93325">
        <ele>160.68</ele>
        <time>2015-11-28T15:30:45Z</time>
      </trkpt>
      <trkpt lat="44.53627" lon="0.93296">
        <ele>159.72</ele>
        <time>2015-11-28T15:30:58Z</time>
      </trkpt>
      <trkpt lat="44.53653" lon="0.93307">
        <ele>159.72</ele>
        <time>2015-11-28T15:31:07Z</time>
      </trkpt>
      <trkpt lat="44.53669" lon="0.93336">
        <ele>161.16</ele>
        <time>2015-11-28T15:31:15Z</time>
      </trkpt>
      <trkpt lat="44.53672" lon="0.93341">
        <ele>161.16</ele>
        <time>2015-11-28T15:31:16Z</time>
      </trkpt>
      <trkpt lat="44.53675" lon="0.93348">
        <ele>161.64</ele>
        <time>2015-11-28T15:31:17Z</time>
      </trkpt>
      <trkpt lat="44.53679" lon="0.93355">
        <ele>161.16</ele>
        <time>2015-11-28T15:31:18Z</time>
      </trkpt>
      <trkpt lat="44.53684" lon="0.93363">
        <ele>161.16</ele>
        <time>2015-11-28T15:31:19Z</time>
      </trkpt>
      <trkpt lat="44.53699" lon="0.93396">
        <ele>159.72</ele>
        <time>2015-11-28T15:31:23Z</time>
      </trkpt>
      <trkpt lat="44.53703" lon="0.93399">
        <ele>159.72</ele>
        <time>2015-11-28T15:31:24Z</time>
      </trkpt>
      <trkpt lat="44.53707" lon="0.93401">
        <ele>159.24</ele>
        <time>2015-11-28T15:31:25Z</time>
      </trkpt>
      <trkpt lat="44.53711" lon="0.934">
        <ele>158.75</ele>
        <time>2015-11-28T15:31:26Z</time>
      </trkpt>
      <trkpt lat="44.53714" lon="0.93396">
        <ele>158.75</ele>
        <time>2015-11-28T15:31:27Z</time>
      </trkpt>
      <trkpt lat="44.53717" lon="0.93392">
        <ele>158.27</ele>
        <time>2015-11-28T15:31:28Z</time>
      </trkpt>
      <trkpt lat="44.53719" lon="0.93387">
        <ele>158.27</ele>
        <time>2015-11-28T15:31:29Z</time>
      </trkpt>
      <trkpt lat="44.53739" lon="0.93351">
        <ele>156.83</ele>
        <time>2015-11-28T15:31:41Z</time>
      </trkpt>
      <trkpt lat="44.53741" lon="0.93351">
        <ele>156.35</ele>
        <time>2015-11-28T15:31:54Z</time>
      </trkpt>
      <trkpt lat="44.53745" lon="0.93342">
        <ele>155.39</ele>
        <time>2015-11-28T15:31:59Z</time>
      </trkpt>
      <trkpt lat="44.53745" lon="0.93339">
        <ele>155.87</ele>
        <time>2015-11-28T15:32:00Z</time>
      </trkpt>
      <trkpt lat="44.53747" lon="0.93336">
        <ele>155.87</ele>
        <time>2015-11-28T15:32:01Z</time>
      </trkpt>
      <trkpt lat="44.53748" lon="0.93332">
        <ele>156.35</ele>
        <time>2015-11-28T15:32:02Z</time>
      </trkpt>
      <trkpt lat="44.5375" lon="0.93329">
        <ele>156.83</ele>
        <time>2015-11-28T15:32:03Z</time>
      </trkpt>
      <trkpt lat="44.53763" lon="0.93279">
        <ele>157.31</ele>
        <time>2015-11-28T15:32:15Z</time>
      </trkpt>
      <trkpt lat="44.53753" lon="0.93225">
        <ele>156.35</ele>
        <time>2015-11-28T15:32:26Z</time>
      </trkpt>
      <trkpt lat="44.53776" lon="0.93165">
        <ele>155.87</ele>
        <time>2015-11-28T15:32:39Z</time>
      </trkpt>
      <trkpt lat="44.53802" lon="0.93104">
        <ele>155.39</ele>
        <time>2015-11-28T15:32:53Z</time>
      </trkpt>
      <trkpt lat="44.53832" lon="0.9304">
        <ele>154.43</ele>
        <time>2015-11-28T15:33:07Z</time>
      </trkpt>
      <trkpt lat="44.53863" lon="0.92971">
        <ele>154.43</ele>
        <time>2015-11-28T15:33:23Z</time>
      </trkpt>
      <trkpt lat="44.53893" lon="0.92915">
        <ele>156.35</ele>
        <time>2015-11-28T15:33:37Z</time>
      </trkpt>
      <trkpt lat="44.53933" lon="0.92843">
        <ele>160.2</ele>
        <time>2015-11-28T15:33:55Z</time>
      </trkpt>
      <trkpt lat="44.53966" lon="0.92783">
        <ele>161.16</ele>
        <time>2015-11-28T15:34:09Z</time>
      </trkpt>
      <trkpt lat="44.53996" lon="0.92728">
        <ele>161.16</ele>
        <time>2015-11-28T15:34:22Z</time>
      </trkpt>
      <trkpt lat="44.54003" lon="0.92696">
        <ele>161.64</ele>
        <time>2015-11-28T15:34:29Z</time>
      </trkpt>
      <trkpt lat="44.54001" lon="0.92692">
        <ele>162.12</ele>
        <time>2015-11-28T15:34:30Z</time>
      </trkpt>
      <trkpt lat="44.53999" lon="0.92688">
        <ele>162.6</ele>
        <time>2015-11-28T15:34:31Z</time>
      </trkpt>
      <trkpt lat="44.53996" lon="0.92685">
        <ele>162.6</ele>
        <time>2015-11-28T15:34:32Z</time>
      </trkpt>
      <trkpt lat="44.53994" lon="0.92682">
        <ele>163.08</ele>
        <time>2015-11-28T15:34:33Z</time>
      </trkpt>
      <trkpt lat="44.53974" lon="0.9266">
        <ele>164.04</ele>
        <time>2015-11-28T15:34:40Z</time>
      </trkpt>
      <trkpt lat="44.53972" lon="0.92655">
        <ele>164.04</ele>
        <time>2015-11-28T15:34:41Z</time>
      </trkpt>
      <trkpt lat="44.53971" lon="0.9265">
        <ele>164.04</ele>
        <time>2015-11-28T15:34:42Z</time>
      </trkpt>
      <trkpt lat="44.53971" lon="0.92643">
        <ele>164.04</ele>
        <time>2015-11-28T15:34:43Z</time>
      </trkpt>
      <trkpt lat="44.53972" lon="0.92636">
        <ele>164.04</ele>
        <time>2015-11-28T15:34:44Z</time>
      </trkpt>
      <trkpt lat="44.53974" lon="0.92629">
        <ele>163.56</ele>
        <time>2015-11-28T15:34:45Z</time>
      </trkpt>
      <trkpt lat="44.53977" lon="0.92622">
        <ele>163.56</ele>
        <time>2015-11-28T15:34:46Z</time>
      </trkpt>
      <trkpt lat="44.53979" lon="0.92615">
        <ele>163.56</ele>
        <time>2015-11-28T15:34:47Z</time>
      </trkpt>
      <trkpt lat="44.53981" lon="0.92608">
        <ele>163.08</ele>
        <time>2015-11-28T15:34:48Z</time>
      </trkpt>
      <trkpt lat="44.53986" lon="0.92595">
        <ele>162.6</ele>
        <time>2015-11-28T15:34:50Z</time>
      </trkpt>
      <trkpt lat="44.53988" lon="0.92588">
        <ele>162.12</ele>
        <time>2015-11-28T15:34:51Z</time>
      </trkpt>
      <trkpt lat="44.5401" lon="0.92524">
        <ele>160.2</ele>
        <time>2015-11-28T15:35:00Z</time>
      </trkpt>
      <trkpt lat="44.54013" lon="0.92516">
        <ele>159.72</ele>
        <time>2015-11-28T15:35:01Z</time>
      </trkpt>
      <trkpt lat="44.54015" lon="0.92508">
        <ele>159.24</ele>
        <time>2015-11-28T15:35:02Z</time>
      </trkpt>
      <trkpt lat="44.54017" lon="0.92499">
        <ele>158.75</ele>
        <time>2015-11-28T15:35:03Z</time>
      </trkpt>
      <trkpt lat="44.54018" lon="0.9249">
        <ele>158.27</ele>
        <time>2015-11-28T15:35:04Z</time>
      </trkpt>
      <trkpt lat="44.54017" lon="0.92481">
        <ele>158.27</ele>
        <time>2015-11-28T15:35:05Z</time>
      </trkpt>
      <trkpt lat="44.54015" lon="0.92472">
        <ele>157.79</ele>
        <time>2015-11-28T15:35:06Z</time>
      </trkpt>
      <trkpt lat="44.54013" lon="0.92463">
        <ele>157.31</ele>
        <time>2015-11-28T15:35:07Z</time>
      </trkpt>
      <trkpt lat="44.5401" lon="0.92455">
        <ele>156.83</ele>
        <time>2015-11-28T15:35:08Z</time>
      </trkpt>
      <trkpt lat="44.53974" lon="0.92353">
        <ele>155.87</ele>
        <time>2015-11-28T15:35:23Z</time>
      </trkpt>
      <trkpt lat="44.53951" lon="0.92305">
        <ele>161.16</ele>
        <time>2015-11-28T15:35:35Z</time>
      </trkpt>
      <trkpt lat="44.53928" lon="0.92259">
        <ele>161.16</ele>
        <time>2015-11-28T15:35:46Z</time>
      </trkpt>
      <trkpt lat="44.5392" lon="0.92243">
        <ele>160.2</ele>
        <time>2015-11-28T15:35:49Z</time>
      </trkpt>
      <trkpt lat="44.53885" lon="0.92173">
        <ele>155.39</ele>
        <time>2015-11-28T15:36:00Z</time>
      </trkpt>
      <trkpt lat="44.5388" lon="0.92162">
        <ele>154.43</ele>
        <time>2015-11-28T15:36:09Z</time>
      </trkpt>
      <trkpt lat="44.53879" lon="0.92159">
        <ele>154.43</ele>
        <time>2015-11-28T15:36:20Z</time>
      </trkpt>
      <trkpt lat="44.53877" lon="0.92159">
        <ele>154.43</ele>
        <time>2015-11-28T15:36:21Z</time>
      </trkpt>
      <trkpt lat="44.53875" lon="0.92159">
        <ele>154.43</ele>
        <time>2015-11-28T15:36:22Z</time>
      </trkpt>
      <trkpt lat="44.53872" lon="0.92159">
        <ele>154.91</ele>
        <time>2015-11-28T15:36:23Z</time>
      </trkpt>
      <trkpt lat="44.53869" lon="0.92161">
        <ele>154.91</ele>
        <time>2015-11-28T15:36:24Z</time>
      </trkpt>
      <trkpt lat="44.53865" lon="0.92162">
        <ele>155.39</ele>
        <time>2015-11-28T15:36:25Z</time>
      </trkpt>
      <trkpt lat="44.53858" lon="0.92166">
        <ele>155.39</ele>
        <time>2015-11-28T15:36:27Z</time>
      </trkpt>
      <trkpt lat="44.53784" lon="0.922">
        <ele>153.47</ele>
        <time>2015-11-28T15:36:41Z</time>
      </trkpt>
      <trkpt lat="44.53701" lon="0.92239">
        <ele>152.03</ele>
        <time>2015-11-28T15:36:55Z</time>
      </trkpt>
      <trkpt lat="44.53618" lon="0.92303">
        <ele>152.99</ele>
        <time>2015-11-28T15:37:11Z</time>
      </trkpt>
      <trkpt lat="44.53535" lon="0.92377">
        <ele>152.99</ele>
        <time>2015-11-28T15:37:29Z</time>
      </trkpt>
      <trkpt lat="44.53476" lon="0.92429">
        <ele>154.91</ele>
        <time>2015-11-28T15:37:44Z</time>
      </trkpt>
      <trkpt lat="44.53406" lon="0.9249">
        <ele>152.03</ele>
        <time>2015-11-28T15:38:00Z</time>
      </trkpt>
      <trkpt lat="44.53355" lon="0.92537">
        <ele>151.06</ele>
        <time>2015-11-28T15:38:12Z</time>
      </trkpt>
      <trkpt lat="44.53351" lon="0.92541">
        <ele>151.06</ele>
        <time>2015-11-28T15:38:13Z</time>
      </trkpt>
      <trkpt lat="44.53287" lon="0.92602">
        <ele>149.14</ele>
        <time>2015-11-28T15:38:28Z</time>
      </trkpt>
      <trkpt lat="44.53247" lon="0.92647">
        <ele>147.7</ele>
        <time>2015-11-28T15:38:39Z</time>
      </trkpt>
      <trkpt lat="44.53244" lon="0.92646">
        <ele>147.7</ele>
        <time>2015-11-28T15:38:40Z</time>
      </trkpt>
      <trkpt lat="44.53242" lon="0.92644">
        <ele>147.7</ele>
        <time>2015-11-28T15:38:41Z</time>
      </trkpt>
      <trkpt lat="44.5324" lon="0.92641">
        <ele>147.7</ele>
        <time>2015-11-28T15:38:42Z</time>
      </trkpt>
      <trkpt lat="44.53238" lon="0.92637">
        <ele>147.22</ele>
        <time>2015-11-28T15:38:43Z</time>
      </trkpt>
      <trkpt lat="44.53206" lon="0.92596">
        <ele>146.74</ele>
        <time>2015-11-28T15:38:56Z</time>
      </trkpt>
      <trkpt lat="44.53173" lon="0.92603">
        <ele>146.26</ele>
        <time>2015-11-28T15:39:06Z</time>
      </trkpt>
      <trkpt lat="44.53119" lon="0.92639">
        <ele>146.26</ele>
        <time>2015-11-28T15:39:21Z</time>
      </trkpt>
      <trkpt lat="44.53077" lon="0.92674">
        <ele>146.74</ele>
        <time>2015-11-28T15:39:34Z</time>
      </trkpt>
      <trkpt lat="44.53042" lon="0.92682">
        <ele>146.74</ele>
        <time>2015-11-28T15:39:44Z</time>
      </trkpt>
      <trkpt lat="44.53008" lon="0.92682">
        <ele>146.74</ele>
        <time>2015-11-28T15:39:55Z</time>
      </trkpt>
      <trkpt lat="44.53" lon="0.92683">
        <ele>146.26</ele>
        <time>2015-11-28T15:39:59Z</time>
      </trkpt>
      <trkpt lat="44.52999" lon="0.92683">
        <ele>146.26</ele>
        <time>2015-11-28T15:40:00Z</time>
      </trkpt>
      <trkpt lat="44.52997" lon="0.92684">
        <ele>146.74</ele>
        <time>2015-11-28T15:40:01Z</time>
      </trkpt>
      <trkpt lat="44.52995" lon="0.92685">
        <ele>146.74</ele>
        <time>2015-11-28T15:40:02Z</time>
      </trkpt>
      <trkpt lat="44.52991" lon="0.92685">
        <ele>146.74</ele>
        <time>2015-11-28T15:40:03Z</time>
      </trkpt>
      <trkpt lat="44.52987" lon="0.92687">
        <ele>146.74</ele>
        <time>2015-11-28T15:40:04Z</time>
      </trkpt>
      <trkpt lat="44.52983" lon="0.92688">
        <ele>146.26</ele>
        <time>2015-11-28T15:40:05Z</time>
      </trkpt>
      <trkpt lat="44.52954" lon="0.92692">
        <ele>145.3</ele>
        <time>2015-11-28T15:40:10Z</time>
      </trkpt>
      <trkpt lat="44.52948" lon="0.92691">
        <ele>144.82</ele>
        <time>2015-11-28T15:40:11Z</time>
      </trkpt>
      <trkpt lat="44.52944" lon="0.92687">
        <ele>144.82</ele>
        <time>2015-11-28T15:40:12Z</time>
      </trkpt>
      <trkpt lat="44.5294" lon="0.92682">
        <ele>144.34</ele>
        <time>2015-11-28T15:40:13Z</time>
      </trkpt>
      <trkpt lat="44.52937" lon="0.92676">
        <ele>144.34</ele>
        <time>2015-11-28T15:40:14Z</time>
      </trkpt>
      <trkpt lat="44.52918" lon="0.92644">
        <ele>143.37</ele>
        <time>2015-11-28T15:40:21Z</time>
      </trkpt>
      <trkpt lat="44.52886" lon="0.9264">
        <ele>143.37</ele>
        <time>2015-11-28T15:40:30Z</time>
      </trkpt>
      <trkpt lat="44.52882" lon="0.92631">
        <ele>142.89</ele>
        <time>2015-11-28T15:40:32Z</time>
      </trkpt>
      <trkpt lat="44.52864" lon="0.92587">
        <ele>140.01</ele>
        <time>2015-11-28T15:40:41Z</time>
      </trkpt>
      <trkpt lat="44.52853" lon="0.92557">
        <ele>139.53</ele>
        <time>2015-11-28T15:40:47Z</time>
      </trkpt>
      <trkpt lat="44.52813" lon="0.92511">
        <ele>138.09</ele>
        <time>2015-11-28T15:40:59Z</time>
      </trkpt>
      <trkpt lat="44.52799" lon="0.92494">
        <ele>139.53</ele>
        <time>2015-11-28T15:41:03Z</time>
      </trkpt>
      <trkpt lat="44.52764" lon="0.92438">
        <ele>141.93</ele>
        <time>2015-11-28T15:41:15Z</time>
      </trkpt>
      <trkpt lat="44.5274" lon="0.92447">
        <ele>142.41</ele>
        <time>2015-11-28T15:41:21Z</time>
      </trkpt>
      <trkpt lat="44.5271" lon="0.92465">
        <ele>142.41</ele>
        <time>2015-11-28T15:41:27Z</time>
      </trkpt>
      <trkpt lat="44.52698" lon="0.92505">
        <ele>140.01</ele>
        <time>2015-11-28T15:41:34Z</time>
      </trkpt>
      <trkpt lat="44.527" lon="0.92511">
        <ele>140.01</ele>
        <time>2015-11-28T15:41:35Z</time>
      </trkpt>
      <trkpt lat="44.52699" lon="0.92565">
        <ele>137.61</ele>
        <time>2015-11-28T15:41:45Z</time>
      </trkpt>
      <trkpt lat="44.52695" lon="0.92576">
        <ele>134.24</ele>
        <time>2015-11-28T15:41:54Z</time>
      </trkpt>
      <trkpt lat="44.52692" lon="0.92576">
        <ele>134.24</ele>
        <time>2015-11-28T15:41:55Z</time>
      </trkpt>
      <trkpt lat="44.5264" lon="0.92577">
        <ele>131.84</ele>
        <time>2015-11-28T15:42:06Z</time>
      </trkpt>
      <trkpt lat="44.52623" lon="0.9258">
        <ele>130.4</ele>
        <time>2015-11-28T15:42:09Z</time>
      </trkpt>
      <trkpt lat="44.52603" lon="0.92586">
        <ele>128.47</ele>
        <time>2015-11-28T15:42:13Z</time>
      </trkpt>
      <trkpt lat="44.52574" lon="0.92574">
        <ele>126.07</ele>
        <time>2015-11-28T15:42:20Z</time>
      </trkpt>
      <trkpt lat="44.52571" lon="0.92572">
        <ele>125.59</ele>
        <time>2015-11-28T15:42:21Z</time>
      </trkpt>
      <trkpt lat="44.52537" lon="0.92543">
        <ele>118.86</ele>
        <time>2015-11-28T15:42:32Z</time>
      </trkpt>
      <trkpt lat="44.52529" lon="0.92536">
        <ele>117.42</ele>
        <time>2015-11-28T15:42:34Z</time>
      </trkpt>
      <trkpt lat="44.52525" lon="0.92533">
        <ele>116.94</ele>
        <time>2015-11-28T15:42:35Z</time>
      </trkpt>
      <trkpt lat="44.52489" lon="0.92511">
        <ele>109.73</ele>
        <time>2015-11-28T15:42:46Z</time>
      </trkpt>
      <trkpt lat="44.52485" lon="0.92512">
        <ele>109.25</ele>
        <time>2015-11-28T15:42:47Z</time>
      </trkpt>
      <trkpt lat="44.52481" lon="0.92514">
        <ele>108.77</ele>
        <time>2015-11-28T15:42:48Z</time>
      </trkpt>
      <trkpt lat="44.52477" lon="0.92516">
        <ele>108.29</ele>
        <time>2015-11-28T15:42:49Z</time>
      </trkpt>
      <trkpt lat="44.52473" lon="0.92518">
        <ele>107.32</ele>
        <time>2015-11-28T15:42:50Z</time>
      </trkpt>
      <trkpt lat="44.52468" lon="0.92518">
        <ele>106.84</ele>
        <time>2015-11-28T15:42:51Z</time>
      </trkpt>
      <trkpt lat="44.52464" lon="0.92516">
        <ele>106.36</ele>
        <time>2015-11-28T15:42:52Z</time>
      </trkpt>
      <trkpt lat="44.52459" lon="0.92514">
        <ele>105.88</ele>
        <time>2015-11-28T15:42:53Z</time>
      </trkpt>
      <trkpt lat="44.52455" lon="0.92511">
        <ele>104.92</ele>
        <time>2015-11-28T15:42:54Z</time>
      </trkpt>
      <trkpt lat="44.5245" lon="0.92508">
        <ele>104.44</ele>
        <time>2015-11-28T15:42:55Z</time>
      </trkpt>
      <trkpt lat="44.52433" lon="0.92501">
        <ele>102.52</ele>
        <time>2015-11-28T15:42:58Z</time>
      </trkpt>
      <trkpt lat="44.52421" lon="0.92498">
        <ele>101.56</ele>
        <time>2015-11-28T15:43:00Z</time>
      </trkpt>
      <trkpt lat="44.52416" lon="0.92495">
        <ele>101.08</ele>
        <time>2015-11-28T15:43:01Z</time>
      </trkpt>
      <trkpt lat="44.52405" lon="0.92488">
        <ele>100.6</ele>
        <time>2015-11-28T15:43:03Z</time>
      </trkpt>
      <trkpt lat="44.52374" lon="0.92462">
        <ele>98.19</ele>
        <time>2015-11-28T15:43:09Z</time>
      </trkpt>
      <trkpt lat="44.52357" lon="0.92458">
        <ele>95.79</ele>
        <time>2015-11-28T15:43:14Z</time>
      </trkpt>
      <trkpt lat="44.52353" lon="0.92458">
        <ele>97.23</ele>
        <time>2015-11-28T15:43:25Z</time>
      </trkpt>
      <trkpt lat="44.52353" lon="0.9246">
        <ele>97.23</ele>
        <time>2015-11-28T15:43:26Z</time>
      </trkpt>
      <trkpt lat="44.52353" lon="0.92461">
        <ele>97.23</ele>
        <time>2015-11-28T15:43:27Z</time>
      </trkpt>
      <trkpt lat="44.52352" lon="0.92463">
        <ele>97.23</ele>
        <time>2015-11-28T15:43:28Z</time>
      </trkpt>
      <trkpt lat="44.52351" lon="0.92466">
        <ele>97.71</ele>
        <time>2015-11-28T15:43:29Z</time>
      </trkpt>
      <trkpt lat="44.5235" lon="0.92469">
        <ele>97.71</ele>
        <time>2015-11-28T15:43:30Z</time>
      </trkpt>
      <trkpt lat="44.52338" lon="0.92488">
        <ele>96.75</ele>
        <time>2015-11-28T15:43:38Z</time>
      </trkpt>
      <trkpt lat="44.52335" lon="0.92489">
        <ele>96.75</ele>
        <time>2015-11-28T15:43:39Z</time>
      </trkpt>
      <trkpt lat="44.52331" lon="0.92488">
        <ele>96.27</ele>
        <time>2015-11-28T15:43:40Z</time>
      </trkpt>
      <trkpt lat="44.52328" lon="0.92486">
        <ele>96.27</ele>
        <time>2015-11-28T15:43:41Z</time>
      </trkpt>
      <trkpt lat="44.52324" lon="0.92484">
        <ele>96.27</ele>
        <time>2015-11-28T15:43:42Z</time>
      </trkpt>
      <trkpt lat="44.52321" lon="0.92481">
        <ele>96.27</ele>
        <time>2015-11-28T15:43:43Z</time>
      </trkpt>
      <trkpt lat="44.52317" lon="0.92478">
        <ele>96.27</ele>
        <time>2015-11-28T15:43:44Z</time>
      </trkpt>
      <trkpt lat="44.52306" lon="0.9247">
        <ele>95.31</ele>
        <time>2015-11-28T15:43:47Z</time>
      </trkpt>
      <trkpt lat="44.52302" lon="0.92467">
        <ele>94.83</ele>
        <time>2015-11-28T15:43:48Z</time>
      </trkpt>
      <trkpt lat="44.52298" lon="0.92465">
        <ele>94.83</ele>
        <time>2015-11-28T15:43:49Z</time>
      </trkpt>
      <trkpt lat="44.52294" lon="0.92462">
        <ele>94.83</ele>
        <time>2015-11-28T15:43:50Z</time>
      </trkpt>
      <trkpt lat="44.5229" lon="0.92459">
        <ele>94.83</ele>
        <time>2015-11-28T15:43:51Z</time>
      </trkpt>
      <trkpt lat="44.52287" lon="0.92455">
        <ele>94.35</ele>
        <time>2015-11-28T15:43:52Z</time>
      </trkpt>
      <trkpt lat="44.52284" lon="0.92451">
        <ele>94.35</ele>
        <time>2015-11-28T15:43:53Z</time>
      </trkpt>
      <trkpt lat="44.52282" lon="0.92448">
        <ele>94.35</ele>
        <time>2015-11-28T15:43:54Z</time>
      </trkpt>
      <trkpt lat="44.5228" lon="0.92444">
        <ele>94.35</ele>
        <time>2015-11-28T15:43:55Z</time>
      </trkpt>
      <trkpt lat="44.52276" lon="0.92438">
        <ele>93.87</ele>
        <time>2015-11-28T15:43:57Z</time>
      </trkpt>
      <trkpt lat="44.52274" lon="0.92435">
        <ele>94.83</ele>
        <time>2015-11-28T15:44:07Z</time>
      </trkpt>
      <trkpt lat="44.52275" lon="0.92436">
        <ele>98.67</ele>
        <time>2015-11-28T15:44:21Z</time>
      </trkpt>
      <trkpt lat="44.52295" lon="0.92465">
        <ele>102.04</ele>
        <time>2015-11-28T15:44:31Z</time>
      </trkpt>
      <trkpt lat="44.52301" lon="0.92472">
        <ele>102.52</ele>
        <time>2015-11-28T15:44:33Z</time>
      </trkpt>
      <trkpt lat="44.52321" lon="0.92496">
        <ele>104.44</ele>
        <time>2015-11-28T15:44:39Z</time>
      </trkpt>
      <trkpt lat="44.52324" lon="0.92502">
        <ele>105.4</ele>
        <time>2015-11-28T15:44:40Z</time>
      </trkpt>
      <trkpt lat="44.52326" lon="0.92507">
        <ele>105.4</ele>
        <time>2015-11-28T15:44:41Z</time>
      </trkpt>
      <trkpt lat="44.52327" lon="0.92513">
        <ele>105.4</ele>
        <time>2015-11-28T15:44:42Z</time>
      </trkpt>
      <trkpt lat="44.52326" lon="0.92519">
        <ele>105.88</ele>
        <time>2015-11-28T15:44:43Z</time>
      </trkpt>
      <trkpt lat="44.52326" lon="0.92525">
        <ele>105.88</ele>
        <time>2015-11-28T15:44:44Z</time>
      </trkpt>
      <trkpt lat="44.52315" lon="0.92576">
        <ele>111.17</ele>
        <time>2015-11-28T15:44:54Z</time>
      </trkpt>
      <trkpt lat="44.52298" lon="0.92651">
        <ele>119.82</ele>
        <time>2015-11-28T15:45:08Z</time>
      </trkpt>
      <trkpt lat="44.52292" lon="0.92694">
        <ele>120.78</ele>
        <time>2015-11-28T15:45:15Z</time>
      </trkpt>
      <trkpt lat="44.52289" lon="0.92733">
        <ele>121.74</ele>
        <time>2015-11-28T15:45:20Z</time>
      </trkpt>
      <trkpt lat="44.52289" lon="0.92741">
        <ele>121.74</ele>
        <time>2015-11-28T15:45:21Z</time>
      </trkpt>
      <trkpt lat="44.52281" lon="0.92847">
        <ele>122.71</ele>
        <time>2015-11-28T15:45:34Z</time>
      </trkpt>
      <trkpt lat="44.52273" lon="0.92988">
        <ele>112.61</ele>
        <time>2015-11-28T15:45:49Z</time>
      </trkpt>
      <trkpt lat="44.52261" lon="0.93035">
        <ele>110.21</ele>
        <time>2015-11-28T15:45:55Z</time>
      </trkpt>
      <trkpt lat="44.52258" lon="0.93041">
        <ele>110.21</ele>
        <time>2015-11-28T15:45:56Z</time>
      </trkpt>
      <trkpt lat="44.52249" lon="0.93058">
        <ele>110.21</ele>
        <time>2015-11-28T15:45:59Z</time>
      </trkpt>
      <trkpt lat="44.52241" lon="0.93067">
        <ele>110.69</ele>
        <time>2015-11-28T15:46:01Z</time>
      </trkpt>
      <trkpt lat="44.52236" lon="0.93071">
        <ele>110.69</ele>
        <time>2015-11-28T15:46:02Z</time>
      </trkpt>
      <trkpt lat="44.52231" lon="0.93075">
        <ele>110.69</ele>
        <time>2015-11-28T15:46:03Z</time>
      </trkpt>
      <trkpt lat="44.52225" lon="0.93078">
        <ele>110.69</ele>
        <time>2015-11-28T15:46:04Z</time>
      </trkpt>
      <trkpt lat="44.5222" lon="0.93081">
        <ele>110.21</ele>
        <time>2015-11-28T15:46:05Z</time>
      </trkpt>
      <trkpt lat="44.52214" lon="0.93083">
        <ele>110.21</ele>
        <time>2015-11-28T15:46:06Z</time>
      </trkpt>
      <trkpt lat="44.52207" lon="0.93084">
        <ele>110.21</ele>
        <time>2015-11-28T15:46:07Z</time>
      </trkpt>
      <trkpt lat="44.52201" lon="0.93084">
        <ele>109.73</ele>
        <time>2015-11-28T15:46:08Z</time>
      </trkpt>
      <trkpt lat="44.52195" lon="0.93084">
        <ele>109.73</ele>
        <time>2015-11-28T15:46:09Z</time>
      </trkpt>
      <trkpt lat="44.52177" lon="0.93084">
        <ele>109.73</ele>
        <time>2015-11-28T15:46:12Z</time>
      </trkpt>
      <trkpt lat="44.52171" lon="0.93086">
        <ele>109.25</ele>
        <time>2015-11-28T15:46:13Z</time>
      </trkpt>
      <trkpt lat="44.52165" lon="0.93088">
        <ele>109.25</ele>
        <time>2015-11-28T15:46:14Z</time>
      </trkpt>
      <trkpt lat="44.52159" lon="0.93092">
        <ele>109.73</ele>
        <time>2015-11-28T15:46:15Z</time>
      </trkpt>
      <trkpt lat="44.52154" lon="0.93096">
        <ele>109.25</ele>
        <time>2015-11-28T15:46:16Z</time>
      </trkpt>
      <trkpt lat="44.52149" lon="0.93101">
        <ele>108.77</ele>
        <time>2015-11-28T15:46:17Z</time>
      </trkpt>
      <trkpt lat="44.52144" lon="0.93107">
        <ele>108.29</ele>
        <time>2015-11-28T15:46:18Z</time>
      </trkpt>
      <trkpt lat="44.5214" lon="0.93113">
        <ele>107.81</ele>
        <time>2015-11-28T15:46:19Z</time>
      </trkpt>
      <trkpt lat="44.52136" lon="0.9312">
        <ele>107.81</ele>
        <time>2015-11-28T15:46:20Z</time>
      </trkpt>
      <trkpt lat="44.52133" lon="0.93127">
        <ele>107.32</ele>
        <time>2015-11-28T15:46:21Z</time>
      </trkpt>
      <trkpt lat="44.52114" lon="0.93161">
        <ele>104.92</ele>
        <time>2015-11-28T15:46:26Z</time>
      </trkpt>
      <trkpt lat="44.52109" lon="0.93167">
        <ele>103.96</ele>
        <time>2015-11-28T15:46:27Z</time>
      </trkpt>
      <trkpt lat="44.52104" lon="0.93173">
        <ele>103.48</ele>
        <time>2015-11-28T15:46:28Z</time>
      </trkpt>
      <trkpt lat="44.52098" lon="0.93178">
        <ele>103</ele>
        <time>2015-11-28T15:46:29Z</time>
      </trkpt>
      <trkpt lat="44.52093" lon="0.93181">
        <ele>102.52</ele>
        <time>2015-11-28T15:46:30Z</time>
      </trkpt>
      <trkpt lat="44.52087" lon="0.93183">
        <ele>101.56</ele>
        <time>2015-11-28T15:46:31Z</time>
      </trkpt>
      <trkpt lat="44.52005" lon="0.93224">
        <ele>97.23</ele>
        <time>2015-11-28T15:46:47Z</time>
      </trkpt>
      <trkpt lat="44.51956" lon="0.93252">
        <ele>95.31</ele>
        <time>2015-11-28T15:47:01Z</time>
      </trkpt>
      <trkpt lat="44.51911" lon="0.93287">
        <ele>94.35</ele>
        <time>2015-11-28T15:47:15Z</time>
      </trkpt>
      <trkpt lat="44.51861" lon="0.9332">
        <ele>94.83</ele>
        <time>2015-11-28T15:47:30Z</time>
      </trkpt>
      <trkpt lat="44.5181" lon="0.93339">
        <ele>94.83</ele>
        <time>2015-11-28T15:47:46Z</time>
      </trkpt>
      <trkpt lat="44.51755" lon="0.93349">
        <ele>95.79</ele>
        <time>2015-11-28T15:48:02Z</time>
      </trkpt>
      <trkpt lat="44.51715" lon="0.93341">
        <ele>97.23</ele>
        <time>2015-11-28T15:48:15Z</time>
      </trkpt>
      <trkpt lat="44.51704" lon="0.93346">
        <ele>98.19</ele>
        <time>2015-11-28T15:48:19Z</time>
      </trkpt>
      <trkpt lat="44.51703" lon="0.93348">
        <ele>98.19</ele>
        <time>2015-11-28T15:48:29Z</time>
      </trkpt>
      <trkpt lat="44.51703" lon="0.93348">
        <ele>98.67</ele>
        <time>2015-11-28T15:48:53Z</time>
      </trkpt>
      <trkpt lat="44.51703" lon="0.93348">
        <ele>99.63</ele>
        <time>2015-11-28T15:49:15Z</time>
      </trkpt>
      <trkpt lat="44.51703" lon="0.93348">
        <ele>99.15</ele>
        <time>2015-11-28T15:49:42Z</time>
      </trkpt>
      <trkpt lat="44.51703" lon="0.93348">
        <ele>99.15</ele>
        <time>2015-11-28T15:49:44Z</time>
      </trkpt>
      <trkpt lat="44.51704" lon="0.9335">
        <ele>99.15</ele>
        <time>2015-11-28T15:49:45Z</time>
      </trkpt>
      <trkpt lat="44.51704" lon="0.93352">
        <ele>99.15</ele>
        <time>2015-11-28T15:49:46Z</time>
      </trkpt>
      <trkpt lat="44.51706" lon="0.93406">
        <ele>98.19</ele>
        <time>2015-11-28T15:49:57Z</time>
      </trkpt>
      <trkpt lat="44.51703" lon="0.9351">
        <ele>94.35</ele>
        <time>2015-11-28T15:50:09Z</time>
      </trkpt>
      <trkpt lat="44.517" lon="0.93562">
        <ele>89.54</ele>
        <time>2015-11-28T15:50:15Z</time>
      </trkpt>
      <trkpt lat="44.51699" lon="0.9357">
        <ele>88.58</ele>
        <time>2015-11-28T15:50:16Z</time>
      </trkpt>
      <trkpt lat="44.51696" lon="0.93577">
        <ele>88.1</ele>
        <time>2015-11-28T15:50:17Z</time>
      </trkpt>
      <trkpt lat="44.51692" lon="0.93584">
        <ele>87.62</ele>
        <time>2015-11-28T15:50:18Z</time>
      </trkpt>
      <trkpt lat="44.51687" lon="0.93588">
        <ele>86.66</ele>
        <time>2015-11-28T15:50:19Z</time>
      </trkpt>
      <trkpt lat="44.51682" lon="0.93592">
        <ele>86.18</ele>
        <time>2015-11-28T15:50:20Z</time>
      </trkpt>
      <trkpt lat="44.51678" lon="0.93595">
        <ele>86.18</ele>
        <time>2015-11-28T15:50:21Z</time>
      </trkpt>
      <trkpt lat="44.51669" lon="0.93604">
        <ele>85.69</ele>
        <time>2015-11-28T15:50:24Z</time>
      </trkpt>
      <trkpt lat="44.51668" lon="0.93609">
        <ele>85.69</ele>
        <time>2015-11-28T15:50:25Z</time>
      </trkpt>
      <trkpt lat="44.51668" lon="0.93613">
        <ele>85.69</ele>
        <time>2015-11-28T15:50:26Z</time>
      </trkpt>
      <trkpt lat="44.51669" lon="0.93617">
        <ele>85.21</ele>
        <time>2015-11-28T15:50:27Z</time>
      </trkpt>
      <trkpt lat="44.51669" lon="0.9362">
        <ele>85.21</ele>
        <time>2015-11-28T15:50:28Z</time>
      </trkpt>
      <trkpt lat="44.51669" lon="0.93622">
        <ele>85.21</ele>
        <time>2015-11-28T15:50:29Z</time>
      </trkpt>
      <trkpt lat="44.51669" lon="0.93625">
        <ele>85.21</ele>
        <time>2015-11-28T15:50:30Z</time>
      </trkpt>
      <trkpt lat="44.51669" lon="0.93627">
        <ele>85.69</ele>
        <time>2015-11-28T15:50:31Z</time>
      </trkpt>
      <trkpt lat="44.51667" lon="0.93651">
        <ele>86.18</ele>
        <time>2015-11-28T15:50:39Z</time>
      </trkpt>
      <trkpt lat="44.51665" lon="0.93653">
        <ele>86.18</ele>
        <time>2015-11-28T15:50:40Z</time>
      </trkpt>
      <trkpt lat="44.51661" lon="0.93655">
        <ele>86.18</ele>
        <time>2015-11-28T15:50:41Z</time>
      </trkpt>
      <trkpt lat="44.51654" lon="0.93655">
        <ele>85.69</ele>
        <time>2015-11-28T15:50:43Z</time>
      </trkpt>
      <trkpt lat="44.51594" lon="0.93653">
        <ele>82.81</ele>
        <time>2015-11-28T15:51:00Z</time>
      </trkpt>
      <trkpt lat="44.5156" lon="0.93657">
        <ele>82.81</ele>
        <time>2015-11-28T15:51:09Z</time>
      </trkpt>
      <trkpt lat="44.51496" lon="0.93672">
        <ele>80.41</ele>
        <time>2015-11-28T15:51:24Z</time>
      </trkpt>
      <trkpt lat="44.51485" lon="0.93676">
        <ele>80.89</ele>
        <time>2015-11-28T15:51:27Z</time>
      </trkpt>
      <trkpt lat="44.51422" lon="0.93688">
        <ele>80.41</ele>
        <time>2015-11-28T15:51:43Z</time>
      </trkpt>
      <trkpt lat="44.5141" lon="0.93691">
        <ele>80.41</ele>
        <time>2015-11-28T15:51:46Z</time>
      </trkpt>
      <trkpt lat="44.51405" lon="0.93692">
        <ele>80.41</ele>
        <time>2015-11-28T15:51:47Z</time>
      </trkpt>
      <trkpt lat="44.51385" lon="0.93699">
        <ele>80.41</ele>
        <time>2015-11-28T15:51:52Z</time>
      </trkpt>
      <trkpt lat="44.51377" lon="0.93701">
        <ele>79.93</ele>
        <time>2015-11-28T15:51:54Z</time>
      </trkpt>
      <trkpt lat="44.51368" lon="0.93705">
        <ele>79.93</ele>
        <time>2015-11-28T15:51:56Z</time>
      </trkpt>
      <trkpt lat="44.51364" lon="0.93706">
        <ele>79.45</ele>
        <time>2015-11-28T15:51:57Z</time>
      </trkpt>
      <trkpt lat="44.51355" lon="0.9371">
        <ele>79.45</ele>
        <time>2015-11-28T15:51:59Z</time>
      </trkpt>
      <trkpt lat="44.51346" lon="0.93714">
        <ele>78.97</ele>
        <time>2015-11-28T15:52:01Z</time>
      </trkpt>
      <trkpt lat="44.51342" lon="0.93716">
        <ele>78.97</ele>
        <time>2015-11-28T15:52:02Z</time>
      </trkpt>
      <trkpt lat="44.5128" lon="0.93744">
        <ele>77.52</ele>
        <time>2015-11-28T15:52:15Z</time>
      </trkpt>
      <trkpt lat="44.51275" lon="0.93746">
        <ele>77.52</ele>
        <time>2015-11-28T15:52:16Z</time>
      </trkpt>
      <trkpt lat="44.51271" lon="0.93749">
        <ele>77.52</ele>
        <time>2015-11-28T15:52:17Z</time>
      </trkpt>
      <trkpt lat="44.51266" lon="0.93751">
        <ele>77.52</ele>
        <time>2015-11-28T15:52:18Z</time>
      </trkpt>
      <trkpt lat="44.51261" lon="0.93753">
        <ele>78</ele>
        <time>2015-11-28T15:52:19Z</time>
      </trkpt>
      <trkpt lat="44.51256" lon="0.93755">
        <ele>78</ele>
        <time>2015-11-28T15:52:20Z</time>
      </trkpt>
      <trkpt lat="44.51252" lon="0.93757">
        <ele>78</ele>
        <time>2015-11-28T15:52:21Z</time>
      </trkpt>
      <trkpt lat="44.51217" lon="0.93777">
        <ele>78</ele>
        <time>2015-11-28T15:52:29Z</time>
      </trkpt>
      <trkpt lat="44.51213" lon="0.9378">
        <ele>78</ele>
        <time>2015-11-28T15:52:30Z</time>
      </trkpt>
      <trkpt lat="44.51196" lon="0.93788">
        <ele>78</ele>
        <time>2015-11-28T15:52:34Z</time>
      </trkpt>
      <trkpt lat="44.51179" lon="0.93797">
        <ele>78</ele>
        <time>2015-11-28T15:52:38Z</time>
      </trkpt>
      <trkpt lat="44.51175" lon="0.938">
        <ele>78</ele>
        <time>2015-11-28T15:52:39Z</time>
      </trkpt>
      <trkpt lat="44.51171" lon="0.93802">
        <ele>78</ele>
        <time>2015-11-28T15:52:40Z</time>
      </trkpt>
      <trkpt lat="44.51141" lon="0.93833">
        <ele>78.48</ele>
        <time>2015-11-28T15:52:50Z</time>
      </trkpt>
      <trkpt lat="44.51098" lon="0.93849">
        <ele>81.37</ele>
        <time>2015-11-28T15:53:01Z</time>
      </trkpt>
      <trkpt lat="44.51089" lon="0.93853">
        <ele>81.37</ele>
        <time>2015-11-28T15:53:03Z</time>
      </trkpt>
      <trkpt lat="44.51085" lon="0.93856">
        <ele>81.85</ele>
        <time>2015-11-28T15:53:04Z</time>
      </trkpt>
      <trkpt lat="44.51058" lon="0.93873">
        <ele>81.37</ele>
        <time>2015-11-28T15:53:11Z</time>
      </trkpt>
      <trkpt lat="44.51054" lon="0.93876">
        <ele>81.37</ele>
        <time>2015-11-28T15:53:12Z</time>
      </trkpt>
      <trkpt lat="44.51042" lon="0.93886">
        <ele>80.89</ele>
        <time>2015-11-28T15:53:15Z</time>
      </trkpt>
      <trkpt lat="44.51039" lon="0.93888">
        <ele>80.89</ele>
        <time>2015-11-28T15:53:16Z</time>
      </trkpt>
      <trkpt lat="44.51034" lon="0.93891">
        <ele>80.89</ele>
        <time>2015-11-28T15:53:17Z</time>
      </trkpt>
      <trkpt lat="44.5099" lon="0.93924">
        <ele>82.33</ele>
        <time>2015-11-28T15:53:30Z</time>
      </trkpt>
      <trkpt lat="44.50943" lon="0.93958">
        <ele>84.73</ele>
        <time>2015-11-28T15:53:44Z</time>
      </trkpt>
      <trkpt lat="44.50929" lon="0.93969">
        <ele>84.73</ele>
        <time>2015-11-28T15:53:48Z</time>
      </trkpt>
      <trkpt lat="44.50925" lon="0.93972">
        <ele>85.21</ele>
        <time>2015-11-28T15:53:49Z</time>
      </trkpt>
      <trkpt lat="44.50922" lon="0.93975">
        <ele>85.21</ele>
        <time>2015-11-28T15:53:50Z</time>
      </trkpt>
      <trkpt lat="44.50918" lon="0.93978">
        <ele>85.69</ele>
        <time>2015-11-28T15:53:51Z</time>
      </trkpt>
      <trkpt lat="44.50914" lon="0.9398">
        <ele>85.69</ele>
        <time>2015-11-28T15:53:52Z</time>
      </trkpt>
      <trkpt lat="44.50861" lon="0.94016">
        <ele>85.69</ele>
        <time>2015-11-28T15:54:07Z</time>
      </trkpt>
      <trkpt lat="44.50823" lon="0.94048">
        <ele>87.14</ele>
        <time>2015-11-28T15:54:19Z</time>
      </trkpt>
      <trkpt lat="44.50785" lon="0.9408">
        <ele>86.66</ele>
        <time>2015-11-28T15:54:32Z</time>
      </trkpt>
      <trkpt lat="44.50746" lon="0.94109">
        <ele>86.66</ele>
        <time>2015-11-28T15:54:47Z</time>
      </trkpt>
      <trkpt lat="44.5073" lon="0.94119">
        <ele>87.14</ele>
        <time>2015-11-28T15:54:54Z</time>
      </trkpt>
      <trkpt lat="44.50728" lon="0.9412">
        <ele>86.66</ele>
        <time>2015-11-28T15:54:55Z</time>
      </trkpt>
      <trkpt lat="44.50727" lon="0.94122">
        <ele>86.66</ele>
        <time>2015-11-28T15:54:56Z</time>
      </trkpt>
      <trkpt lat="44.50725" lon="0.94123">
        <ele>86.66</ele>
        <time>2015-11-28T15:54:57Z</time>
      </trkpt>
      <trkpt lat="44.50724" lon="0.94125">
        <ele>86.66</ele>
        <time>2015-11-28T15:54:58Z</time>
      </trkpt>
      <trkpt lat="44.50723" lon="0.94126">
        <ele>86.66</ele>
        <time>2015-11-28T15:54:59Z</time>
      </trkpt>
      <trkpt lat="44.50722" lon="0.94127">
        <ele>86.18</ele>
        <time>2015-11-28T15:55:00Z</time>
      </trkpt>
      <trkpt lat="44.50721" lon="0.94128">
        <ele>86.66</ele>
        <time>2015-11-28T15:55:01Z</time>
      </trkpt>
      <trkpt lat="44.5072" lon="0.9413">
        <ele>86.66</ele>
        <time>2015-11-28T15:55:02Z</time>
      </trkpt>
      <trkpt lat="44.5072" lon="0.94131">
        <ele>86.66</ele>
        <time>2015-11-28T15:55:03Z</time>
      </trkpt>
      <trkpt lat="44.5072" lon="0.94132">
        <ele>86.66</ele>
        <time>2015-11-28T15:55:04Z</time>
      </trkpt>
      <trkpt lat="44.5072" lon="0.94134">
        <ele>86.66</ele>
        <time>2015-11-28T15:55:05Z</time>
      </trkpt>
      <trkpt lat="44.5072" lon="0.94136">
        <ele>86.66</ele>
        <time>2015-11-28T15:55:06Z</time>
      </trkpt>
      <trkpt lat="44.50719" lon="0.94137">
        <ele>86.18</ele>
        <time>2015-11-28T15:55:07Z</time>
      </trkpt>
      <trkpt lat="44.50719" lon="0.94138">
        <ele>84.25</ele>
        <time>2015-11-28T15:55:19Z</time>
      </trkpt>
      <trkpt lat="44.50717" lon="0.94137">
        <ele>84.73</ele>
        <time>2015-11-28T15:55:31Z</time>
      </trkpt>
      <trkpt lat="44.50716" lon="0.94138">
        <ele>85.69</ele>
        <time>2015-11-28T15:55:48Z</time>
      </trkpt>
      <trkpt lat="44.50715" lon="0.94139">
        <ele>85.69</ele>
        <time>2015-11-28T15:55:49Z</time>
      </trkpt>
      <trkpt lat="44.50714" lon="0.94141">
        <ele>85.21</ele>
        <time>2015-11-28T15:55:50Z</time>
      </trkpt>
      <trkpt lat="44.50712" lon="0.94142">
        <ele>85.21</ele>
        <time>2015-11-28T15:55:51Z</time>
      </trkpt>
      <trkpt lat="44.50711" lon="0.94142">
        <ele>85.21</ele>
        <time>2015-11-28T15:55:52Z</time>
      </trkpt>
      <trkpt lat="44.50678" lon="0.94151">
        <ele>84.25</ele>
        <time>2015-11-28T15:56:03Z</time>
      </trkpt>
      <trkpt lat="44.50673" lon="0.94152">
        <ele>83.77</ele>
        <time>2015-11-28T15:56:04Z</time>
      </trkpt>
      <trkpt lat="44.50668" lon="0.94152">
        <ele>83.29</ele>
        <time>2015-11-28T15:56:05Z</time>
      </trkpt>
      <trkpt lat="44.50627" lon="0.94157">
        <ele>80.89</ele>
        <time>2015-11-28T15:56:13Z</time>
      </trkpt>
      <trkpt lat="44.50544" lon="0.9417">
        <ele>78.48</ele>
        <time>2015-11-28T15:56:27Z</time>
      </trkpt>
      <trkpt lat="44.50532" lon="0.94171">
        <ele>78</ele>
        <time>2015-11-28T15:56:29Z</time>
      </trkpt>
      <trkpt lat="44.50506" lon="0.94171">
        <ele>77.52</ele>
        <time>2015-11-28T15:56:34Z</time>
      </trkpt>
      <trkpt lat="44.50496" lon="0.94173">
        <ele>77.04</ele>
        <time>2015-11-28T15:56:36Z</time>
      </trkpt>
      <trkpt lat="44.50461" lon="0.94175">
        <ele>76.56</ele>
        <time>2015-11-28T15:56:43Z</time>
      </trkpt>
      <trkpt lat="44.50374" lon="0.94181">
        <ele>73.68</ele>
        <time>2015-11-28T15:57:01Z</time>
      </trkpt>
      <trkpt lat="44.50316" lon="0.94185">
        <ele>73.68</ele>
        <time>2015-11-28T15:57:13Z</time>
      </trkpt>
      <trkpt lat="44.50292" lon="0.94187">
        <ele>74.16</ele>
        <time>2015-11-28T15:57:18Z</time>
      </trkpt>
      <trkpt lat="44.50278" lon="0.94188">
        <ele>73.68</ele>
        <time>2015-11-28T15:57:21Z</time>
      </trkpt>
      <trkpt lat="44.50256" lon="0.94189">
        <ele>74.16</ele>
        <time>2015-11-28T15:57:26Z</time>
      </trkpt>
      <trkpt lat="44.50186" lon="0.94196">
        <ele>75.12</ele>
        <time>2015-11-28T15:57:41Z</time>
      </trkpt>
      <trkpt lat="44.50137" lon="0.94205">
        <ele>78.97</ele>
        <time>2015-11-28T15:57:55Z</time>
      </trkpt>
      <trkpt lat="44.50094" lon="0.94215">
        <ele>80.89</ele>
        <time>2015-11-28T15:58:06Z</time>
      </trkpt>
      <trkpt lat="44.50084" lon="0.94217">
        <ele>80.89</ele>
        <time>2015-11-28T15:58:08Z</time>
      </trkpt>
      <trkpt lat="44.50039" lon="0.94217">
        <ele>79.93</ele>
        <time>2015-11-28T15:58:16Z</time>
      </trkpt>
      <trkpt lat="44.50029" lon="0.94214">
        <ele>79.93</ele>
        <time>2015-11-28T15:58:18Z</time>
      </trkpt>
      <trkpt lat="44.50015" lon="0.94208">
        <ele>79.93</ele>
        <time>2015-11-28T15:58:21Z</time>
      </trkpt>
      <trkpt lat="44.49944" lon="0.94211">
        <ele>74.64</ele>
        <time>2015-11-28T15:58:34Z</time>
      </trkpt>
      <trkpt lat="44.49926" lon="0.94211">
        <ele>73.68</ele>
        <time>2015-11-28T15:58:38Z</time>
      </trkpt>
      <trkpt lat="44.49848" lon="0.94218">
        <ele>72.72</ele>
        <time>2015-11-28T15:58:56Z</time>
      </trkpt>
      <trkpt lat="44.49797" lon="0.94234">
        <ele>75.6</ele>
        <time>2015-11-28T15:59:10Z</time>
      </trkpt>
      <trkpt lat="44.49792" lon="0.94232">
        <ele>75.6</ele>
        <time>2015-11-28T15:59:12Z</time>
      </trkpt>
      <trkpt lat="44.4979" lon="0.94229">
        <ele>76.08</ele>
        <time>2015-11-28T15:59:13Z</time>
      </trkpt>
      <trkpt lat="44.49789" lon="0.94225">
        <ele>76.08</ele>
        <time>2015-11-28T15:59:14Z</time>
      </trkpt>
      <trkpt lat="44.49789" lon="0.94222">
        <ele>76.08</ele>
        <time>2015-11-28T15:59:15Z</time>
      </trkpt>
      <trkpt lat="44.49788" lon="0.94219">
        <ele>76.08</ele>
        <time>2015-11-28T15:59:16Z</time>
      </trkpt>
      <trkpt lat="44.49787" lon="0.94216">
        <ele>76.08</ele>
        <time>2015-11-28T15:59:17Z</time>
      </trkpt>
      <trkpt lat="44.49787" lon="0.94212">
        <ele>76.08</ele>
        <time>2015-11-28T15:59:18Z</time>
      </trkpt>
      <trkpt lat="44.49786" lon="0.94209">
        <ele>76.08</ele>
        <time>2015-11-28T15:59:19Z</time>
      </trkpt>
      <trkpt lat="44.49786" lon="0.94205">
        <ele>76.56</ele>
        <time>2015-11-28T15:59:20Z</time>
      </trkpt>
      <trkpt lat="44.49782" lon="0.94162">
        <ele>79.45</ele>
        <time>2015-11-28T15:59:34Z</time>
      </trkpt>
      <trkpt lat="44.49776" lon="0.94112">
        <ele>81.37</ele>
        <time>2015-11-28T15:59:51Z</time>
      </trkpt>
      <trkpt lat="44.49758" lon="0.94071">
        <ele>83.77</ele>
        <time>2015-11-28T16:00:06Z</time>
      </trkpt>
      <trkpt lat="44.49731" lon="0.94028">
        <ele>87.62</ele>
        <time>2015-11-28T16:00:24Z</time>
      </trkpt>
      <trkpt lat="44.4971" lon="0.93992">
        <ele>90.98</ele>
        <time>2015-11-28T16:00:40Z</time>
      </trkpt>
      <trkpt lat="44.49702" lon="0.93986">
        <ele>92.42</ele>
        <time>2015-11-28T16:00:53Z</time>
      </trkpt>
      <trkpt lat="44.49702" lon="0.93986">
        <ele>90.5</ele>
        <time>2015-11-28T16:01:10Z</time>
      </trkpt>
      <trkpt lat="44.49701" lon="0.93985">
        <ele>90.98</ele>
        <time>2015-11-28T16:01:30Z</time>
      </trkpt>
      <trkpt lat="44.497" lon="0.93985">
        <ele>91.46</ele>
        <time>2015-11-28T16:01:50Z</time>
      </trkpt>
      <trkpt lat="44.49699" lon="0.93985">
        <ele>91.46</ele>
        <time>2015-11-28T16:01:52Z</time>
      </trkpt>
      <trkpt lat="44.49698" lon="0.93986">
        <ele>91.46</ele>
        <time>2015-11-28T16:01:53Z</time>
      </trkpt>
      <trkpt lat="44.49696" lon="0.93987">
        <ele>91.46</ele>
        <time>2015-11-28T16:01:54Z</time>
      </trkpt>
      <trkpt lat="44.49694" lon="0.93988">
        <ele>91.94</ele>
        <time>2015-11-28T16:01:55Z</time>
      </trkpt>
      <trkpt lat="44.49692" lon="0.9399">
        <ele>91.94</ele>
        <time>2015-11-28T16:01:56Z</time>
      </trkpt>
      <trkpt lat="44.4969" lon="0.93992">
        <ele>91.94</ele>
        <time>2015-11-28T16:01:57Z</time>
      </trkpt>
      <trkpt lat="44.49688" lon="0.93994">
        <ele>91.94</ele>
        <time>2015-11-28T16:01:58Z</time>
      </trkpt>
      <trkpt lat="44.49686" lon="0.93997">
        <ele>92.42</ele>
        <time>2015-11-28T16:01:59Z</time>
      </trkpt>
      <trkpt lat="44.49683" lon="0.94">
        <ele>92.42</ele>
        <time>2015-11-28T16:02:00Z</time>
      </trkpt>
      <trkpt lat="44.49669" lon="0.94023">
        <ele>92.9</ele>
        <time>2015-11-28T16:02:06Z</time>
      </trkpt>
      <trkpt lat="44.49667" lon="0.94028">
        <ele>92.42</ele>
        <time>2015-11-28T16:02:07Z</time>
      </trkpt>
      <trkpt lat="44.49665" lon="0.94034">
        <ele>92.42</ele>
        <time>2015-11-28T16:02:08Z</time>
      </trkpt>
      <trkpt lat="44.49663" lon="0.9404">
        <ele>92.42</ele>
        <time>2015-11-28T16:02:09Z</time>
      </trkpt>
      <trkpt lat="44.4966" lon="0.94046">
        <ele>91.94</ele>
        <time>2015-11-28T16:02:10Z</time>
      </trkpt>
      <trkpt lat="44.49656" lon="0.94051">
        <ele>91.94</ele>
        <time>2015-11-28T16:02:11Z</time>
      </trkpt>
      <trkpt lat="44.49649" lon="0.94062">
        <ele>91.94</ele>
        <time>2015-11-28T16:02:13Z</time>
      </trkpt>
      <trkpt lat="44.49626" lon="0.9409">
        <ele>91.94</ele>
        <time>2015-11-28T16:02:19Z</time>
      </trkpt>
      <trkpt lat="44.49623" lon="0.94095">
        <ele>91.46</ele>
        <time>2015-11-28T16:02:20Z</time>
      </trkpt>
      <trkpt lat="44.49579" lon="0.94167">
        <ele>90.5</ele>
        <time>2015-11-28T16:02:33Z</time>
      </trkpt>
      <trkpt lat="44.49522" lon="0.94248">
        <ele>86.66</ele>
        <time>2015-11-28T16:02:46Z</time>
      </trkpt>
      <trkpt lat="44.49465" lon="0.94301">
        <ele>90.98</ele>
        <time>2015-11-28T16:02:57Z</time>
      </trkpt>
      <trkpt lat="44.49447" lon="0.94309">
        <ele>92.42</ele>
        <time>2015-11-28T16:03:01Z</time>
      </trkpt>
      <trkpt lat="44.49379" lon="0.94323">
        <ele>87.14</ele>
        <time>2015-11-28T16:03:11Z</time>
      </trkpt>
      <trkpt lat="44.49344" lon="0.94332">
        <ele>85.21</ele>
        <time>2015-11-28T16:03:15Z</time>
      </trkpt>
      <trkpt lat="44.49335" lon="0.94338">
        <ele>84.73</ele>
        <time>2015-11-28T16:03:16Z</time>
      </trkpt>
      <trkpt lat="44.49328" lon="0.94347">
        <ele>83.77</ele>
        <time>2015-11-28T16:03:17Z</time>
      </trkpt>
      <trkpt lat="44.49323" lon="0.94357">
        <ele>83.29</ele>
        <time>2015-11-28T16:03:18Z</time>
      </trkpt>
      <trkpt lat="44.49317" lon="0.94367">
        <ele>82.81</ele>
        <time>2015-11-28T16:03:19Z</time>
      </trkpt>
      <trkpt lat="44.49289" lon="0.94411">
        <ele>78.48</ele>
        <time>2015-11-28T16:03:25Z</time>
      </trkpt>
      <trkpt lat="44.49277" lon="0.94434">
        <ele>76.56</ele>
        <time>2015-11-28T16:03:28Z</time>
      </trkpt>
      <trkpt lat="44.49254" lon="0.94463">
        <ele>73.2</ele>
        <time>2015-11-28T16:03:36Z</time>
      </trkpt>
      <trkpt lat="44.49255" lon="0.94463">
        <ele>71.76</ele>
        <time>2015-11-28T16:03:57Z</time>
      </trkpt>
      <trkpt lat="44.49255" lon="0.94463">
        <ele>71.76</ele>
        <time>2015-11-28T16:03:58Z</time>
      </trkpt>
      <trkpt lat="44.49254" lon="0.94465">
        <ele>71.76</ele>
        <time>2015-11-28T16:03:59Z</time>
      </trkpt>
      <trkpt lat="44.49254" lon="0.94468">
        <ele>71.76</ele>
        <time>2015-11-28T16:04:00Z</time>
      </trkpt>
      <trkpt lat="44.49255" lon="0.94473">
        <ele>71.27</ele>
        <time>2015-11-28T16:04:01Z</time>
      </trkpt>
      <trkpt lat="44.49256" lon="0.94478">
        <ele>71.27</ele>
        <time>2015-11-28T16:04:02Z</time>
      </trkpt>
      <trkpt lat="44.49257" lon="0.94483">
        <ele>71.27</ele>
        <time>2015-11-28T16:04:03Z</time>
      </trkpt>
      <trkpt lat="44.49259" lon="0.94494">
        <ele>70.79</ele>
        <time>2015-11-28T16:04:05Z</time>
      </trkpt>
      <trkpt lat="44.4926" lon="0.94498">
        <ele>70.79</ele>
        <time>2015-11-28T16:04:06Z</time>
      </trkpt>
      <trkpt lat="44.4926" lon="0.94503">
        <ele>70.79</ele>
        <time>2015-11-28T16:04:07Z</time>
      </trkpt>
      <trkpt lat="44.49258" lon="0.94508">
        <ele>71.27</ele>
        <time>2015-11-28T16:04:08Z</time>
      </trkpt>
      <trkpt lat="44.49254" lon="0.94512">
        <ele>71.27</ele>
        <time>2015-11-28T16:04:09Z</time>
      </trkpt>
      <trkpt lat="44.4925" lon="0.94515">
        <ele>71.27</ele>
        <time>2015-11-28T16:04:10Z</time>
      </trkpt>
      <trkpt lat="44.49246" lon="0.94517">
        <ele>71.27</ele>
        <time>2015-11-28T16:04:11Z</time>
      </trkpt>
      <trkpt lat="44.49215" lon="0.94526">
        <ele>70.79</ele>
        <time>2015-11-28T16:04:18Z</time>
      </trkpt>
      <trkpt lat="44.4921" lon="0.94527">
        <ele>70.79</ele>
        <time>2015-11-28T16:04:19Z</time>
      </trkpt>
      <trkpt lat="44.492" lon="0.9453">
        <ele>70.79</ele>
        <time>2015-11-28T16:04:21Z</time>
      </trkpt>
      <trkpt lat="44.49196" lon="0.9453">
        <ele>70.79</ele>
        <time>2015-11-28T16:04:22Z</time>
      </trkpt>
      <trkpt lat="44.49192" lon="0.94531">
        <ele>70.79</ele>
        <time>2015-11-28T16:04:23Z</time>
      </trkpt>
      <trkpt lat="44.49188" lon="0.94532">
        <ele>71.27</ele>
        <time>2015-11-28T16:04:24Z</time>
      </trkpt>
      <trkpt lat="44.49184" lon="0.94533">
        <ele>71.27</ele>
        <time>2015-11-28T16:04:25Z</time>
      </trkpt>
      <trkpt lat="44.49179" lon="0.94535">
        <ele>71.27</ele>
        <time>2015-11-28T16:04:26Z</time>
      </trkpt>
      <trkpt lat="44.49175" lon="0.94537">
        <ele>71.27</ele>
        <time>2015-11-28T16:04:27Z</time>
      </trkpt>
      <trkpt lat="44.49165" lon="0.9454">
        <ele>71.27</ele>
        <time>2015-11-28T16:04:29Z</time>
      </trkpt>
      <trkpt lat="44.49161" lon="0.94542">
        <ele>71.76</ele>
        <time>2015-11-28T16:04:30Z</time>
      </trkpt>
      <trkpt lat="44.49151" lon="0.94545">
        <ele>71.76</ele>
        <time>2015-11-28T16:04:32Z</time>
      </trkpt>
      <trkpt lat="44.49146" lon="0.94546">
        <ele>72.24</ele>
        <time>2015-11-28T16:04:33Z</time>
      </trkpt>
      <trkpt lat="44.4914" lon="0.94546">
        <ele>72.24</ele>
        <time>2015-11-28T16:04:34Z</time>
      </trkpt>
      <trkpt lat="44.4913" lon="0.94544">
        <ele>72.72</ele>
        <time>2015-11-28T16:04:36Z</time>
      </trkpt>
      <trkpt lat="44.4911" lon="0.94541">
        <ele>72.72</ele>
        <time>2015-11-28T16:04:40Z</time>
      </trkpt>
      <trkpt lat="44.49105" lon="0.94541">
        <ele>72.72</ele>
        <time>2015-11-28T16:04:41Z</time>
      </trkpt>
      <trkpt lat="44.49101" lon="0.94541">
        <ele>73.2</ele>
        <time>2015-11-28T16:04:42Z</time>
      </trkpt>
      <trkpt lat="44.49096" lon="0.94542">
        <ele>73.68</ele>
        <time>2015-11-28T16:04:43Z</time>
      </trkpt>
      <trkpt lat="44.49091" lon="0.94542">
        <ele>73.68</ele>
        <time>2015-11-28T16:04:44Z</time>
      </trkpt>
      <trkpt lat="44.49087" lon="0.94543">
        <ele>74.16</ele>
        <time>2015-11-28T16:04:45Z</time>
      </trkpt>
      <trkpt lat="44.49067" lon="0.94544">
        <ele>76.08</ele>
        <time>2015-11-28T16:04:49Z</time>
      </trkpt>
      <trkpt lat="44.49061" lon="0.94544">
        <ele>77.04</ele>
        <time>2015-11-28T16:04:50Z</time>
      </trkpt>
      <trkpt lat="44.49051" lon="0.94545">
        <ele>78</ele>
        <time>2015-11-28T16:04:52Z</time>
      </trkpt>
      <trkpt lat="44.49046" lon="0.94545">
        <ele>78</ele>
        <time>2015-11-28T16:04:53Z</time>
      </trkpt>
      <trkpt lat="44.49015" lon="0.94549">
        <ele>79.45</ele>
        <time>2015-11-28T16:04:59Z</time>
      </trkpt>
      <trkpt lat="44.48981" lon="0.94563">
        <ele>78.48</ele>
        <time>2015-11-28T16:05:07Z</time>
      </trkpt>
      <trkpt lat="44.48976" lon="0.94565">
        <ele>78.48</ele>
        <time>2015-11-28T16:05:08Z</time>
      </trkpt>
      <trkpt lat="44.48929" lon="0.94591">
        <ele>78.97</ele>
        <time>2015-11-28T16:05:19Z</time>
      </trkpt>
      <trkpt lat="44.48918" lon="0.94581">
        <ele>78.48</ele>
        <time>2015-11-28T16:05:23Z</time>
      </trkpt>
      <trkpt lat="44.48908" lon="0.94552">
        <ele>78.48</ele>
        <time>2015-11-28T16:05:30Z</time>
      </trkpt>
      <trkpt lat="44.48906" lon="0.94551">
        <ele>78.48</ele>
        <time>2015-11-28T16:05:31Z</time>
      </trkpt>
      <trkpt lat="44.48869" lon="0.94563">
        <ele>78.97</ele>
        <time>2015-11-28T16:05:42Z</time>
      </trkpt>
      <trkpt lat="44.48865" lon="0.94567">
        <ele>78.48</ele>
        <time>2015-11-28T16:05:43Z</time>
      </trkpt>
      <trkpt lat="44.48861" lon="0.9457">
        <ele>78</ele>
        <time>2015-11-28T16:05:44Z</time>
      </trkpt>
      <trkpt lat="44.48852" lon="0.94577">
        <ele>77.04</ele>
        <time>2015-11-28T16:05:46Z</time>
      </trkpt>
      <trkpt lat="44.48824" lon="0.94592">
        <ele>74.64</ele>
        <time>2015-11-28T16:05:51Z</time>
      </trkpt>
      <trkpt lat="44.48812" lon="0.94593">
        <ele>73.2</ele>
        <time>2015-11-28T16:05:53Z</time>
      </trkpt>
      <trkpt lat="44.48783" lon="0.94579">
        <ele>70.31</ele>
        <time>2015-11-28T16:05:58Z</time>
      </trkpt>
      <trkpt lat="44.48773" lon="0.94569">
        <ele>69.83</ele>
        <time>2015-11-28T16:06:00Z</time>
      </trkpt>
      <trkpt lat="44.48763" lon="0.94557">
        <ele>69.83</ele>
        <time>2015-11-28T16:06:02Z</time>
      </trkpt>
      <trkpt lat="44.48749" lon="0.94534">
        <ele>69.83</ele>
        <time>2015-11-28T16:06:06Z</time>
      </trkpt>
      <trkpt lat="44.48726" lon="0.94527">
        <ele>68.87</ele>
        <time>2015-11-28T16:06:14Z</time>
      </trkpt>
      <trkpt lat="44.48718" lon="0.94538">
        <ele>67.91</ele>
        <time>2015-11-28T16:06:22Z</time>
      </trkpt>
      <trkpt lat="44.48702" lon="0.94531">
        <ele>68.39</ele>
        <time>2015-11-28T16:06:29Z</time>
      </trkpt>
      <trkpt lat="44.487" lon="0.94528">
        <ele>67.91</ele>
        <time>2015-11-28T16:06:30Z</time>
      </trkpt>
      <trkpt lat="44.48697" lon="0.94524">
        <ele>67.91</ele>
        <time>2015-11-28T16:06:31Z</time>
      </trkpt>
      <trkpt lat="44.48683" lon="0.94501">
        <ele>66.95</ele>
        <time>2015-11-28T16:06:36Z</time>
      </trkpt>
      <trkpt lat="44.48681" lon="0.94494">
        <ele>66.95</ele>
        <time>2015-11-28T16:06:37Z</time>
      </trkpt>
      <trkpt lat="44.48681" lon="0.94488">
        <ele>66.47</ele>
        <time>2015-11-28T16:06:38Z</time>
      </trkpt>
      <trkpt lat="44.48681" lon="0.9448">
        <ele>66.47</ele>
        <time>2015-11-28T16:06:39Z</time>
      </trkpt>
      <trkpt lat="44.48681" lon="0.94473">
        <ele>65.99</ele>
        <time>2015-11-28T16:06:40Z</time>
      </trkpt>
      <trkpt lat="44.4868" lon="0.94465">
        <ele>65.99</ele>
        <time>2015-11-28T16:06:41Z</time>
      </trkpt>
      <trkpt lat="44.48679" lon="0.94458">
        <ele>65.99</ele>
        <time>2015-11-28T16:06:42Z</time>
      </trkpt>
      <trkpt lat="44.48676" lon="0.94451">
        <ele>65.51</ele>
        <time>2015-11-28T16:06:43Z</time>
      </trkpt>
      <trkpt lat="44.48672" lon="0.94446">
        <ele>65.51</ele>
        <time>2015-11-28T16:06:44Z</time>
      </trkpt>
      <trkpt lat="44.48669" lon="0.9444">
        <ele>65.03</ele>
        <time>2015-11-28T16:06:45Z</time>
      </trkpt>
      <trkpt lat="44.48652" lon="0.94414">
        <ele>65.03</ele>
        <time>2015-11-28T16:06:50Z</time>
      </trkpt>
      <trkpt lat="44.4865" lon="0.94409">
        <ele>64.55</ele>
        <time>2015-11-28T16:06:51Z</time>
      </trkpt>
      <trkpt lat="44.48646" lon="0.94407">
        <ele>64.55</ele>
        <time>2015-11-28T16:06:52Z</time>
      </trkpt>
      <trkpt lat="44.48642" lon="0.94406">
        <ele>64.07</ele>
        <time>2015-11-28T16:06:53Z</time>
      </trkpt>
      <trkpt lat="44.48638" lon="0.94408">
        <ele>64.07</ele>
        <time>2015-11-28T16:06:54Z</time>
      </trkpt>
      <trkpt lat="44.48634" lon="0.94412">
        <ele>64.07</ele>
        <time>2015-11-28T16:06:55Z</time>
      </trkpt>
      <trkpt lat="44.48631" lon="0.94416">
        <ele>64.07</ele>
        <time>2015-11-28T16:06:56Z</time>
      </trkpt>
      <trkpt lat="44.48625" lon="0.94427">
        <ele>64.07</ele>
        <time>2015-11-28T16:06:58Z</time>
      </trkpt>
      <trkpt lat="44.48612" lon="0.94448">
        <ele>64.07</ele>
        <time>2015-11-28T16:07:02Z</time>
      </trkpt>
      <trkpt lat="44.48598" lon="0.94465">
        <ele>64.55</ele>
        <time>2015-11-28T16:07:06Z</time>
      </trkpt>
      <trkpt lat="44.48594" lon="0.94468">
        <ele>65.03</ele>
        <time>2015-11-28T16:07:07Z</time>
      </trkpt>
      <trkpt lat="44.48589" lon="0.94469">
        <ele>65.03</ele>
        <time>2015-11-28T16:07:08Z</time>
      </trkpt>
      <trkpt lat="44.48584" lon="0.94467">
        <ele>65.03</ele>
        <time>2015-11-28T16:07:09Z</time>
      </trkpt>
      <trkpt lat="44.4858" lon="0.94466">
        <ele>65.03</ele>
        <time>2015-11-28T16:07:10Z</time>
      </trkpt>
      <trkpt lat="44.48566" lon="0.9446">
        <ele>65.03</ele>
        <time>2015-11-28T16:07:13Z</time>
      </trkpt>
      <trkpt lat="44.48563" lon="0.94457">
        <ele>65.03</ele>
        <time>2015-11-28T16:07:14Z</time>
      </trkpt>
      <trkpt lat="44.48543" lon="0.94433">
        <ele>65.51</ele>
        <time>2015-11-28T16:07:22Z</time>
      </trkpt>
      <trkpt lat="44.48539" lon="0.94421">
        <ele>65.99</ele>
        <time>2015-11-28T16:07:24Z</time>
      </trkpt>
      <trkpt lat="44.48519" lon="0.94419">
        <ele>66.47</ele>
        <time>2015-11-28T16:07:29Z</time>
      </trkpt>
      <trkpt lat="44.485" lon="0.94428">
        <ele>66.47</ele>
        <time>2015-11-28T16:07:33Z</time>
      </trkpt>
      <trkpt lat="44.48467" lon="0.94439">
        <ele>65.99</ele>
        <time>2015-11-28T16:07:39Z</time>
      </trkpt>
      <trkpt lat="44.48444" lon="0.94443">
        <ele>65.51</ele>
        <time>2015-11-28T16:07:48Z</time>
      </trkpt>
      <trkpt lat="44.48442" lon="0.94446">
        <ele>66.47</ele>
        <time>2015-11-28T16:08:01Z</time>
      </trkpt>
      <trkpt lat="44.4844" lon="0.9445">
        <ele>66.95</ele>
        <time>2015-11-28T16:08:11Z</time>
      </trkpt>
      <trkpt lat="44.48439" lon="0.94453">
        <ele>68.39</ele>
        <time>2015-11-28T16:08:25Z</time>
      </trkpt>
      <trkpt lat="44.48439" lon="0.94456">
        <ele>68.39</ele>
        <time>2015-11-28T16:08:28Z</time>
      </trkpt>
      <trkpt lat="44.48439" lon="0.94465">
        <ele>68.87</ele>
        <time>2015-11-28T16:08:34Z</time>
      </trkpt>
      <trkpt lat="44.48434" lon="0.94473">
        <ele>69.35</ele>
        <time>2015-11-28T16:08:37Z</time>
      </trkpt>
      <trkpt lat="44.48431" lon="0.94474">
        <ele>69.35</ele>
        <time>2015-11-28T16:08:38Z</time>
      </trkpt>
      <trkpt lat="44.48428" lon="0.94475">
        <ele>69.35</ele>
        <time>2015-11-28T16:08:39Z</time>
      </trkpt>
      <trkpt lat="44.48425" lon="0.94476">
        <ele>69.35</ele>
        <time>2015-11-28T16:08:40Z</time>
      </trkpt>
      <trkpt lat="44.48404" lon="0.94468">
        <ele>68.87</ele>
        <time>2015-11-28T16:08:47Z</time>
      </trkpt>
      <trkpt lat="44.48403" lon="0.94463">
        <ele>68.87</ele>
        <time>2015-11-28T16:08:48Z</time>
      </trkpt>
      <trkpt lat="44.48391" lon="0.94399">
        <ele>68.39</ele>
        <time>2015-11-28T16:09:01Z</time>
      </trkpt>
      <trkpt lat="44.48389" lon="0.94393">
        <ele>67.91</ele>
        <time>2015-11-28T16:09:10Z</time>
      </trkpt>
      <trkpt lat="44.48387" lon="0.94392">
        <ele>67.91</ele>
        <time>2015-11-28T16:09:11Z</time>
      </trkpt>
      <trkpt lat="44.48385" lon="0.94392">
        <ele>67.91</ele>
        <time>2015-11-28T16:09:12Z</time>
      </trkpt>
      <trkpt lat="44.48382" lon="0.94392">
        <ele>67.91</ele>
        <time>2015-11-28T16:09:13Z</time>
      </trkpt>
      <trkpt lat="44.48378" lon="0.94393">
        <ele>67.91</ele>
        <time>2015-11-28T16:09:14Z</time>
      </trkpt>
      <trkpt lat="44.48374" lon="0.94393">
        <ele>67.91</ele>
        <time>2015-11-28T16:09:15Z</time>
      </trkpt>
      <trkpt lat="44.4831" lon="0.94408">
        <ele>68.39</ele>
        <time>2015-11-28T16:09:28Z</time>
      </trkpt>
      <trkpt lat="44.48245" lon="0.94421">
        <ele>68.39</ele>
        <time>2015-11-28T16:09:43Z</time>
      </trkpt>
      <trkpt lat="44.48241" lon="0.94413">
        <ele>68.39</ele>
        <time>2015-11-28T16:09:45Z</time>
      </trkpt>
      <trkpt lat="44.4824" lon="0.94409">
        <ele>68.39</ele>
        <time>2015-11-28T16:09:46Z</time>
      </trkpt>
      <trkpt lat="44.48239" lon="0.94405">
        <ele>68.39</ele>
        <time>2015-11-28T16:09:47Z</time>
      </trkpt>
      <trkpt lat="44.48238" lon="0.94402">
        <ele>68.39</ele>
        <time>2015-11-28T16:09:48Z</time>
      </trkpt>
      <trkpt lat="44.48238" lon="0.94399">
        <ele>68.87</ele>
        <time>2015-11-28T16:09:49Z</time>
      </trkpt>
      <trkpt lat="44.48237" lon="0.94395">
        <ele>68.87</ele>
        <time>2015-11-28T16:09:50Z</time>
      </trkpt>
      <trkpt lat="44.48235" lon="0.94392">
        <ele>68.87</ele>
        <time>2015-11-28T16:09:51Z</time>
      </trkpt>
      <trkpt lat="44.48233" lon="0.94391">
        <ele>68.39</ele>
        <time>2015-11-28T16:09:52Z</time>
      </trkpt>
      <trkpt lat="44.4823" lon="0.94391">
        <ele>68.87</ele>
        <time>2015-11-28T16:09:53Z</time>
      </trkpt>
      <trkpt lat="44.48226" lon="0.94392">
        <ele>68.87</ele>
        <time>2015-11-28T16:09:54Z</time>
      </trkpt>
      <trkpt lat="44.48222" lon="0.94393">
        <ele>68.87</ele>
        <time>2015-11-28T16:09:55Z</time>
      </trkpt>
      <trkpt lat="44.48218" lon="0.94396">
        <ele>68.87</ele>
        <time>2015-11-28T16:09:56Z</time>
      </trkpt>
      <trkpt lat="44.48214" lon="0.94397">
        <ele>68.87</ele>
        <time>2015-11-28T16:09:57Z</time>
      </trkpt>
      <trkpt lat="44.4821" lon="0.94398">
        <ele>68.87</ele>
        <time>2015-11-28T16:09:58Z</time>
      </trkpt>
      <trkpt lat="44.48125" lon="0.9442">
        <ele>68.39</ele>
        <time>2015-11-28T16:10:14Z</time>
      </trkpt>
      <trkpt lat="44.48072" lon="0.94434">
        <ele>67.91</ele>
        <time>2015-11-28T16:10:23Z</time>
      </trkpt>
      <trkpt lat="44.48066" lon="0.94435">
        <ele>67.91</ele>
        <time>2015-11-28T16:10:24Z</time>
      </trkpt>
      <trkpt lat="44.48062" lon="0.94438">
        <ele>68.39</ele>
        <time>2015-11-28T16:10:25Z</time>
      </trkpt>
      <trkpt lat="44.48059" lon="0.94442">
        <ele>67.91</ele>
        <time>2015-11-28T16:10:26Z</time>
      </trkpt>
      <trkpt lat="44.48058" lon="0.94448">
        <ele>67.91</ele>
        <time>2015-11-28T16:10:27Z</time>
      </trkpt>
      <trkpt lat="44.48059" lon="0.94455">
        <ele>67.91</ele>
        <time>2015-11-28T16:10:28Z</time>
      </trkpt>
      <trkpt lat="44.48061" lon="0.94462">
        <ele>67.91</ele>
        <time>2015-11-28T16:10:29Z</time>
      </trkpt>
      <trkpt lat="44.48064" lon="0.94468">
        <ele>67.91</ele>
        <time>2015-11-28T16:10:30Z</time>
      </trkpt>
      <trkpt lat="44.481" lon="0.94571">
        <ele>65.99</ele>
        <time>2015-11-28T16:10:44Z</time>
      </trkpt>
      <trkpt lat="44.48102" lon="0.94578">
        <ele>65.51</ele>
        <time>2015-11-28T16:10:45Z</time>
      </trkpt>
      <trkpt lat="44.48133" lon="0.94657">
        <ele>64.55</ele>
        <time>2015-11-28T16:10:57Z</time>
      </trkpt>
      <trkpt lat="44.48135" lon="0.94663">
        <ele>65.03</ele>
        <time>2015-11-28T16:10:58Z</time>
      </trkpt>
      <trkpt lat="44.48136" lon="0.94669">
        <ele>65.03</ele>
        <time>2015-11-28T16:10:59Z</time>
      </trkpt>
      <trkpt lat="44.48135" lon="0.94674">
        <ele>65.03</ele>
        <time>2015-11-28T16:11:00Z</time>
      </trkpt>
      <trkpt lat="44.48132" lon="0.94678">
        <ele>65.03</ele>
        <time>2015-11-28T16:11:01Z</time>
      </trkpt>
      <trkpt lat="44.48128" lon="0.94681">
        <ele>65.03</ele>
        <time>2015-11-28T16:11:02Z</time>
      </trkpt>
      <trkpt lat="44.48124" lon="0.94683">
        <ele>65.03</ele>
        <time>2015-11-28T16:11:03Z</time>
      </trkpt>
      <trkpt lat="44.48056" lon="0.94739">
        <ele>66.47</ele>
        <time>2015-11-28T16:11:18Z</time>
      </trkpt>
      <trkpt lat="44.48015" lon="0.94771">
        <ele>64.55</ele>
        <time>2015-11-28T16:11:28Z</time>
      </trkpt>
      <trkpt lat="44.48012" lon="0.94769">
        <ele>64.07</ele>
        <time>2015-11-28T16:11:29Z</time>
      </trkpt>
      <trkpt lat="44.4801" lon="0.94765">
        <ele>63.58</ele>
        <time>2015-11-28T16:11:30Z</time>
      </trkpt>
      <trkpt lat="44.48006" lon="0.94754">
        <ele>63.1</ele>
        <time>2015-11-28T16:11:32Z</time>
      </trkpt>
      <trkpt lat="44.47981" lon="0.94694">
        <ele>62.62</ele>
        <time>2015-11-28T16:11:45Z</time>
      </trkpt>
      <trkpt lat="44.47957" lon="0.94625">
        <ele>62.62</ele>
        <time>2015-11-28T16:11:58Z</time>
      </trkpt>
      <trkpt lat="44.47956" lon="0.9462">
        <ele>62.62</ele>
        <time>2015-11-28T16:11:59Z</time>
      </trkpt>
      <trkpt lat="44.47952" lon="0.94609">
        <ele>62.62</ele>
        <time>2015-11-28T16:12:01Z</time>
      </trkpt>
      <trkpt lat="44.47941" lon="0.9457">
        <ele>62.14</ele>
        <time>2015-11-28T16:12:08Z</time>
      </trkpt>
      <trkpt lat="44.47934" lon="0.9454">
        <ele>62.14</ele>
        <time>2015-11-28T16:12:13Z</time>
      </trkpt>
      <trkpt lat="44.47931" lon="0.94528">
        <ele>62.62</ele>
        <time>2015-11-28T16:12:15Z</time>
      </trkpt>
      <trkpt lat="44.47904" lon="0.94439">
        <ele>65.03</ele>
        <time>2015-11-28T16:12:32Z</time>
      </trkpt>
      <trkpt lat="44.47901" lon="0.94429">
        <ele>65.03</ele>
        <time>2015-11-28T16:12:34Z</time>
      </trkpt>
      <trkpt lat="44.47876" lon="0.94361">
        <ele>65.03</ele>
        <time>2015-11-28T16:12:46Z</time>
      </trkpt>
      <trkpt lat="44.47872" lon="0.94349">
        <ele>65.03</ele>
        <time>2015-11-28T16:12:48Z</time>
      </trkpt>
      <trkpt lat="44.47851" lon="0.94299">
        <ele>64.55</ele>
        <time>2015-11-28T16:12:57Z</time>
      </trkpt>
      <trkpt lat="44.47842" lon="0.94275">
        <ele>64.55</ele>
        <time>2015-11-28T16:13:01Z</time>
      </trkpt>
      <trkpt lat="44.47837" lon="0.94255">
        <ele>64.07</ele>
        <time>2015-11-28T16:13:04Z</time>
      </trkpt>
      <trkpt lat="44.47829" lon="0.94238">
        <ele>63.58</ele>
        <time>2015-11-28T16:13:07Z</time>
      </trkpt>
      <trkpt lat="44.47812" lon="0.9422">
        <ele>64.55</ele>
        <time>2015-11-28T16:13:12Z</time>
      </trkpt>
      <trkpt lat="44.47798" lon="0.94185">
        <ele>66.47</ele>
        <time>2015-11-28T16:13:19Z</time>
      </trkpt>
      <trkpt lat="44.47788" lon="0.94168">
        <ele>66.95</ele>
        <time>2015-11-28T16:13:22Z</time>
      </trkpt>
      <trkpt lat="44.47772" lon="0.94145">
        <ele>66.95</ele>
        <time>2015-11-28T16:13:27Z</time>
      </trkpt>
      <trkpt lat="44.47761" lon="0.94133">
        <ele>66.95</ele>
        <time>2015-11-28T16:13:30Z</time>
      </trkpt>
      <trkpt lat="44.47708" lon="0.94089">
        <ele>64.55</ele>
        <time>2015-11-28T16:13:43Z</time>
      </trkpt>
      <trkpt lat="44.47651" lon="0.94044">
        <ele>65.03</ele>
        <time>2015-11-28T16:13:58Z</time>
      </trkpt>
      <trkpt lat="44.47634" lon="0.94034">
        <ele>65.03</ele>
        <time>2015-11-28T16:14:02Z</time>
      </trkpt>
      <trkpt lat="44.47602" lon="0.94008">
        <ele>64.07</ele>
        <time>2015-11-28T16:14:10Z</time>
      </trkpt>
      <trkpt lat="44.47572" lon="0.93983">
        <ele>64.07</ele>
        <time>2015-11-28T16:14:17Z</time>
      </trkpt>
      <trkpt lat="44.47568" lon="0.9398">
        <ele>64.07</ele>
        <time>2015-11-28T16:14:18Z</time>
      </trkpt>
      <trkpt lat="44.47553" lon="0.93965">
        <ele>63.58</ele>
        <time>2015-11-28T16:14:22Z</time>
      </trkpt>
      <trkpt lat="44.47548" lon="0.93963">
        <ele>63.1</ele>
        <time>2015-11-28T16:14:23Z</time>
      </trkpt>
      <trkpt lat="44.47544" lon="0.93962">
        <ele>63.1</ele>
        <time>2015-11-28T16:14:24Z</time>
      </trkpt>
      <trkpt lat="44.47539" lon="0.93961">
        <ele>63.1</ele>
        <time>2015-11-28T16:14:25Z</time>
      </trkpt>
      <trkpt lat="44.47535" lon="0.93961">
        <ele>63.1</ele>
        <time>2015-11-28T16:14:26Z</time>
      </trkpt>
      <trkpt lat="44.47531" lon="0.9396">
        <ele>63.58</ele>
        <time>2015-11-28T16:14:27Z</time>
      </trkpt>
      <trkpt lat="44.47527" lon="0.93957">
        <ele>63.58</ele>
        <time>2015-11-28T16:14:28Z</time>
      </trkpt>
      <trkpt lat="44.47524" lon="0.93955">
        <ele>64.07</ele>
        <time>2015-11-28T16:14:29Z</time>
      </trkpt>
      <trkpt lat="44.47521" lon="0.93952">
        <ele>64.55</ele>
        <time>2015-11-28T16:14:30Z</time>
      </trkpt>
      <trkpt lat="44.47519" lon="0.93948">
        <ele>65.03</ele>
        <time>2015-11-28T16:14:31Z</time>
      </trkpt>
      <trkpt lat="44.47495" lon="0.939">
        <ele>68.87</ele>
        <time>2015-11-28T16:14:42Z</time>
      </trkpt>
      <trkpt lat="44.47491" lon="0.93896">
        <ele>68.87</ele>
        <time>2015-11-28T16:14:44Z</time>
      </trkpt>
      <trkpt lat="44.47489" lon="0.93896">
        <ele>69.35</ele>
        <time>2015-11-28T16:14:45Z</time>
      </trkpt>
      <trkpt lat="44.47487" lon="0.93896">
        <ele>69.35</ele>
        <time>2015-11-28T16:14:46Z</time>
      </trkpt>
      <trkpt lat="44.47485" lon="0.93896">
        <ele>68.87</ele>
        <time>2015-11-28T16:14:47Z</time>
      </trkpt>
      <trkpt lat="44.4748" lon="0.93896">
        <ele>68.87</ele>
        <time>2015-11-28T16:14:58Z</time>
      </trkpt>
      <trkpt lat="44.47479" lon="0.93897">
        <ele>68.39</ele>
        <time>2015-11-28T16:15:04Z</time>
      </trkpt>
      <trkpt lat="44.47477" lon="0.93899">
        <ele>68.39</ele>
        <time>2015-11-28T16:15:05Z</time>
      </trkpt>
      <trkpt lat="44.47475" lon="0.939">
        <ele>68.87</ele>
        <time>2015-11-28T16:15:06Z</time>
      </trkpt>
      <trkpt lat="44.47438" lon="0.93929">
        <ele>71.27</ele>
        <time>2015-11-28T16:15:17Z</time>
      </trkpt>
      <trkpt lat="44.47408" lon="0.93952">
        <ele>73.68</ele>
        <time>2015-11-28T16:15:27Z</time>
      </trkpt>
      <trkpt lat="44.47406" lon="0.93951">
        <ele>73.68</ele>
        <time>2015-11-28T16:15:28Z</time>
      </trkpt>
      <trkpt lat="44.47404" lon="0.93951">
        <ele>74.16</ele>
        <time>2015-11-28T16:15:29Z</time>
      </trkpt>
      <trkpt lat="44.47403" lon="0.93952">
        <ele>74.16</ele>
        <time>2015-11-28T16:15:30Z</time>
      </trkpt>
      <trkpt lat="44.4739" lon="0.93957">
        <ele>78</ele>
        <time>2015-11-28T16:15:39Z</time>
      </trkpt>
      <trkpt lat="44.47389" lon="0.93953">
        <ele>78.48</ele>
        <time>2015-11-28T16:15:40Z</time>
      </trkpt>
      <trkpt lat="44.47382" lon="0.93897">
        <ele>78.97</ele>
        <time>2015-11-28T16:15:54Z</time>
      </trkpt>
      <trkpt lat="44.47376" lon="0.93864">
        <ele>75.6</ele>
        <time>2015-11-28T16:16:00Z</time>
      </trkpt>
      <trkpt lat="44.47375" lon="0.93859">
        <ele>75.12</ele>
        <time>2015-11-28T16:16:01Z</time>
      </trkpt>
      <trkpt lat="44.47374" lon="0.93853">
        <ele>75.12</ele>
        <time>2015-11-28T16:16:02Z</time>
      </trkpt>
      <trkpt lat="44.47353" lon="0.93817">
        <ele>73.2</ele>
        <time>2015-11-28T16:16:12Z</time>
      </trkpt>
      <trkpt lat="44.47348" lon="0.93811">
        <ele>74.16</ele>
        <time>2015-11-28T16:16:14Z</time>
      </trkpt>
      <trkpt lat="44.47347" lon="0.93806">
        <ele>74.16</ele>
        <time>2015-11-28T16:16:15Z</time>
      </trkpt>
      <trkpt lat="44.47346" lon="0.93801">
        <ele>74.16</ele>
        <time>2015-11-28T16:16:16Z</time>
      </trkpt>
      <trkpt lat="44.47337" lon="0.93765">
        <ele>73.68</ele>
        <time>2015-11-28T16:16:23Z</time>
      </trkpt>
      <trkpt lat="44.47311" lon="0.93722">
        <ele>72.72</ele>
        <time>2015-11-28T16:16:34Z</time>
      </trkpt>
      <trkpt lat="44.4731" lon="0.93719">
        <ele>72.72</ele>
        <time>2015-11-28T16:16:35Z</time>
      </trkpt>
      <trkpt lat="44.47298" lon="0.93681">
        <ele>71.27</ele>
        <time>2015-11-28T16:16:44Z</time>
      </trkpt>
      <trkpt lat="44.47297" lon="0.93677">
        <ele>71.76</ele>
        <time>2015-11-28T16:16:45Z</time>
      </trkpt>
      <trkpt lat="44.47294" lon="0.93674">
        <ele>71.76</ele>
        <time>2015-11-28T16:16:46Z</time>
      </trkpt>
      <trkpt lat="44.47291" lon="0.93672">
        <ele>72.24</ele>
        <time>2015-11-28T16:16:47Z</time>
      </trkpt>
      <trkpt lat="44.47288" lon="0.93668">
        <ele>72.24</ele>
        <time>2015-11-28T16:16:48Z</time>
      </trkpt>
      <trkpt lat="44.47286" lon="0.93663">
        <ele>72.72</ele>
        <time>2015-11-28T16:16:49Z</time>
      </trkpt>
      <trkpt lat="44.47285" lon="0.93658">
        <ele>72.72</ele>
        <time>2015-11-28T16:16:50Z</time>
      </trkpt>
      <trkpt lat="44.4728" lon="0.93647">
        <ele>72.24</ele>
        <time>2015-11-28T16:16:52Z</time>
      </trkpt>
      <trkpt lat="44.47276" lon="0.93643">
        <ele>71.76</ele>
        <time>2015-11-28T16:16:53Z</time>
      </trkpt>
      <trkpt lat="44.47241" lon="0.9359">
        <ele>70.79</ele>
        <time>2015-11-28T16:17:06Z</time>
      </trkpt>
      <trkpt lat="44.4723" lon="0.93566">
        <ele>70.79</ele>
        <time>2015-11-28T16:17:13Z</time>
      </trkpt>
      <trkpt lat="44.4723" lon="0.93563">
        <ele>70.79</ele>
        <time>2015-11-28T16:17:14Z</time>
      </trkpt>
      <trkpt lat="44.47229" lon="0.93557">
        <ele>70.79</ele>
        <time>2015-11-28T16:17:21Z</time>
      </trkpt>
      <trkpt lat="44.47227" lon="0.93504">
        <ele>70.79</ele>
        <time>2015-11-28T16:17:34Z</time>
      </trkpt>
      <trkpt lat="44.4722" lon="0.93452">
        <ele>71.27</ele>
        <time>2015-11-28T16:17:48Z</time>
      </trkpt>
      <trkpt lat="44.4721" lon="0.93425">
        <ele>71.27</ele>
        <time>2015-11-28T16:17:57Z</time>
      </trkpt>
      <trkpt lat="44.47209" lon="0.93422">
        <ele>71.27</ele>
        <time>2015-11-28T16:17:58Z</time>
      </trkpt>
      <trkpt lat="44.47209" lon="0.9342">
        <ele>71.27</ele>
        <time>2015-11-28T16:17:59Z</time>
      </trkpt>
      <trkpt lat="44.47208" lon="0.93419">
        <ele>70.31</ele>
        <time>2015-11-28T16:18:10Z</time>
      </trkpt>
      <trkpt lat="44.47208" lon="0.93417">
        <ele>67.43</ele>
        <time>2015-11-28T16:18:44Z</time>
      </trkpt>
      <trkpt lat="44.47208" lon="0.93417">
        <ele>67.43</ele>
        <time>2015-11-28T16:19:16Z</time>
      </trkpt>
      <trkpt lat="44.47209" lon="0.93417">
        <ele>68.39</ele>
        <time>2015-11-28T16:19:59Z</time>
      </trkpt>
      <trkpt lat="44.47209" lon="0.93417">
        <ele>68.87</ele>
        <time>2015-11-28T16:20:37Z</time>
      </trkpt>
      <trkpt lat="44.47209" lon="0.93417">
        <ele>69.83</ele>
        <time>2015-11-28T16:21:15Z</time>
      </trkpt>
      <trkpt lat="44.47209" lon="0.93418">
        <ele>68.39</ele>
        <time>2015-11-28T16:21:39Z</time>
      </trkpt>
      <trkpt lat="44.47208" lon="0.93418">
        <ele>67.91</ele>
        <time>2015-11-28T16:22:04Z</time>
      </trkpt>
      <trkpt lat="44.47208" lon="0.93417">
        <ele>66.95</ele>
        <time>2015-11-28T16:22:34Z</time>
      </trkpt>
      <trkpt lat="44.47207" lon="0.93416">
        <ele>66.47</ele>
        <time>2015-11-28T16:23:09Z</time>
      </trkpt>
    </trkseg>
  </trk>
</gpx>